[[{"header":{"parameterUnit":"m.s-1","parameterCategory":1,"la1":30.6,"la2":29.2853,"lo1":-89.7004,"lo2":-87.6739,"dy":0.0162,"dx":0.0183,"nx":112,"ny":82,"refTime":"2024-02-14T06:00:00:Z","depth":0,"parameterNumber":2,"parameterNumberName":"U-component_of_WINDS"},"data":[0.0,0.0,0.0,0.0,0.0,0.0,0.0,0.0,0.0,0.0,0.0,0.0,0.0,0.0,0.0,0.0,0.0,0.0,0.0,0.0,0.0,0.0,0.0,0.0,0.0,0.0,0.0,0.0,0.0,0.0,0.0,0.0,0.0,0.0,0.0,0.0,0.0,0.0,0.0,0.0,0.0,0.0,0.0,0.0,0.0,0.0,0.0,0.0,0.0,0.0,0.0,0.0,0.0,0.0,0.0,0.0,0.0,0.0,0.0,0.0,0.0,0.0,0.0,0.0,0.0,0.0,0.0,0.0,0.0,0.0,0.0,0.0,0.0,0.0,0.0,0.0,0.0,0.0,0.0,0.0,0.0,0.0,0.0,0.0,0.0,0.0,0.0,0.0,0.0,0.0,-2.0487,-2.0505,-2.0507,-2.044,-2.0336,-2.0088,-1.9793,-1.9476,0.0,0.0,0.0,0.0,0.0,0.0,0.0,0.0,0.0,0.0,0.0,0.0,0.0,0.0,0.0,0.0,0.0,0.0,0.0,0.0,0.0,0.0,0.0,0.0,0.0,0.0,0.0,0.0,0.0,0.0,0.0,0.0,0.0,0.0,0.0,0.0,0.0,0.0,0.0,0.0,0.0,0.0,0.0,0.0,0.0,0.0,0.0,0.0,0.0,0.0,0.0,0.0,0.0,0.0,0.0,0.0,0.0,0.0,0.0,0.0,0.0,0.0,0.0,0.0,0.0,0.0,0.0,0.0,0.0,0.0,0.0,0.0,0.0,0.0,0.0,0.0,0.0,0.0,0.0,0.0,0.0,0.0,0.0,0.0,0.0,0.0,0.0,0.0,0.0,0.0,0.0,0.0,0.0,0.0,0.0,0.0,0.0,0.0,0.0,0.0,0.0,0.0,0.0,0.0,-2.0435,-2.0488,-2.0506,-2.0477,-2.0391,-2.0238,-2.0002,-1.968,0.0,0.0,0.0,0.0,0.0,0.0,0.0,0.0,0.0,0.0,0.0,0.0,0.0,0.0,0.0,0.0,0.0,0.0,0.0,0.0,0.0,0.0,0.0,0.0,0.0,0.0,0.0,0.0,0.0,0.0,0.0,0.0,0.0,0.0,0.0,0.0,0.0,0.0,0.0,0.0,0.0,0.0,0.0,0.0,0.0,0.0,0.0,0.0,0.0,0.0,0.0,0.0,0.0,0.0,0.0,0.0,0.0,0.0,0.0,0.0,0.0,0.0,0.0,0.0,0.0,0.0,0.0,0.0,0.0,0.0,0.0,0.0,0.0,0.0,0.0,0.0,0.0,0.0,0.0,0.0,0.0,0.0,0.0,0.0,0.0,0.0,0.0,0.0,0.0,0.0,0.0,0.0,0.0,0.0,0.0,0.0,0.0,0.0,0.0,0.0,0.0,0.0,0.0,-2.0292,-2.0324,-2.039,-2.0419,-2.0429,-2.0393,-2.0311,-2.0139,-1.983,-1.9351,0.0,0.0,0.0,0.0,0.0,0.0,0.0,0.0,0.0,0.0,0.0,0.0,0.0,0.0,0.0,0.0,0.0,0.0,0.0,0.0,0.0,0.0,0.0,0.0,0.0,0.0,0.0,0.0,0.0,0.0,0.0,0.0,0.0,0.0,0.0,0.0,0.0,0.0,0.0,0.0,0.0,0.0,0.0,0.0,0.0,0.0,0.0,0.0,0.0,0.0,0.0,0.0,0.0,0.0,0.0,0.0,0.0,0.0,0.0,0.0,0.0,0.0,0.0,0.0,0.0,0.0,0.0,0.0,0.0,0.0,0.0,0.0,0.0,0.0,0.0,0.0,0.0,0.0,0.0,0.0,0.0,0.0,0.0,0.0,0.0,0.0,0.0,0.0,0.0,0.0,0.0,0.0,0.0,0.0,0.0,0.0,0.0,0.0,0.0,0.0,0.0,0.0,-2.0141,-2.0181,-2.027,-2.0333,-2.0386,-2.0429,-2.036,-2.0218,-1.9997,-1.9656,0.0,0.0,0.0,0.0,0.0,0.0,0.0,0.0,0.0,0.0,0.0,0.0,0.0,0.0,0.0,0.0,0.0,0.0,0.0,0.0,0.0,0.0,0.0,0.0,0.0,0.0,0.0,0.0,0.0,0.0,0.0,0.0,0.0,0.0,0.0,0.0,0.0,0.0,0.0,0.0,0.0,0.0,0.0,0.0,0.0,0.0,0.0,0.0,0.0,0.0,0.0,0.0,0.0,0.0,0.0,0.0,0.0,0.0,0.0,0.0,0.0,0.0,0.0,0.0,0.0,0.0,0.0,0.0,0.0,0.0,0.0,0.0,0.0,0.0,0.0,0.0,0.0,0.0,0.0,0.0,0.0,0.0,0.0,0.0,0.0,0.0,0.0,0.0,0.0,0.0,0.0,0.0,0.0,0.0,0.0,0.0,0.0,0.0,0.0,0.0,0.0,0.0,-1.9973,-2.0063,-2.0196,-2.0279,-2.0352,-2.0476,-2.0422,-2.0324,-2.0194,-1.9863,0.0,0.0,0.0,0.0,0.0,0.0,0.0,0.0,0.0,0.0,0.0,0.0,0.0,0.0,0.0,0.0,0.0,0.0,0.0,0.0,0.0,0.0,0.0,0.0,0.0,0.0,0.0,0.0,0.0,0.0,0.0,0.0,0.0,0.0,0.0,0.0,0.0,0.0,0.0,0.0,0.0,0.0,0.0,0.0,0.0,0.0,0.0,0.0,0.0,0.0,0.0,0.0,0.0,0.0,0.0,0.0,0.0,0.0,0.0,0.0,0.0,0.0,0.0,0.0,0.0,0.0,0.0,0.0,0.0,0.0,0.0,0.0,0.0,0.0,0.0,0.0,0.0,0.0,0.0,0.0,0.0,0.0,0.0,0.0,0.0,0.0,0.0,0.0,0.0,0.0,0.0,0.0,0.0,0.0,0.0,0.0,0.0,0.0,0.0,0.0,0.0,0.0,-1.9756,-1.9847,-1.9939,-2.0088,-2.0227,-2.0367,-2.0388,-2.0364,-2.0266,0.0,0.0,0.0,0.0,0.0,0.0,0.0,0.0,0.0,0.0,0.0,0.0,0.0,0.0,0.0,0.0,0.0,0.0,0.0,0.0,0.0,0.0,0.0,0.0,0.0,0.0,0.0,0.0,0.0,0.0,0.0,0.0,0.0,0.0,0.0,0.0,0.0,0.0,0.0,0.0,0.0,0.0,0.0,0.0,0.0,0.0,0.0,0.0,0.0,0.0,0.0,0.0,0.0,0.0,0.0,0.0,0.0,0.0,0.0,0.0,0.0,0.0,0.0,0.0,0.0,0.0,0.0,0.0,0.0,0.0,0.0,0.0,0.0,0.0,0.0,0.0,0.0,0.0,0.0,0.0,0.0,0.0,0.0,0.0,0.0,0.0,0.0,0.0,0.0,0.0,0.0,0.0,0.0,0.0,0.0,0.0,0.0,0.0,0.0,0.0,0.0,0.0,-1.9412,-1.949,-1.9612,-1.9718,-1.9915,-2.0104,-2.0258,-2.0355,-2.037,-2.0329,0.0,0.0,0.0,0.0,0.0,0.0,0.0,0.0,0.0,0.0,0.0,0.0,0.0,0.0,0.0,0.0,0.0,0.0,0.0,0.0,0.0,0.0,0.0,0.0,0.0,0.0,0.0,0.0,0.0,0.0,0.0,0.0,0.0,0.0,0.0,0.0,0.0,0.0,0.0,0.0,0.0,0.0,0.0,0.0,0.0,0.0,0.0,0.0,0.0,0.0,0.0,0.0,0.0,0.0,0.0,0.0,0.0,0.0,0.0,0.0,0.0,0.0,0.0,0.0,0.0,0.0,0.0,0.0,0.0,0.0,0.0,0.0,0.0,0.0,0.0,0.0,0.0,0.0,0.0,0.0,0.0,0.0,0.0,0.0,0.0,0.0,0.0,0.0,0.0,0.0,0.0,0.0,0.0,0.0,0.0,0.0,0.0,0.0,0.0,0.0,0.0,0.0,-1.9192,-1.9253,-1.9365,-1.9569,-1.9781,-1.9983,-2.018,-2.032,-2.0393,0.0,0.0,0.0,0.0,0.0,0.0,0.0,0.0,0.0,0.0,0.0,0.0,0.0,0.0,0.0,0.0,0.0,0.0,0.0,0.0,0.0,0.0,0.0,0.0,0.0,0.0,0.0,0.0,0.0,0.0,0.0,0.0,0.0,0.0,0.0,0.0,0.0,0.0,0.0,0.0,0.0,0.0,0.0,0.0,0.0,0.0,0.0,0.0,0.0,0.0,0.0,0.0,0.0,0.0,0.0,0.0,0.0,0.0,0.0,0.0,0.0,0.0,0.0,0.0,0.0,0.0,0.0,0.0,0.0,0.0,0.0,0.0,0.0,0.0,0.0,0.0,0.0,0.0,0.0,0.0,0.0,0.0,0.0,0.0,0.0,0.0,0.0,0.0,0.0,0.0,0.0,0.0,0.0,0.0,0.0,0.0,0.0,0.0,0.0,0.0,0.0,0.0,0.0,-1.878,-1.8842,-1.8961,-1.9217,-1.9465,-1.9711,-1.9974,-2.0157,-2.0294,-2.0387,0.0,0.0,0.0,0.0,0.0,0.0,0.0,0.0,0.0,0.0,0.0,0.0,0.0,0.0,0.0,0.0,0.0,0.0,0.0,0.0,0.0,0.0,0.0,0.0,0.0,0.0,0.0,0.0,0.0,0.0,0.0,0.0,0.0,0.0,0.0,0.0,0.0,0.0,0.0,0.0,0.0,0.0,0.0,0.0,0.0,0.0,0.0,0.0,0.0,0.0,0.0,0.0,0.0,0.0,0.0,0.0,0.0,0.0,0.0,0.0,0.0,0.0,0.0,0.0,0.0,0.0,0.0,0.0,0.0,0.0,0.0,0.0,0.0,0.0,0.0,0.0,0.0,0.0,0.0,0.0,0.0,0.0,0.0,0.0,0.0,0.0,0.0,0.0,0.0,0.0,0.0,0.0,0.0,0.0,0.0,0.0,0.0,0.0,0.0,0.0,0.0,0.0,-1.8413,-1.8454,-1.8606,-1.8869,-1.9143,-1.9421,-1.9745,-1.9986,-2.0185,-2.0345,0.0,0.0,0.0,0.0,0.0,0.0,0.0,0.0,0.0,0.0,0.0,0.0,0.0,0.0,0.0,0.0,0.0,0.0,0.0,0.0,0.0,0.0,0.0,0.0,0.0,0.0,0.0,0.0,0.0,0.0,0.0,0.0,0.0,0.0,0.0,0.0,0.0,0.0,0.0,0.0,0.0,0.0,0.0,0.0,0.0,0.0,0.0,0.0,0.0,0.0,0.0,0.0,0.0,0.0,0.0,0.0,0.0,0.0,0.0,0.0,0.0,0.0,0.0,0.0,0.0,0.0,0.0,0.0,0.0,0.0,0.0,0.0,0.0,0.0,0.0,0.0,0.0,0.0,0.0,0.0,0.0,0.0,0.0,0.0,0.0,0.0,0.0,0.0,0.0,0.0,0.0,0.0,0.0,0.0,0.0,0.0,0.0,0.0,0.0,0.0,0.0,0.0,-1.8037,-1.8086,-1.8249,-1.8508,-1.8789,-1.9119,-1.9513,-1.9801,-2.0041,-2.0254,0.0,0.0,0.0,0.0,0.0,0.0,0.0,0.0,0.0,0.0,0.0,0.0,0.0,0.0,0.0,0.0,0.0,0.0,0.0,0.0,0.0,0.0,0.0,0.0,0.0,0.0,0.0,0.0,0.0,0.0,0.0,0.0,0.0,0.0,0.0,0.0,0.0,0.0,0.0,0.0,0.0,0.0,0.0,0.0,0.0,0.0,0.0,0.0,0.0,0.0,0.0,0.0,0.0,0.0,0.0,0.0,0.0,0.0,0.0,0.0,-2.5408,-2.5488,0.0,0.0,0.0,0.0,0.0,0.0,0.0,0.0,0.0,0.0,0.0,0.0,0.0,0.0,0.0,0.0,0.0,0.0,0.0,0.0,0.0,0.0,0.0,0.0,0.0,0.0,0.0,0.0,0.0,0.0,0.0,0.0,0.0,0.0,0.0,0.0,0.0,0.0,0.0,0.0,-1.7555,-1.7602,-1.7743,-1.802,-1.8338,-1.869,-1.9097,-1.9472,-1.979,-2.005,-2.0231,0.0,0.0,0.0,0.0,0.0,0.0,0.0,0.0,0.0,0.0,0.0,0.0,0.0,0.0,0.0,0.0,0.0,0.0,0.0,0.0,0.0,0.0,0.0,0.0,0.0,0.0,0.0,0.0,0.0,0.0,0.0,0.0,0.0,0.0,0.0,0.0,0.0,0.0,0.0,0.0,0.0,0.0,0.0,0.0,0.0,0.0,0.0,0.0,0.0,0.0,0.0,0.0,0.0,0.0,0.0,0.0,0.0,0.0,0.0,-2.553,-2.5372,0.0,0.0,0.0,0.0,0.0,0.0,0.0,0.0,0.0,0.0,0.0,0.0,0.0,0.0,0.0,0.0,0.0,0.0,0.0,0.0,0.0,0.0,0.0,0.0,0.0,0.0,0.0,0.0,0.0,0.0,0.0,0.0,0.0,0.0,0.0,0.0,0.0,0.0,0.0,0.0,-1.703,-1.7101,-1.7272,-1.7522,-1.7864,-1.8096,-1.8189,-1.8913,-1.9332,-1.9273,-1.983,0.0,0.0,0.0,0.0,0.0,0.0,0.0,0.0,0.0,0.0,0.0,0.0,0.0,0.0,0.0,0.0,0.0,0.0,0.0,0.0,0.0,0.0,0.0,0.0,0.0,0.0,0.0,0.0,0.0,0.0,0.0,0.0,0.0,0.0,0.0,0.0,0.0,0.0,0.0,0.0,0.0,0.0,0.0,0.0,0.0,0.0,0.0,0.0,0.0,0.0,0.0,0.0,0.0,-2.5957,-2.63,-2.6366,-2.6387,-2.6479,-2.6525,-2.5663,-2.5315,-2.5355,-2.5241,0.0,0.0,0.0,0.0,0.0,0.0,0.0,0.0,0.0,0.0,0.0,0.0,0.0,0.0,0.0,0.0,0.0,0.0,0.0,0.0,0.0,0.0,-2.3792,-2.3676,-2.3516,-2.3469,-2.3826,0.0,0.0,0.0,0.0,0.0,0.0,0.0,0.0,0.0,0.0,0.0,-1.6461,-1.6567,-1.6716,-1.6848,-1.7171,-1.7254,-1.6999,-1.7973,-1.8537,-1.8406,-1.922,-1.9885,0.0,0.0,0.0,0.0,0.0,0.0,0.0,0.0,0.0,0.0,0.0,0.0,0.0,0.0,0.0,0.0,0.0,0.0,0.0,0.0,0.0,0.0,0.0,0.0,0.0,0.0,0.0,0.0,0.0,0.0,0.0,0.0,-2.4521,-2.4404,0.0,0.0,0.0,0.0,0.0,0.0,0.0,0.0,0.0,0.0,0.0,0.0,0.0,-2.5161,-2.5149,-2.5186,-2.5239,-2.5308,-2.5345,-2.5411,-2.5475,-2.5585,-2.5641,-2.566,-2.5635,0.0,-2.5604,-2.5022,0.0,0.0,0.0,0.0,0.0,0.0,0.0,0.0,0.0,0.0,0.0,0.0,0.0,0.0,0.0,0.0,0.0,0.0,0.0,0.0,0.0,0.0,-2.2986,-2.274,-2.2617,-2.2521,-2.2333,-2.269,-2.2751,-2.1729,-2.0656,-1.9597,0.0,0.0,0.0,0.0,0.0,0.0,-1.5839,-1.5981,-1.5958,-1.5587,-1.5847,-1.5972,-1.5753,-1.6264,-1.6984,-1.7928,-1.8385,-1.9044,-2.0009,-2.016,0.0,0.0,0.0,0.0,0.0,0.0,0.0,0.0,0.0,0.0,0.0,0.0,0.0,0.0,0.0,0.0,0.0,0.0,0.0,0.0,0.0,0.0,0.0,0.0,0.0,0.0,0.0,0.0,0.0,-2.4549,-2.4587,-2.4925,-2.5156,-2.5249,0.0,0.0,0.0,0.0,0.0,0.0,0.0,0.0,0.0,-2.454,-2.4484,-2.4426,-2.4352,-2.4743,-2.4931,-2.4978,-2.5387,-2.5637,-2.5746,-2.5807,-2.5899,-2.599,-2.5631,-2.5304,-2.5004,-2.4827,-2.4533,-2.4195,0.0,0.0,0.0,0.0,-2.4204,-2.4143,-2.4144,-2.4072,-2.3989,-2.3867,0.0,0.0,0.0,0.0,0.0,0.0,0.0,-2.2518,-2.2319,-2.2204,-2.2054,-2.1821,-2.1694,-2.1449,-2.0797,-2.0801,-2.0759,-2.0167,-1.9246,-1.8224,-1.7155,-1.6466,0.0,0.0,0.0,-1.5389,-1.5224,-1.5344,-1.527,-1.4835,-1.5137,-1.5102,-1.448,-1.5278,-1.5915,-1.6194,-1.7373,-1.8354,-1.9023,-1.9649,-2.0061,0.0,0.0,0.0,0.0,0.0,0.0,0.0,0.0,0.0,0.0,0.0,0.0,0.0,0.0,0.0,0.0,0.0,0.0,0.0,0.0,0.0,0.0,0.0,0.0,0.0,0.0,0.0,0.0,-2.4491,-2.4541,-2.5055,-2.5097,-2.5072,0.0,0.0,0.0,0.0,0.0,0.0,-2.4365,-2.4298,-2.4163,-2.3942,-2.3907,-2.3836,-2.3694,-2.4245,-2.4521,-2.4539,-2.5125,-2.548,-2.5613,-2.5631,-2.5722,-2.5815,-2.5176,-2.4564,-2.4056,-2.434,-2.4038,-2.3426,-2.3437,-2.3437,-2.3426,-2.3437,-2.3386,-2.3332,-2.333,-2.3298,-2.3188,-2.3029,-2.2915,-2.2788,-2.2552,0.0,0.0,0.0,0.0,-2.1528,-2.1253,-2.1131,-2.1022,-2.0782,-2.0525,-2.0111,-1.9353,-1.8837,-1.85,-1.8468,-1.7833,-1.6987,-1.5929,-1.5521,0.0,-1.497,-1.4815,-1.4688,-1.4529,-1.4533,-1.4364,-1.394,-1.4116,-1.3953,-1.3173,-1.4086,-1.4693,-1.4691,-1.6351,-1.755,-1.8064,-1.9077,-1.9714,-1.9916,0.0,0.0,0.0,0.0,0.0,0.0,0.0,0.0,0.0,0.0,0.0,0.0,0.0,0.0,0.0,0.0,0.0,0.0,0.0,0.0,0.0,0.0,0.0,0.0,0.0,0.0,0.0,0.0,0.0,-2.4076,-2.4514,0.0,0.0,0.0,0.0,-2.5368,-2.518,-2.4987,-2.4779,-2.4595,-2.4416,-2.428,-2.4214,-2.4128,-2.3989,-2.402,-2.4035,-2.4035,-2.4086,-2.4179,-2.4302,-2.4368,-2.4409,-2.4382,-2.395,-2.3407,-2.2839,-2.3283,-2.3034,-2.239,-2.2456,-2.2426,-2.239,-2.2456,-2.2443,-2.2377,-2.2363,-2.2269,-2.2177,-2.2163,-2.1907,-2.1556,-2.1349,-2.1196,0.0,0.0,-2.0635,-2.0419,-2.0148,-2.0026,-1.9884,-1.9492,-1.8951,-1.8456,-1.8147,-1.7028,-1.6271,-1.6879,-1.6758,-1.623,-1.5221,0.0,-1.4549,-1.4214,-1.41,-1.3983,-1.3785,-1.3475,-1.3098,-1.2562,-1.234,-1.2118,-1.1829,-1.221,-1.2944,-1.4062,-1.5311,-1.6466,-1.7499,-1.8575,-1.9228,-1.9431,-1.963,0.0,0.0,0.0,0.0,0.0,0.0,0.0,0.0,0.0,0.0,0.0,0.0,0.0,0.0,0.0,0.0,0.0,0.0,0.0,0.0,0.0,0.0,0.0,0.0,0.0,0.0,0.0,0.0,-2.4263,-2.4309,0.0,-2.4194,-2.4217,-2.4174,-2.4009,-2.3842,-2.3595,-2.3279,-2.3186,-2.3069,-2.2885,-2.2863,-2.2773,-2.2661,-2.2661,-2.2661,-2.2661,-2.2661,-2.2706,-2.284,-2.2505,-2.2438,-2.2536,-2.2051,-2.1535,-2.1039,-2.1196,-2.1322,-2.1405,-2.1435,-2.142,-2.1405,-2.1435,-2.139,-2.1331,-2.1331,-2.1224,-2.1037,-2.0863,-2.0653,-2.0437,-2.0285,-2.008,-1.9886,-1.9778,-1.9516,-1.9251,-1.9022,-1.8868,-1.8598,-1.7974,-1.7558,-1.7052,-1.608,-1.5417,-1.4894,-1.4588,-1.4761,-1.4784,-1.4246,-1.4006,-1.3772,-1.3446,-1.3336,-1.312,-1.2622,-1.2544,-1.2247,-1.1468,-1.1509,-1.1483,-1.1209,-1.1553,-1.2054,-1.272,-1.429,-1.5482,-1.6116,-1.7597,-1.8529,-1.8817,-1.8979,-1.914,0.0,0.0,0.0,0.0,0.0,0.0,0.0,0.0,0.0,0.0,0.0,0.0,0.0,0.0,0.0,0.0,0.0,0.0,0.0,0.0,0.0,0.0,0.0,0.0,0.0,-2.333,-2.3252,-2.3734,-2.346,-2.3215,-2.3164,-2.2907,-2.2647,-2.2435,-2.2329,-2.2122,-2.174,-2.1655,-2.155,-2.1387,-2.1325,-2.1215,-2.1094,-2.1094,-2.1094,-2.1094,-2.1094,-2.1097,-2.1107,-2.0758,-2.0607,-2.0587,-2.0054,-1.9649,-1.9359,-1.9208,-1.9371,-1.973,-2.0105,-2.0256,-2.0256,-2.0256,-2.0238,-2.0203,-2.0169,-2.0049,-1.9843,-1.9611,-1.9411,-1.9259,-1.9115,-1.8873,-1.8646,-1.8526,-1.8313,-1.8064,-1.782,-1.7524,-1.713,-1.6507,-1.597,-1.5355,-1.4405,-1.3907,-1.3478,-1.288,-1.3289,-1.3643,-1.3357,-1.3199,-1.3005,-1.2655,-1.2555,-1.2306,-1.167,-1.1573,-1.129,-1.0609,-1.064,-1.0678,-1.061,-1.0938,-1.1315,-1.1636,-1.3399,-1.4596,-1.4944,-1.6664,-1.7746,-1.8055,-1.8284,-1.8456,-1.8592,0.0,0.0,0.0,0.0,0.0,0.0,0.0,0.0,0.0,0.0,0.0,0.0,0.0,0.0,0.0,0.0,0.0,0.0,0.0,0.0,0.0,0.0,0.0,-2.2981,-2.2676,-2.2329,-2.2329,-2.1918,-2.1625,-2.1625,-2.1387,-2.1121,-2.0851,-2.0826,-2.0692,-2.0345,-2.0143,-2.0004,-1.994,-1.9736,-1.9569,-1.944,-1.944,-1.944,-1.944,-1.9427,-1.9321,-1.9127,-1.9102,-1.8917,-1.8577,-1.8054,-1.783,-1.7778,-1.739,-1.725,-1.736,-1.8493,-1.8962,-1.8962,-1.8962,-1.8962,-1.8943,-1.8878,-1.875,-1.8608,-1.8405,-1.8224,-1.8013,-1.7807,-1.7558,-1.73,-1.7115,-1.7008,-1.6854,-1.651,-1.6045,-1.5541,-1.5113,-1.4212,-1.3377,-1.3177,-1.2517,-1.1934,-1.1872,-1.2425,-1.2812,-1.2514,-1.2401,-1.2222,-1.1829,-1.1763,0.0,-1.101,-1.0553,-1.0172,-0.9968,-0.9665,-0.9595,-0.9944,-1.026,-1.0614,-1.094,-1.2639,-1.376,-1.4048,-1.5768,-1.686,-1.7154,-1.7552,-1.7763,-1.7752,0.0,0.0,0.0,0.0,0.0,0.0,0.0,0.0,0.0,0.0,0.0,0.0,0.0,0.0,0.0,0.0,0.0,0.0,0.0,0.0,0.0,-1.9939,-2.0167,-2.1356,-2.1287,-2.0986,-2.0752,-2.0495,-2.0232,-1.9978,-1.971,-1.9491,-1.931,-1.9218,-1.9046,-1.8741,-1.8688,-1.8528,-1.8274,-1.8209,-1.8155,-1.8128,-1.8128,-1.8128,-1.8128,-1.7823,-1.7647,-1.7562,-1.695,-1.6681,-1.6645,-1.6221,-1.6037,-1.6092,-1.5957,-1.5918,-1.6049,-1.7395,-1.7913,-1.7913,-1.7913,-1.7854,-1.7753,-1.7585,-1.7504,-1.7409,-1.712,-1.6975,-1.6891,-1.6638,-1.6403,-1.6222,-1.6179,-1.5896,-1.5514,-1.509,-1.4687,-1.4184,-1.3285,-1.2732,-1.2255,-1.173,-1.133,-1.1027,-1.0973,-1.1046,-1.1204,-1.1505,-1.1468,-1.13,-1.1038,-1.0754,-1.0368,-0.9838,-0.9445,-0.9106,-0.8797,-0.8767,-0.8887,-0.9185,-0.9466,-0.9766,-1.0121,-1.1368,-1.243,-1.313,-1.4345,-1.5356,-1.6171,-1.653,-1.6658,0.0,0.0,0.0,0.0,0.0,0.0,0.0,0.0,0.0,0.0,0.0,0.0,0.0,0.0,0.0,0.0,0.0,0.0,0.0,0.0,0.0,0.0,-1.8573,-1.8442,-1.8923,-1.9311,-1.9478,-1.9296,-1.898,-1.8688,-1.8424,-1.8221,-1.8004,-1.7797,-1.766,-1.7495,-1.7274,-1.7135,-1.6957,-1.6761,-1.6715,-1.6687,-1.6687,-1.6687,-1.6581,-1.6407,-1.6196,-1.5956,-1.5689,-1.5188,-1.4941,-1.4923,-1.4693,-1.4617,-1.4663,-1.4721,-1.4744,-1.4846,0.0,0.0,0.0,0.0,-1.6574,-1.648,-1.6373,-1.6265,-1.6179,-1.5983,-1.5808,-1.562,-1.5408,-1.5208,-1.5039,-1.4994,-1.4552,-1.406,-1.3729,-1.3216,-1.2584,-1.1807,-1.1386,-1.1022,-1.0525,-1.0263,-1.0099,-1.0069,-0.9884,0.0,-1.0138,-1.0408,-1.0445,-1.0048,-0.9794,-0.9404,-0.8759,-0.8506,-0.8276,-0.7997,-0.8056,-0.8231,-0.849,-0.8778,0.0,0.0,0.0,-1.149,-1.2698,-1.3651,0.0,0.0,0.0,-1.5519,-1.5388,-1.5475,0.0,0.0,-1.6415,-1.6745,0.0,0.0,0.0,0.0,0.0,0.0,0.0,0.0,0.0,0.0,0.0,0.0,0.0,0.0,0.0,0.0,-1.7135,-1.6743,-1.6187,-1.6996,-1.7688,-1.7809,-1.7424,-1.7118,-1.6968,-1.6821,-1.6606,-1.6283,-1.6169,-1.6016,-1.5862,-1.5574,0.0,0.0,0.0,-1.5206,-1.5206,-1.5206,-1.5013,-1.4625,-1.4586,-1.4248,-1.373,-1.3681,-1.3575,-1.3396,-1.342,-1.342,-1.342,-1.3542,-1.3603,-1.3721,-1.4812,-1.5242,-1.5242,-1.522,-1.522,-1.5231,-1.5197,0.0,0.0,-1.4903,-1.4641,-1.4342,-1.4192,-1.3993,-1.3802,-1.3674,-1.3155,-1.2592,-1.2418,-1.1711,-1.095,-1.0572,-1.0155,-0.9794,-0.9529,-0.931,-0.9179,-0.9179,-0.893,-0.8699,-0.8687,-0.9319,-0.9615,-0.9003,-0.8847,-0.8532,-0.7803,-0.7668,-0.7569,-0.7409,-0.7442,0.0,-0.7864,-0.8117,-0.8372,-0.8651,-0.9611,-1.0833,-1.2357,-1.3243,-1.3792,-1.3968,-1.4226,-1.4292,-1.4169,-1.4169,-1.4041,-1.3798,-1.4871,-1.5489,0.0,0.0,0.0,0.0,0.0,0.0,0.0,0.0,0.0,0.0,0.0,0.0,0.0,0.0,0.0,-1.5909,-1.5564,-1.5216,-1.4827,-1.4768,-1.5129,-1.5967,-1.592,-1.5661,-1.5361,-1.5226,-1.506,-1.4903,-1.4874,-1.4717,-1.4403,-1.4344,-1.4174,-1.3914,-1.3893,-1.3863,-1.3863,-1.3863,-1.3759,-1.3504,-1.3191,0.0,-1.2593,-1.2374,-1.2265,-1.224,-1.228,-1.2295,-1.232,-1.2344,-1.2344,-1.2482,-1.3768,-1.4271,-1.4271,-1.4143,-1.412,-1.4097,-1.4001,-1.3907,-1.3836,-1.3637,-1.3508,-1.3423,-1.3164,-1.2899,0.0,-1.2682,-1.2144,-1.1477,-1.1026,-1.0491,-0.9921,-0.9304,-0.9062,-0.8898,-0.8756,-0.8553,-0.8423,-0.8423,-0.8226,-0.8036,-0.7933,-0.8398,-0.868,-0.833,-0.7901,-0.7501,-0.7124,-0.6786,-0.6619,-0.6681,-0.6703,-0.6846,-0.7172,-0.7296,-0.7486,-0.7811,-0.9128,-1.0142,-1.0742,-1.18,-1.2448,-1.2583,-1.2746,-1.2798,-1.2699,-1.2768,-1.2646,-1.2419,-1.348,-1.3838,0.0,0.0,0.0,0.0,0.0,0.0,0.0,0.0,0.0,0.0,0.0,-1.6185,-1.5659,0.0,-1.4875,-1.4364,-1.4106,-1.3807,-1.3416,-1.3144,-1.3408,-1.4512,-1.4521,-1.4323,-1.3986,-1.3897,-1.3756,-1.3515,-1.3442,-1.3329,-1.3169,-1.3039,-1.2926,-1.275,-1.275,-1.275,-1.275,-1.275,-1.2535,-1.2114,-1.1906,-1.1611,-1.1232,-1.1099,-1.1124,-1.1242,-1.1276,-1.136,-1.1435,-1.1435,-1.1435,-1.151,-1.2187,-1.2667,-1.2991,-1.2909,-1.2885,-1.2895,-1.2832,-1.2793,-1.272,-1.2598,-1.2452,-1.232,-1.2123,-1.1916,-1.1681,-1.1379,-1.0828,-1.0248,-0.9771,-0.9285,-0.8794,-0.8348,-0.8214,-0.8152,-0.7987,-0.7773,-0.7599,-0.7599,-0.744,-0.728,-0.7217,-0.723,-0.7259,-0.7251,-0.6911,-0.6544,-0.623,-0.6018,-0.5944,-0.6044,-0.6044,-0.6168,-0.6474,-0.6708,-0.6933,-0.7142,-0.8396,-0.9231,-0.9443,-1.0509,-1.1161,-1.1302,-1.1402,-1.1428,-1.1402,-1.1402,-1.1273,-1.1049,-1.1421,-1.1766,0.0,0.0,0.0,0.0,0.0,0.0,0.0,0.0,-1.5946,-1.5448,-1.5012,-1.458,-1.4079,-1.3768,-1.3455,-1.2917,-1.2696,-1.2458,-1.2019,-1.1779,-1.2004,-1.2876,-1.3031,-1.2956,-1.2704,-1.2642,-1.2489,-1.2235,-1.2104,-1.205,-1.2027,-1.1833,-1.1701,-1.1677,-1.1639,-1.1639,-1.1677,-1.1677,-1.1375,-1.0779,-1.0779,-1.0512,-1.002,-1.002,-1.0123,-1.0318,-1.0318,-1.0421,-1.0608,-1.0608,-1.0608,-1.0633,-1.0608,-1.0981,-1.1518,-1.171,-1.1785,-1.1785,-1.1726,-1.1685,-1.1644,-1.1585,-1.141,-1.1209,-1.1091,-1.0939,-1.0713,-1.0156,-0.9605,-0.909,-0.8668,-0.8195,-0.7752,-0.7558,-0.7482,-0.7412,-0.7223,-0.7006,-0.6831,-0.6816,-0.6662,-0.6513,-0.652,-0.6098,-0.5878,-0.6198,-0.5987,-0.5672,-0.5352,-0.5302,-0.5327,-0.5392,-0.543,-0.5547,-0.5804,-0.6152,-0.6405,-0.648,-0.7503,-0.8163,-0.833,-0.9236,-0.9819,-1.0002,-1.005,-1.0079,-1.0079,-1.0012,-0.9885,-0.9699,-0.9383,-0.9778,-1.5418,-1.5679,-1.6069,-1.6161,-1.5979,-1.562,0.0,0.0,-1.4464,-1.3879,-1.3567,-1.3243,-1.2626,-1.2351,-1.2081,-1.1577,-1.1344,-1.1118,-1.0762,-1.0598,-1.0458,-1.042,-1.1094,-1.1514,-1.149,-1.1327,-1.1202,-1.117,-1.1139,-1.1083,-1.0958,-1.0769,-1.0611,-1.0491,-1.0313,-1.0313,-1.0491,-1.0491,-1.0315,-1.002,-1.002,-0.9785,-0.9309,-0.9309,-0.9335,-0.9368,-0.9368,-0.9439,-0.9569,-0.9569,-0.9647,-0.9744,-0.9621,-0.9621,-0.9795,-1.0676,-1.1015,-1.0989,-1.0829,-1.0753,-1.0702,-1.0482,-1.0372,-1.032,-1.0192,-0.9969,-0.9703,-0.9408,-0.8887,-0.8311,-0.7849,-0.7421,-0.7063,-0.6852,-0.6732,-0.6605,-0.6465,-0.6343,-0.6243,-0.6142,-0.5986,-0.5879,-0.5825,-0.5332,-0.5112,-0.5615,-0.5305,-0.4933,-0.4641,-0.4606,-0.4638,-0.4708,-0.4816,-0.4976,-0.5178,-0.5399,-0.5587,-0.572,-0.6292,-0.6855,-0.734,-0.7816,-0.8211,-0.8533,-0.8541,-0.8541,-0.8541,-0.8533,-0.844,-0.8228,-0.8064,-0.8472,-1.4129,-1.4461,-1.4697,0.0,-1.4239,-1.3832,-1.3489,-1.3127,-1.2763,-1.2312,-1.2066,-1.1757,-1.1236,-1.0954,-1.071,0.0,-1.0117,-0.9932,-0.9652,-0.9524,-0.9396,-0.93,-0.953,-0.9881,-1.0383,-1.0345,-1.0225,-1.0034,-1.0002,-0.9939,-0.9754,-0.969,-0.9594,-0.953,-0.946,-0.946,-0.953,-0.953,-0.9389,-0.9091,-0.9091,-0.8852,-0.8435,-0.8435,-0.8521,-0.8613,-0.8712,-0.8765,-0.8811,-0.8811,-0.8837,-0.889,-0.8837,-0.8811,-0.8916,-0.9647,-0.9914,-0.9914,-0.9803,-0.9777,-0.9777,-0.9666,-0.9562,-0.9484,-0.9347,-0.9171,-0.8892,-0.8315,-0.7979,-0.7615,-0.696,-0.6649,-0.6471,-0.6237,-0.6099,-0.5992,-0.5873,-0.568,-0.5534,-0.5491,-0.534,-0.521,-0.5171,-0.4671,-0.4352,-0.458,-0.4476,-0.4339,-0.4226,-0.4215,-0.4215,-0.4248,-0.4344,-0.4419,-0.4504,-0.4708,-0.4868,-0.495,-0.5465,-0.593,-0.6313,-0.6751,-0.7107,-0.7377,-0.7363,-0.7363,-0.7363,-0.7287,-0.7175,-0.7015,-0.6756,-0.6792,-1.2857,-1.3067,0.0,-1.2755,-1.2388,-1.202,-1.1819,-1.1485,-1.1149,-1.0836,-1.0577,-1.0325,-0.9888,-0.9633,-0.9416,-0.9134,-0.8947,-0.8823,-0.8662,-0.8538,-0.8441,-0.8441,-0.8317,-0.8468,-0.9102,-0.9294,-0.923,-0.8952,-0.8952,-0.8888,-0.8727,-0.8662,-0.863,-0.863,-0.8598,-0.8598,-0.863,-0.863,-0.8515,-0.821,-0.821,-0.8029,-0.7691,-0.7691,-0.775,-0.7895,-0.7996,-0.8076,-0.8096,-0.8096,-0.8129,-0.8156,-0.8103,-0.8096,-0.8123,-0.8494,-0.8765,-0.8975,-0.8949,-0.8923,-0.8923,-0.8863,-0.8765,-0.8633,-0.8514,-0.8382,-0.8084,-0.7389,-0.7122,-0.6901,-0.6144,-0.5922,-0.5836,-0.562,-0.5518,-0.5415,-0.5275,-0.5079,-0.4905,-0.4884,-0.4731,-0.46,-0.4561,-0.4106,-0.3729,-0.3686,-0.3664,-0.3684,-0.3765,-0.3765,-0.3749,-0.3749,-0.3805,-0.3865,-0.3876,-0.4053,-0.4183,-0.4242,-0.4615,-0.4981,-0.53,-0.5639,-0.5941,-0.6225,-0.6231,-0.6231,-0.6231,-0.6091,-0.5957,-0.5819,-0.5529,-0.5293,-1.1499,0.0,-1.1236,-1.0735,-1.0577,-1.0451,-0.999,-0.9869,-0.9773,-0.9428,-0.9192,-0.8962,-0.8613,-0.8393,-0.8204,-0.8079,-0.7889,-0.7731,-0.7731,-0.7624,-0.7521,-0.7521,-0.7521,-0.7554,0.0,-0.7977,-0.8204,-0.8047,-0.8052,-0.8052,-0.8019,-0.7857,-0.7731,-0.7731,-0.7624,-0.7591,-0.7731,-0.7731,-0.7665,-0.7542,-0.7542,-0.7388,-0.7139,-0.7139,-0.7139,-0.7139,-0.7139,-0.7214,-0.7343,-0.7343,-0.7402,-0.7515,-0.7375,-0.7343,-0.7316,-0.7214,-0.7696,-0.8395,-0.8275,-0.8221,-0.8189,-0.801,-0.7851,-0.775,-0.7723,-0.7557,-0.7242,-0.6761,-0.6428,-0.6105,-0.5489,-0.5236,-0.5123,-0.505,-0.4915,-0.4797,-0.4661,-0.4513,-0.4408,-0.4338,-0.4202,-0.4071,-0.3946,-0.3591,-0.3282,-0.314,-0.2905,-0.2861,-0.3175,-0.3171,-0.3122,-0.3122,-0.3192,-0.3253,-0.3327,-0.3446,-0.3565,-0.3618,-0.3639,-0.3853,-0.4319,-0.4361,-0.458,-0.5043,-0.5048,-0.5048,-0.5048,-0.4913,-0.4783,-0.4635,-0.443,-0.4208,-0.9819,0.0,-0.9494,-0.925,-0.8988,-0.8763,-0.8479,-0.8285,-0.8161,-0.7944,-0.7847,-0.7744,-0.7479,-0.7321,-0.7195,-0.7134,-0.6975,-0.6843,-0.6843,-0.6811,-0.6778,-0.6778,-0.6778,0.0,0.0,0.0,0.0,-0.7269,-0.7199,-0.7068,-0.6942,-0.6876,-0.6843,-0.6843,-0.6811,-0.6778,-0.6843,-0.697,-0.6935,-0.6717,-0.6668,-0.6595,-0.6507,-0.6507,-0.6507,-0.6507,-0.6507,-0.6534,-0.6561,-0.6561,-0.6588,-0.6642,-0.6588,-0.6561,-0.6556,-0.6507,-0.6696,-0.6993,-0.7348,-0.7461,-0.7434,-0.7273,-0.7192,-0.7117,-0.6896,-0.6783,-0.661,-0.6082,-0.5814,-0.5548,-0.499,-0.4731,-0.4626,-0.4561,-0.4364,-0.4188,-0.414,-0.3994,-0.3862,-0.384,-0.366,-0.348,-0.3435,-0.3074,-0.2696,-0.2469,-0.2503,-0.261,-0.2726,-0.2676,-0.2639,-0.2639,-0.2659,-0.2673,-0.2702,-0.2735,-0.2805,-0.2871,-0.2871,-0.3034,-0.3414,-0.3478,-0.3644,-0.393,-0.403,-0.4067,-0.4067,-0.3847,-0.3719,-0.3653,-0.3366,-0.3145,-0.8178,-0.8016,-0.7827,-0.7674,-0.7479,-0.7284,-0.7088,-0.6961,-0.6835,-0.6741,-0.6675,-0.6572,-0.647,-0.6342,-0.6247,-0.6247,-0.6119,-0.6053,-0.6053,-0.6053,-0.6053,-0.6053,-0.6053,-0.602,0.0,0.0,0.0,-0.6552,-0.6449,-0.635,-0.6218,-0.6222,-0.6222,-0.6222,-0.6222,-0.6222,-0.6222,-0.635,-0.6297,-0.6061,-0.6004,-0.5949,-0.5878,-0.5878,-0.5878,-0.5878,-0.5878,-0.5878,-0.5878,-0.5878,-0.5878,-0.5878,-0.5878,-0.5878,-0.5878,-0.5878,-0.5878,-0.5959,-0.6566,-0.6783,-0.6756,-0.668,-0.6571,-0.6463,-0.6241,-0.6105,-0.5927,-0.5493,-0.5255,-0.501,-0.4538,-0.4276,-0.4144,-0.4056,-0.388,-0.3707,-0.366,-0.3505,-0.3376,-0.3357,-0.3176,-0.3018,-0.2948,-0.2578,-0.2208,-0.1996,-0.202,-0.2128,-0.2261,-0.2208,-0.2142,-0.2125,-0.2142,-0.2142,-0.2142,-0.2192,-0.2245,-0.2278,-0.2278,-0.2404,-0.266,-0.2738,-0.2872,-0.3045,-0.3098,-0.3142,-0.3142,-0.2898,-0.2768,-0.2768,-0.2393,-0.2194,-0.6588,-0.6424,-0.6235,-0.6042,-0.6009,-0.598,-0.5822,-0.5822,-0.5822,-0.5822,-0.5653,-0.555,0.0,0.0,-0.5329,-0.5329,-0.5332,-0.5339,-0.5339,-0.5339,-0.5339,0.0,0.0,0.0,0.0,0.0,0.0,-0.5789,-0.5822,-0.5855,-0.5855,-0.5855,-0.5855,-0.5855,-0.5855,-0.5855,-0.5855,-0.5848,-0.5745,-0.557,-0.5551,-0.5458,-0.5254,-0.5254,-0.5254,-0.5254,-0.5254,-0.5254,-0.5254,-0.5254,-0.5254,-0.5254,-0.5254,-0.5254,-0.5254,-0.5254,-0.5254,-0.5332,-0.5905,-0.6127,-0.6154,-0.6154,-0.5964,-0.5773,-0.5746,-0.5527,-0.5218,-0.5019,-0.4772,-0.4481,-0.4171,-0.3865,-0.3656,-0.3575,-0.3464,-0.3331,-0.3195,-0.3059,-0.2946,-0.2887,-0.2754,-0.2618,-0.2477,-0.2125,-0.1837,-0.1685,-0.145,-0.1417,-0.1814,-0.1744,-0.1642,-0.1575,-0.1625,-0.1678,-0.1678,-0.1778,-0.1864,-0.1864,-0.1864,-0.1909,-0.2026,-0.2111,-0.2195,-0.2317,-0.2273,-0.2235,-0.2235,-0.2032,-0.1943,-0.1921,-0.1544,-0.1344,-0.4945,-0.4878,-0.4782,-0.458,-0.4649,-0.4719,-0.4525,-0.4589,-0.4722,-0.4722,-0.4652,-0.4619,0.0,0.0,0.0,-0.4589,-0.4636,0.0,-0.4663,-0.4663,0.0,-0.4663,0.0,-0.4589,-0.4589,-0.4519,0.0,-0.4686,-0.4924,-0.5096,-0.5096,-0.5096,-0.5096,-0.5096,-0.5096,-0.5096,-0.5096,-0.5088,-0.5066,-0.5083,-0.4931,-0.4805,-0.4708,-0.4708,-0.4708,-0.4708,-0.4708,-0.4708,-0.4708,-0.4708,-0.4708,-0.4708,-0.4708,-0.4708,-0.4708,-0.4708,-0.4708,-0.4736,-0.4873,-0.5199,-0.5527,-0.5422,-0.5344,-0.5234,-0.5042,-0.4936,-0.4789,-0.4499,-0.4211,-0.3957,-0.3768,-0.3455,-0.3167,-0.3148,-0.3018,-0.2862,-0.284,-0.2637,-0.2479,-0.246,-0.2306,-0.2085,-0.1803,-0.1675,-0.1527,-0.1293,-0.1154,-0.1163,-0.1421,-0.1328,-0.1244,-0.1226,-0.1244,-0.1261,-0.1261,-0.1278,-0.1311,-0.1311,-0.1311,-0.1269,-0.1201,-0.1313,-0.1342,-0.1278,-0.1359,-0.141,-0.141,-0.1252,-0.114,-0.1028,-0.0827,-0.065,-0.362,-0.3587,-0.3587,-0.3451,-0.3587,-0.3689,-0.3591,-0.3692,-0.3823,-0.3823,-0.3823,0.0,-0.3925,-0.3959,0.0,0.0,0.0,0.0,-0.4191,-0.4199,-0.4212,0.0,-0.4135,0.0,-0.4095,-0.409,-0.409,-0.409,-0.4392,-0.4592,-0.4592,-0.4592,-0.4592,-0.4592,-0.4592,-0.4592,-0.4592,-0.4584,-0.455,-0.4448,-0.4438,-0.4355,-0.4184,-0.4242,-0.427,-0.427,-0.427,-0.427,-0.427,-0.427,-0.427,-0.427,-0.427,-0.427,-0.427,-0.4211,-0.4184,-0.4184,-0.4135,-0.4298,-0.4598,-0.4767,-0.4767,-0.4688,-0.4522,-0.4411,-0.4254,-0.4068,-0.3793,-0.35,-0.338,-0.3106,-0.2837,-0.2724,-0.2613,-0.2506,-0.242,-0.2284,-0.2125,-0.2014,-0.1835,-0.1624,-0.1367,-0.1255,-0.1115,-0.0903,-0.0803,-0.0759,-0.0842,-0.0905,-0.0908,-0.0841,-0.0841,-0.0841,-0.0841,-0.0841,-0.0841,-0.0841,-0.0808,-0.0756,-0.0689,-0.0727,-0.0707,-0.0628,-0.0687,-0.0695,-0.0695,-0.056,-0.0426,-0.0291,-0.0157,-0.0022,-0.2482,-0.2485,-0.2485,-0.2519,-0.2653,-0.2822,-0.2855,-0.2958,-0.3058,-0.3092,0.0,-0.3161,-0.3362,-0.3395,-0.3462,-0.3625,0.0,-0.3762,-0.3762,-0.3815,-0.384,-0.3773,-0.3751,-0.3737,-0.3667,-0.3656,-0.3656,-0.3656,-0.3923,-0.412,-0.422,-0.422,-0.422,-0.422,-0.422,-0.422,-0.422,-0.422,-0.4113,-0.3866,-0.4008,-0.3967,-0.3739,-0.3836,-0.3882,-0.3882,-0.3882,-0.3882,-0.3882,-0.3882,-0.3882,-0.3882,-0.3882,-0.3882,-0.3855,-0.3741,-0.3713,-0.3685,-0.358,-0.3527,-0.3638,-0.4187,-0.4273,-0.411,-0.411,-0.3938,-0.3741,-0.3713,-0.343,-0.3093,-0.2966,-0.2782,-0.2551,-0.2326,-0.2235,-0.217,-0.1995,-0.1928,-0.1839,-0.1569,-0.1366,-0.1208,-0.1052,-0.087,-0.0699,-0.0548,-0.0428,-0.0331,-0.0241,-0.0457,-0.0576,-0.0454,-0.0437,-0.0437,-0.0437,-0.0437,-0.0437,-0.0437,-0.0387,-0.0337,-0.0289,-0.0243,-0.0197,-0.0159,-0.0108,-0.009,-0.009,0.0045,0.0157,0.0292,0.0427,0.0538,-0.1403,-0.1378,-0.1412,-0.1512,-0.168,-0.1883,-0.2051,-0.2253,0.0,0.0,-0.2523,-0.2591,-0.2788,-0.2855,-0.2855,-0.2887,-0.2978,-0.3074,-0.3074,-0.3143,-0.3165,0.0,-0.3015,-0.2977,-0.2894,-0.2887,0.0,0.0,-0.2954,-0.3255,-0.3859,-0.3889,-0.3889,-0.3889,-0.3889,-0.3889,-0.3889,-0.3889,-0.3795,-0.3644,-0.3585,-0.3475,-0.3374,-0.3283,-0.3269,-0.3269,-0.3269,-0.3269,-0.3269,-0.3269,-0.3269,-0.3269,-0.3269,-0.3269,-0.3241,-0.3241,-0.3213,-0.3213,-0.3188,-0.3188,-0.3244,-0.3635,-0.3722,-0.3694,-0.358,-0.3497,-0.3438,-0.3269,-0.298,-0.2695,-0.267,-0.2405,-0.2107,-0.2062,-0.1882,-0.1703,-0.1681,-0.1547,-0.1344,-0.1074,-0.0985,-0.0896,-0.0651,-0.058,-0.0461,-0.0233,-0.0167,-0.0082,0.0098,-0.0074,-0.0177,-0.0101,-0.0084,-0.0084,-0.0084,-0.0084,-0.0084,-0.0084,-0.0084,0.0034,0.0251,0.0267,0.036,0.052,0.0547,0.0539,0.0539,0.0562,0.0651,0.0784,0.0919,0.1052,-0.0533,-0.0605,-0.0707,-0.0774,-0.0975,-0.1244,-0.1446,0.0,0.0,0.0,-0.1985,-0.2085,-0.2388,-0.2453,0.0,-0.2686,-0.2814,-0.2913,-0.2913,-0.2975,0.0,-0.2928,-0.288,-0.2814,0.0,-0.2686,-0.2686,-0.2686,-0.2686,-0.2854,-0.3222,-0.3222,-0.3222,-0.3222,-0.3222,-0.3222,-0.3222,-0.3222,-0.3179,-0.3095,-0.3034,-0.3004,-0.2936,-0.2899,-0.2884,-0.2884,-0.2884,-0.2884,-0.2884,-0.2884,-0.2884,-0.2884,-0.2884,-0.2884,-0.2882,-0.2826,-0.2798,-0.277,-0.2657,-0.2629,-0.2657,-0.2826,-0.3049,-0.3216,-0.3079,-0.2996,-0.2912,-0.2826,-0.2558,-0.2296,-0.2296,-0.2049,-0.1772,-0.1703,-0.15,-0.1321,-0.1254,-0.1099,-0.092,-0.074,-0.0606,-0.0471,-0.0269,-0.018,-0.0067,0.0131,0.0196,0.0279,0.043,0.044,0.0386,0.0276,0.0232,0.0228,0.0298,0.0273,0.0272,0.0315,0.0386,0.0485,0.0662,0.0696,0.0782,0.0966,0.0987,0.1032,0.1055,0.1055,0.1144,0.1277,0.1321,0.1433,0.0099,0.0,-0.0135,-0.0202,-0.0438,-0.0672,-0.0908,-0.1076,0.0,0.0,-0.1513,-0.1648,-0.2018,0.0,-0.2153,0.0,-0.2568,-0.2658,-0.2658,-0.274,-0.2781,0.0,-0.2669,0.0,-0.2486,-0.2461,0.0,-0.2452,-0.2452,-0.2519,-0.2686,-0.2686,-0.2686,-0.2686,-0.2686,-0.2686,-0.2686,-0.2686,-0.2657,-0.2635,-0.2654,-0.2636,-0.2584,-0.2617,-0.2597,-0.2605,-0.2605,-0.2605,-0.2605,-0.2605,-0.2605,-0.2605,-0.2605,-0.2605,-0.2577,-0.2465,-0.2437,-0.241,-0.2212,-0.2155,-0.2155,-0.21,-0.2378,-0.274,-0.2633,-0.2521,-0.2437,-0.2408,-0.2161,-0.192,-0.1895,-0.1692,-0.1456,-0.13,-0.112,-0.0963,-0.0828,-0.0695,-0.0562,-0.0427,-0.0247,-0.0067,0.0067,0.018,0.0315,0.045,0.0539,0.0643,0.0772,0.0897,0.0906,0.0711,0.0596,0.0574,0.0686,0.066,0.0674,0.0721,0.0834,0.0948,0.1054,0.1095,0.1183,0.132,0.1387,0.1433,0.1478,0.1478,0.1547,0.1681,0.1725,0.1792,0.045,0.043,0.0337,0.0034,-0.0067,-0.0169,-0.0472,0.0,0.0,-0.1109,-0.1244,-0.1379,-0.1614,-0.1648,0.0,0.0,0.0,-0.1823,-0.1823,-0.1943,-0.1985,-0.1893,0.0,0.0,-0.1785,-0.1741,-0.1715,-0.1715,-0.1715,-0.1982,-0.2653,-0.2686,-0.2686,-0.2686,-0.2686,-0.2686,-0.2686,-0.2686,-0.2683,-0.2676,-0.2637,-0.2563,-0.2516,-0.2378,-0.2305,-0.224,-0.224,-0.224,-0.224,-0.224,-0.224,-0.224,-0.224,-0.224,-0.224,-0.224,-0.224,-0.2212,-0.2071,-0.2015,-0.1987,-0.1738,-0.1934,-0.2266,-0.224,-0.224,-0.2212,-0.2071,-0.1893,-0.1691,-0.1514,-0.131,-0.1075,-0.0831,-0.0742,-0.0674,-0.0494,-0.0337,-0.0202,-0.0067,0.0067,0.0202,0.0337,0.0427,0.0517,0.0652,0.0785,0.0917,0.1047,0.118,0.1267,0.1308,0.109,0.0957,0.0957,0.107,0.1147,0.1152,0.1206,0.1331,0.1519,0.1551,0.1606,0.1738,0.1744,0.1748,0.177,0.177,0.1839,0.1973,0.2087,0.2174,0.0797,0.0749,0.066,0.0504,0.0337,0.0101,-0.0135,0.0,-0.0573,-0.0876,-0.0977,-0.1077,-0.1379,-0.1412,-0.1446,0.0,0.0,0.0,-0.1714,-0.1829,-0.187,-0.1824,-0.1742,0.0,0.0,0.0,-0.1614,-0.1614,-0.1614,-0.1715,-0.2016,-0.2049,-0.2049,-0.2049,-0.2049,-0.2049,-0.2049,-0.2049,-0.2049,-0.2049,-0.196,-0.1936,-0.1882,-0.1793,-0.1736,-0.1654,-0.1654,-0.1654,-0.1654,-0.1654,-0.1654,-0.1654,-0.1654,-0.1654,-0.1654,-0.1654,-0.1654,-0.1654,-0.1597,-0.1569,-0.1569,-0.1458,-0.1514,-0.1654,-0.1654,-0.1654,-0.1653,-0.1597,-0.1494,-0.1363,-0.121,-0.0953,-0.0696,-0.0562,-0.045,-0.036,-0.0202,-0.0045,0.009,0.0225,0.0382,0.0517,0.0562,0.0741,0.0875,0.0942,0.1098,0.1208,0.1277,0.1478,0.1614,0.1636,0.1445,0.133,0.1411,0.1436,0.145,0.1491,0.1534,0.1585,0.1723,0.1726,0.1829,0.204,0.2042,0.2107,0.2217,0.2217,0.2239,0.2306,0.235,0.2395,0.0964,0.0924,0.0844,0.0795,0.057,0.0303,0.0,0.0,-0.0371,-0.0607,-0.0674,-0.0809,-0.1111,-0.1144,-0.1211,0.0,0.0,-0.1459,-0.1459,-0.1486,-0.1484,0.0,0.0,-0.1375,-0.1386,-0.1306,-0.1279,-0.1279,-0.1279,-0.1279,-0.1279,-0.1279,-0.138,-0.158,-0.1614,-0.1614,-0.1614,-0.1614,-0.1614,-0.1614,-0.1548,-0.1505,-0.1513,-0.1449,-0.1373,-0.1291,-0.1291,-0.1291,-0.1291,-0.1291,-0.1291,-0.1291,-0.1291,-0.1291,-0.1291,-0.1291,-0.1262,-0.1234,-0.1206,-0.115,-0.1122,-0.1066,-0.1038,-0.1038,-0.1038,-0.1122,-0.1234,-0.1206,-0.1067,-0.0931,-0.0847,-0.0615,-0.0382,-0.0292,-0.018,-0.0045,0.009,0.0247,0.0382,0.0472,0.0674,0.0808,0.0808,0.1031,0.1186,0.1186,0.1366,0.1523,0.1523,0.1725,0.1884,0.1906,0.181,0.1732,0.1734,0.1769,0.1803,0.1839,0.1906,0.1953,0.2014,0.2016,0.2107,0.2288,0.2288,0.2353,0.2504,0.2504,0.2526,0.2551,0.2551,0.2573,0.0914,0.0957,0.0969,0.084,0.066,0.0472,0.0,0.0,-0.0303,-0.0303,-0.0404,-0.0573,-0.0776,-0.0809,-0.0876,-0.1076,0.0,0.0,-0.0911,-0.0723,-0.0628,0.0,0.0,-0.0619,-0.0619,-0.0556,-0.0506,-0.0506,-0.0506,-0.0506,-0.0506,-0.0506,-0.0842,-0.158,-0.1614,-0.1614,-0.1614,-0.1614,-0.1614,-0.1614,-0.1614,-0.1567,-0.1514,-0.1513,-0.1433,-0.1291,-0.1291,-0.1291,-0.1291,-0.1291,-0.1291,-0.1291,-0.1291,-0.1291,-0.1291,-0.1291,-0.1206,-0.1094,-0.0954,-0.0814,-0.0673,-0.0477,-0.0421,-0.0421,-0.0421,-0.0729,-0.1066,-0.0954,-0.0667,-0.04,-0.041,-0.0302,-0.018,-0.0045,0.009,0.0225,0.036,0.0562,0.0697,0.0697,0.092,0.1097,0.1097,0.1254,0.1389,0.1389,0.1636,0.1794,0.1794,0.1906,0.2042,0.2178,0.2259,0.2168,0.1837,0.204,0.2199,0.2199,0.2373,0.2482,0.2482,0.2482,0.2504,0.2504,0.2504,0.2504,0.2504,0.2504,0.2573,0.2709,0.2709,0.2776,0.0879,0.0942,0.0976,0.0835,0.066,0.0472,0.0337,0.0,-0.0135,-0.027,-0.0337,-0.0404,-0.0573,-0.0607,-0.0607,-0.0674,-0.0705,0.0,0.0,0.0,0.0,-0.0589,-0.0602,-0.0539,0.0,-0.0374,-0.0303,-0.0168,-0.0168,-0.0168,-0.0168,-0.0303,-0.0506,-0.0842,-0.0842,-0.0842,-0.0842,-0.0842,-0.0842,-0.0842,-0.0842,-0.085,-0.0834,-0.0927,-0.0925,-0.0898,-0.0982,-0.1038,-0.1038,-0.1038,-0.0982,-0.0898,-0.0898,-0.0813,-0.0673,-0.0673,-0.0645,-0.0617,-0.0561,-0.0533,-0.0477,-0.0421,-0.0393,-0.0393,-0.028,-0.0421,-0.0614,-0.0572,-0.034,-0.0125,-0.0121,0.0046,0.0225,0.027,0.0405,0.0562,0.0607,0.0807,0.0963,0.0963,0.1142,0.1299,0.1299,0.15,0.1681,0.1681,0.1817,0.1973,0.2064,0.215,0.2259,0.2395,0.2415,0.2393,0.2284,0.235,0.2395,0.2395,0.2462,0.2504,0.2504,0.2504,0.2551,0.264,0.264,0.2684,0.2776,0.2776,0.2798,0.2845,0.2845,0.2887,0.0,0.0747,0.0806,0.0696,0.0557,0.0404,0.0,0.0,-0.0034,-0.0169,-0.0202,-0.0236,-0.0404,-0.0438,-0.0438,-0.0506,-0.0493,-0.0474,0.0,0.0,0.0,-0.0153,0.0,0.0,0.0,0.0,0.0067,0.0168,0.0202,0.0202,0.0202,0.0067,-0.0034,-0.0135,-0.0371,-0.0506,-0.0506,-0.0506,-0.0506,-0.0506,-0.0506,-0.0491,-0.0494,-0.0587,-0.0597,-0.0589,-0.0673,-0.0701,0.0,-0.0701,-0.0673,-0.0589,-0.0589,-0.0505,-0.0393,-0.0393,-0.0364,-0.0308,-0.028,-0.0224,-0.0168,-0.0112,-0.0112,-0.0084,0.0,-0.0056,-0.0167,-0.0109,0.0026,0.015,0.0147,0.0328,0.0517,0.0517,0.0696,0.0853,0.0853,0.1031,0.1208,0.1208,0.1389,0.1547,0.1547,0.1725,0.1884,0.1951,0.204,0.2172,0.2286,0.235,0.2437,0.2551,0.2573,0.2595,0.264,0.2595,0.2573,0.2573,0.2618,0.264,0.264,0.264,0.2687,0.2776,0.2776,0.2821,0.289,0.289,0.289,0.289,0.289,0.2929,0.0,0.0441,0.0494,0.0494,0.0388,0.0303,0.027,0.0,0.0,0.0,0.0,-0.0067,-0.0236,-0.027,-0.0304,-0.0439,-0.0318,-0.0182,0.0,0.0191,0.0,0.0,0.0619,0.0607,0.0576,0.0573,0.0573,0.0573,0.0573,0.0573,0.0573,0.0573,0.0539,0.0539,-0.0067,-0.0404,-0.0438,-0.0438,-0.0438,-0.0438,-0.0438,-0.0425,-0.0432,-0.0463,-0.0447,-0.0393,-0.0393,-0.0393,-0.0393,-0.0393,-0.0393,-0.0393,-0.0364,-0.0364,-0.0364,-0.0336,-0.0252,-0.014,-0.0028,0.0112,0.0224,0.0364,0.0421,0.0449,0.0449,0.0336,0.0252,0.0393,0.0427,0.0428,0.0428,0.0596,0.0719,0.0719,0.092,0.1119,0.1119,0.1277,0.1433,0.1433,0.1636,0.1817,0.1817,0.1928,0.2062,0.2199,0.2284,0.2368,0.2504,0.2504,0.2573,0.2709,0.2709,0.2776,0.289,0.2776,0.2709,0.2709,0.2821,0.289,0.289,0.289,0.289,0.289,0.289,0.289,0.289,0.289,0.289,0.289,0.289,0.2929,-0.0056,0.0,0.0463,0.0309,0.0291,0.027,0.0,0.0,0.0,0.0,0.0,0.0,-0.0067,0.0067,0.0136,0.0104,0.025,0.0404,0.0449,0.0,0.0,0.0807,0.0838,0.0893,0.1082,0.111,0.1177,0.1345,0.1345,0.1345,0.1345,0.1211,0.1076,0.0975,0.0672,0.0404,0.027,0.027,0.027,0.027,0.027,0.0196,0.0093,-0.0062,-0.0179,-0.0252,-0.0364,-0.0393,-0.0393,-0.0393,-0.0336,-0.0224,-0.014,-0.0028,0.0084,0.0168,0.0224,0.0252,0.0308,0.0336,0.0364,0.0393,0.0561,0.0785,0.0785,0.0589,0.0393,0.0589,0.0667,0.0731,0.0832,0.0929,0.1008,0.1008,0.1165,0.1321,0.1321,0.1524,0.1703,0.1703,0.1839,0.1997,0.2087,0.2172,0.2281,0.2417,0.2437,0.2504,0.264,0.2662,0.2709,0.2845,0.2845,0.2868,0.289,0.2868,0.2845,0.2845,0.289,0.289,0.289,0.289,0.289,0.289,0.289,0.289,0.289,0.289,0.289,0.289,0.289,0.2929,-0.0224,0.0029,0.0247,0.0123,0.0129,0.0135,0.0034,0.0,0.0,0.0,0.0,0.0,0.0202,0.0303,0.0408,0.0419,0.0609,0.0,0.0,0.0,0.1181,0.1245,0.1262,0.1303,0.1418,0.1446,0.148,0.158,0.1614,0.1614,0.1614,0.1513,0.1412,0.1344,0.121,0.0942,0.0506,0.0506,0.0506,0.0506,0.0499,0.0452,0.0401,0.0243,0.0147,0.0084,0.0,-0.0028,-0.0028,-0.0028,0.0,0.0084,0.0168,0.0224,0.0308,0.0364,0.0393,0.0421,0.0589,0.0701,0.0813,0.0813,0.0926,0.1094,0.1094,0.0954,0.0842,0.0954,0.0998,0.103,0.1089,0.1182,0.1284,0.1238,0.1411,0.1591,0.1591,0.1748,0.1884,0.1884,0.2018,0.2172,0.2239,0.2326,0.2437,0.2573,0.2595,0.264,0.2776,0.2798,0.2821,0.2929,0.2951,0.2973,0.304,0.304,0.3018,0.2951,0.2996,0.304,0.304,0.304,0.304,0.304,0.2973,0.2951,0.2951,0.2909,0.289,0.289,0.289,0.2929,-0.028,-0.0147,-0.0031,0.0,0.0,0.0,0.0,0.0,0.0,0.0,0.0,0.0,0.0,0.0539,0.0,0.0,0.0,0.0,0.1601,0.177,0.184,0.1793,0.1817,0.1803,0.1786,0.1782,0.1782,0.1782,0.1782,0.1782,0.1782,0.1782,0.1748,0.1681,0.1681,0.1346,0.0674,0.0674,0.0674,0.0674,0.0654,0.0636,0.0586,0.0508,0.0434,0.0393,0.0393,0.0393,0.0393,0.0393,0.0393,0.0393,0.0421,0.0449,0.0477,0.0505,0.0533,0.0589,0.087,0.1122,0.1291,0.1291,0.1319,0.1347,0.1375,0.1402,0.1402,0.143,0.1396,0.135,0.1309,0.1429,0.1558,0.1482,0.1666,0.1839,0.1839,0.1951,0.204,0.204,0.2194,0.2346,0.2346,0.246,0.2573,0.2709,0.2732,0.2776,0.2887,0.2909,0.2951,0.3012,0.3034,0.3078,0.3192,0.3214,0.3192,0.3078,0.3148,0.3192,0.3192,0.3192,0.3192,0.3192,0.3078,0.3012,0.3012,0.2951,0.2912,0.289,0.289,0.2932,-0.0421,-0.0265,-0.0154,-0.0031,0.0,0.0,0.0,0.0,0.0,0.0,0.0,0.0,0.0,0.0774,0.1018,0.0,0.0,0.1712,0.0,0.0,0.2103,0.2196,0.2314,0.2423,0.2525,0.2519,0.2519,0.2519,0.2519,0.2519,0.2519,0.2519,0.2386,0.212,0.212,0.1884,0.1447,0.1447,0.1447,0.1446,0.1372,0.1207,0.0925,0.0867,0.0665,0.0393,0.0393,0.0393,0.0393,0.0393,0.0393,0.0421,0.0589,0.0729,0.0842,0.0954,0.1066,0.1178,0.1234,0.1262,0.1291,0.1291,0.1403,0.1572,0.1685,0.1794,0.1903,0.2017,0.186,0.1651,0.1774,0.1811,0.1834,0.182,0.1888,0.1973,0.1973,0.2127,0.2259,0.2259,0.237,0.2504,0.2618,0.2662,0.2709,0.2845,0.2868,0.2887,0.2968,0.2993,0.3034,0.3148,0.317,0.317,0.3192,0.3306,0.3353,0.3328,0.3262,0.3192,0.3192,0.3192,0.3192,0.3192,0.317,0.3103,0.3012,0.299,0.2948,0.289,0.289,0.2912,-0.0458,-0.0298,-0.0155,0.0095,0.0065,0.0034,0.0,0.0,0.0,0.0,0.0,0.0,0.0,0.0,0.1426,0.1675,0.0,0.2161,0.2411,0.2474,0.2495,0.2573,0.2576,0.2622,0.269,0.2686,0.2686,0.2686,0.2686,0.2686,0.2686,0.2686,0.2619,0.2487,0.2453,0.2386,0.2183,0.2153,0.1939,0.1544,0.1501,0.1395,0.1204,0.1136,0.1024,0.0898,0.0898,0.0898,0.0898,0.0898,0.0898,0.0898,0.0982,0.1066,0.1122,0.1178,0.1319,0.1459,0.1543,0.1626,0.1681,0.1765,0.185,0.1934,0.199,0.2073,0.2127,0.2183,0.2077,0.199,0.2033,0.2078,0.2116,0.2073,0.217,0.2269,0.2269,0.2341,0.2415,0.2415,0.2504,0.2618,0.2687,0.2754,0.2843,0.2929,0.2951,0.2993,0.3101,0.3101,0.317,0.3284,0.3306,0.3328,0.342,0.3464,0.3512,0.3512,0.3442,0.342,0.342,0.342,0.342,0.342,0.335,0.3284,0.3214,0.3078,0.2993,0.2951,0.2909,0.289,-0.0409,-0.0241,-0.0093,0.0224,0.0,0.0,0.0,0.0,0.0,0.0,0.0,0.0,0.0,0.158,0.0,0.2268,0.239,0.2534,0.2911,0.2919,0.294,0.2973,0.297,0.2954,0.2954,0.2954,0.2954,0.2954,0.2954,0.2921,0.2889,0.2889,0.2855,0.2787,0.2753,0.2744,0.2662,0.264,0.2322,0.1772,0.1679,0.1599,0.1501,0.1425,0.1347,0.1291,0.1291,0.1291,0.1291,0.1291,0.1291,0.1291,0.1291,0.1347,0.1431,0.1458,0.157,0.1768,0.1852,0.1962,0.2071,0.2155,0.2212,0.2212,0.2268,0.2268,0.2268,0.2296,0.2352,0.2339,0.2277,0.2355,0.2404,0.2362,0.2479,0.2603,0.2603,0.2612,0.2616,0.2592,0.268,0.2763,0.2779,0.2865,0.2951,0.3034,0.3056,0.3101,0.3236,0.3239,0.3306,0.3442,0.3442,0.349,0.36,0.3604,0.3604,0.3604,0.3604,0.3604,0.3604,0.3604,0.3604,0.3604,0.349,0.342,0.3398,0.317,0.3034,0.299,0.2932,0.289,-0.0292,-0.0121,0.0031,0.0256,0.0,0.0,0.0,0.0,0.0,0.0,0.0,0.0,0.0,0.1884,0.2275,0.2684,0.277,0.2833,0.3051,0.3207,0.3326,0.353,0.3651,0.3725,0.3725,0.3725,0.3725,0.3725,0.3725,0.3625,0.3464,0.3431,0.3295,0.2989,0.2989,0.2854,0.2621,0.2616,0.2581,0.2515,0.2219,0.1975,0.1851,0.1681,0.1487,0.1291,0.1291,0.1291,0.1291,0.1291,0.1291,0.1291,0.1291,0.1487,0.1768,0.1905,0.2043,0.2156,0.2156,0.2183,0.2183,0.2184,0.2212,0.224,0.241,0.2465,0.2493,0.2635,0.2747,0.2802,0.2541,0.2617,0.2766,0.2759,0.2813,0.2863,0.2863,0.2926,0.2938,0.2887,0.2942,0.2975,0.299,0.299,0.3034,0.317,0.3192,0.3236,0.3376,0.3398,0.3442,0.3578,0.3578,0.3578,0.3604,0.3604,0.3604,0.3604,0.3604,0.3604,0.3604,0.3604,0.3604,0.3604,0.36,0.3534,0.3398,0.3262,0.3126,0.299,0.2932,0.289,-0.012,0.0061,0.0281,0.0687,0.0,0.0,0.0,0.0,0.0,0.0,0.0,0.0,0.0,0.0,0.2765,0.2999,0.3141,0.3323,0.3494,0.3571,0.3648,0.3714,0.3782,0.3792,0.3792,0.3792,0.3792,0.3792,0.3792,0.3758,0.3694,0.3694,0.3627,0.3491,0.3403,0.329,0.3095,0.2919,0.2804,0.2715,0.238,0.2182,0.2082,0.2001,0.1933,0.1849,0.1849,0.1849,0.1849,0.1849,0.1849,0.1849,0.1849,0.1934,0.2045,0.21,0.2155,0.2212,0.2352,0.238,0.2408,0.2493,0.2521,0.2549,0.2691,0.2747,0.2775,0.2912,0.2996,0.2996,0.2802,0.2858,0.2993,0.2993,0.3048,0.3074,0.3074,0.3095,0.313,0.3088,0.3117,0.3122,0.3118,0.3134,0.317,0.3306,0.3328,0.3376,0.3512,0.3534,0.3534,0.3604,0.3604,0.3604,0.3604,0.3604,0.3604,0.3604,0.3604,0.3604,0.3604,0.3604,0.3604,0.3604,0.3604,0.3578,0.3534,0.3398,0.3262,0.3126,0.3015,0.2929,0.0091,0.0342,0.0634,0.0,0.0,0.0,0.0,0.0,0.0,0.0,0.0,0.0,0.0,0.0,0.0,0.0,0.3529,0.373,0.3928,0.4025,0.4059,0.4125,0.4125,0.4125,0.4125,0.4092,0.4059,0.4059,0.3995,0.3928,0.3859,0.3859,0.3811,0.3746,0.3647,0.3514,0.3381,0.3182,0.304,0.2898,0.2665,0.2461,0.2296,0.224,0.2212,0.2212,0.2212,0.2212,0.2212,0.2212,0.2212,0.2212,0.2212,0.224,0.2296,0.2296,0.2324,0.238,0.2521,0.2577,0.2635,0.2719,0.2802,0.2856,0.2942,0.297,0.297,0.3077,0.3158,0.316,0.3081,0.3135,0.3188,0.3188,0.3269,0.3321,0.3321,0.3363,0.337,0.3335,0.3357,0.3371,0.334,0.332,0.3359,0.3448,0.3464,0.349,0.3578,0.3604,0.3604,0.3604,0.3622,0.3641,0.3641,0.3667,0.3689,0.3689,0.3667,0.3622,0.3604,0.3604,0.3604,0.3604,0.3604,0.3604,0.3604,0.3464,0.3328,0.3192,0.3056,0.297,0.0429,0.0789,0.1105,0.0,0.0,0.0,0.0,0.0,0.0,0.0,0.0,0.3058,0.3192,0.0,0.0,0.3758,0.3928,0.4064,0.4267,0.4461,0.4661,0.4797,0.4797,0.4797,0.4797,0.4694,0.4592,0.4592,0.4431,0.4233,0.4028,0.3995,0.3878,0.3613,0.3608,0.3506,0.3294,0.329,0.3235,0.3102,0.3102,0.288,0.2493,0.2296,0.2212,0.2212,0.2212,0.2212,0.2212,0.2212,0.2212,0.2212,0.2212,0.2324,0.2493,0.2493,0.2577,0.2691,0.2691,0.2802,0.2888,0.2888,0.2996,0.3102,0.3102,0.3102,0.3102,0.3102,0.3244,0.3413,0.3413,0.3413,0.3413,0.3413,0.3499,0.3613,0.3613,0.3719,0.3762,0.3643,0.3717,0.3759,0.3617,0.3593,0.3615,0.3605,0.3604,0.3604,0.3604,0.3604,0.3604,0.3604,0.366,0.3697,0.3697,0.3836,0.3902,0.3902,0.3766,0.3682,0.3604,0.3604,0.3604,0.3604,0.3604,0.3604,0.3604,0.3464,0.3328,0.3192,0.3056,0.297,0.0796,0.1041,0.0,0.1771,0.0,0.0,0.0,0.0,0.0,0.0,0.0,0.3429,0.3727,0.393,0.0,0.4325,0.4461,0.4597,0.4631,0.4697,0.4761,0.4797,0.4797,0.4797,0.4797,0.4764,0.4728,0.4728,0.4697,0.4631,0.4564,0.4382,0.4256,0.4156,0.3891,0.3652,0.3438,0.339,0.3278,0.3102,0.3102,0.3047,0.291,0.2772,0.2691,0.2691,0.2605,0.2549,0.2549,0.2549,0.2549,0.2549,0.2549,0.2577,0.2663,0.2747,0.2805,0.2858,0.294,0.2993,0.3049,0.3049,0.3077,0.313,0.3272,0.3302,0.333,0.3413,0.3499,0.3527,0.3527,0.3527,0.3527,0.3527,0.3583,0.3638,0.3716,0.3769,0.3815,0.3862,0.3913,0.3925,0.3898,0.3812,0.3731,0.3734,0.3665,0.3622,0.366,0.3682,0.3704,0.3796,0.3836,0.3836,0.3836,0.388,0.3902,0.3902,0.3858,0.3792,0.3682,0.3619,0.3604,0.3604,0.3604,0.3604,0.3604,0.3556,0.3464,0.3328,0.3192,0.3081,0.1246,0.1475,0.0,0.2277,0.2488,0.2723,0.3259,0.0,0.0,0.0,0.0,0.3897,0.4195,0.4398,0.0,0.4758,0.4927,0.506,0.5123,0.5193,0.5226,0.5226,0.5226,0.5193,0.5123,0.506,0.4994,0.4927,0.4861,0.4773,0.4718,0.4575,0.4425,0.4322,0.4073,0.3851,0.3631,0.3587,0.3466,0.3299,0.3299,0.3299,0.3299,0.3079,0.297,0.297,0.2884,0.2856,0.2856,0.2856,0.2856,0.2856,0.2856,0.2856,0.2856,0.294,0.297,0.2996,0.3077,0.316,0.3216,0.3216,0.3244,0.333,0.3441,0.3471,0.3499,0.3583,0.3613,0.3613,0.3613,0.3638,0.3666,0.361,0.3638,0.3691,0.3769,0.3882,0.3993,0.4052,0.4147,0.4177,0.4098,0.3968,0.3863,0.3799,0.3712,0.3663,0.37,0.3744,0.381,0.388,0.395,0.3972,0.3972,0.4038,0.4056,0.4056,0.4016,0.395,0.3858,0.3729,0.3641,0.3641,0.3622,0.3604,0.3604,0.3604,0.3534,0.3398,0.3306,0.317,0.1727,0.0,0.0,0.2654,0.3023,0.0,0.3928,0.383,0.373,0.3995,0.0,0.4431,0.4628,0.4794,0.4927,0.5156,0.5326,0.5491,0.5617,0.5785,0.5888,0.5888,0.5888,0.5822,0.565,0.5524,0.5359,0.5186,0.4981,0.479,0.4696,0.4633,0.4476,0.4235,0.4187,0.406,0.3827,0.3824,0.3744,0.3638,0.3638,0.3638,0.361,0.3272,0.313,0.3102,0.3102,0.3102,0.3102,0.3102,0.3102,0.3102,0.3102,0.3102,0.3102,0.313,0.313,0.313,0.313,0.3272,0.3413,0.3413,0.3499,0.3613,0.3613,0.3613,0.3613,0.3613,0.3613,0.361,0.361,0.3719,0.3799,0.3666,0.3716,0.3824,0.3824,0.4024,0.4193,0.4221,0.4384,0.445,0.4264,0.4115,0.3985,0.3839,0.3753,0.37,0.3744,0.3836,0.3928,0.3924,0.4038,0.4108,0.4108,0.4236,0.4294,0.4294,0.4192,0.4108,0.4108,0.3858,0.3722,0.3697,0.3641,0.36,0.3604,0.3604,0.3534,0.342,0.3398,0.3262,0.2175,0.2535,0.0,0.0,0.3594,0.4131,0.4395,0.4625,0.4691,0.4525,0.4725,0.499,0.5193,0.5322,0.5488,0.569,0.5756,0.5793,0.5822,0.5888,0.5888,0.5888,0.5888,0.5888,0.5855,0.5822,0.5789,0.5723,0.5445,0.5268,0.5234,0.4789,0.4487,0.4426,0.4178,0.4023,0.3965,0.3965,0.3941,0.3913,0.3913,0.3855,0.3744,0.3469,0.3244,0.3102,0.3102,0.3102,0.3102,0.3102,0.3102,0.3102,0.3102,0.3102,0.313,0.3272,0.333,0.3357,0.3444,0.3527,0.3555,0.3555,0.3583,0.3613,0.3613,0.3613,0.3613,0.3613,0.3663,0.3771,0.3771,0.3855,0.3938,0.3913,0.3941,0.3993,0.4079,0.4166,0.4249,0.4408,0.4463,0.4481,0.445,0.4267,0.4107,0.3978,0.3802,0.3766,0.3994,0.4042,0.4104,0.421,0.4232,0.4254,0.4254,0.4276,0.4294,0.4294,0.4276,0.4254,0.4254,0.399,0.381,0.3697,0.3678,0.3663,0.3604,0.3604,0.3578,0.3556,0.3442,0.3306,0.2709,0.0,0.0,0.3629,0.0,0.4728,0.4927,0.5156,0.5352,0.5352,0.5352,0.5385,0.5591,0.5785,0.5947,0.6119,0.6218,0.6317,0.6383,0.6383,0.6383,0.6383,0.6317,0.6251,0.6152,0.6086,0.602,0.5925,0.5639,0.5483,0.541,0.4965,0.4657,0.461,0.4365,0.419,0.4107,0.4107,0.4052,0.3996,0.3996,0.3965,0.3882,0.3608,0.3441,0.333,0.333,0.333,0.333,0.333,0.333,0.333,0.333,0.333,0.3357,0.3471,0.3499,0.3499,0.3583,0.3613,0.3613,0.3613,0.3613,0.3613,0.3613,0.3638,0.3691,0.3691,0.3799,0.391,0.391,0.3993,0.4107,0.4107,0.4107,0.4107,0.4193,0.4273,0.4384,0.4491,0.4491,0.4491,0.4491,0.4337,0.4164,0.4022,0.3942,0.395,0.4086,0.4148,0.4214,0.4294,0.4294,0.4294,0.4294,0.4294,0.4294,0.4294,0.4294,0.4294,0.4294,0.4162,0.4034,0.3902,0.3766,0.3678,0.3638,0.3622,0.3604,0.3604,0.3534,0.342,0.0,0.0,0.383,0.4367,0.4827,0.0,0.5491,0.5653,0.5848,0.6214,0.598,0.5785,0.5987,0.6181,0.6346,0.6482,0.6613,0.6778,0.6881,0.6913,0.6913,0.6913,0.6811,0.6675,0.6519,0.6379,0.6214,0.6053,0.577,0.5569,0.5472,0.5104,0.4855,0.4746,0.4601,0.4467,0.4276,0.4276,0.419,0.4076,0.4049,0.4024,0.4024,0.3777,0.3666,0.3638,0.3638,0.361,0.3613,0.3613,0.3613,0.3613,0.3613,0.3613,0.3613,0.3613,0.3613,0.3613,0.3613,0.3613,0.3613,0.3613,0.3613,0.3613,0.3638,0.3716,0.3796,0.3824,0.3938,0.4024,0.4024,0.4135,0.4249,0.4249,0.4249,0.4249,0.4249,0.4384,0.4491,0.4491,0.4491,0.4491,0.4491,0.4371,0.4211,0.4098,0.4123,0.4139,0.4134,0.4232,0.4294,0.4294,0.4294,0.4294,0.4294,0.4294,0.4294,0.4294,0.4294,0.4294,0.4294,0.4294,0.4254,0.413,0.388,0.3722,0.3697,0.3641,0.3604,0.3604,0.3604,0.3534,0.0,0.0,0.4595,0.0,0.5296,0.5491,0.0,0.0,0.635,0.0,0.6449,0.635,0.6544,0.6712,0.6815,0.6815,0.6848,0.6881,0.6881,0.6913,0.6913,0.6913,0.6881,0.6881,0.6848,0.6708,0.6609,0.6609,0.6041,0.5692,0.5673,0.5188,0.4895,0.4873,0.4739,0.466,0.4632,0.4519,0.4463,0.4436,0.4245,0.4166,0.4166,0.4024,0.3882,0.3769,0.3769,0.3719,0.3613,0.3613,0.3613,0.3613,0.3613,0.3613,0.3613,0.3613,0.3613,0.3613,0.3613,0.3613,0.3613,0.3613,0.3613,0.361,0.3744,0.3796,0.3824,0.3938,0.4079,0.4166,0.4166,0.4328,0.4463,0.4463,0.4463,0.4463,0.4463,0.4491,0.4491,0.4491,0.4491,0.4491,0.4491,0.4485,0.4441,0.4356,0.436,0.4336,0.4274,0.4298,0.4294,0.4294,0.4294,0.4294,0.4294,0.4294,0.4294,0.4294,0.4294,0.4294,0.4294,0.4294,0.4294,0.4276,0.4012,0.3814,0.3697,0.3641,0.3604,0.3604,0.3604,0.3534,0.4442,0.4827,0.5126,0.0,0.5723,0.602,0.6251,0.0,0.6778,0.7101,0.7068,0.697,0.6843,0.704,0.7237,0.7237,0.74,0.7531,0.7531,0.7531,0.7466,0.7372,0.7269,0.7204,0.7073,0.6909,0.6811,0.6811,0.6266,0.5936,0.5936,0.534,0.5014,0.5014,0.4877,0.4822,0.4822,0.4763,0.468,0.4605,0.4439,0.4356,0.4356,0.4298,0.4159,0.391,0.391,0.3827,0.3716,0.3716,0.3666,0.3613,0.3613,0.3613,0.3613,0.3613,0.3613,0.3613,0.3613,0.3613,0.361,0.3691,0.3716,0.3747,0.3882,0.3965,0.4024,0.4107,0.4245,0.4356,0.4356,0.4436,0.4491,0.4491,0.4491,0.4491,0.4491,0.4491,0.4491,0.4491,0.4491,0.4519,0.4605,0.4583,0.4555,0.4517,0.447,0.441,0.4318,0.4294,0.4294,0.4294,0.4294,0.4294,0.4294,0.4294,0.4294,0.4294,0.4294,0.4294,0.4294,0.4294,0.4294,0.4294,0.4104,0.395,0.381,0.3704,0.3641,0.3604,0.3604,0.3556,0.0,0.0,0.5524,0.5749,0.6119,0.6449,0.0,0.0,0.7138,0.0,0.7591,0.7526,0.7241,0.7428,0.7619,0.7619,0.7852,0.7987,0.7987,0.7987,0.7954,0.7797,0.7629,0.7493,0.7335,0.711,0.6975,0.6975,0.6488,0.6151,0.6117,0.5539,0.5207,0.5156,0.5014,0.4956,0.4956,0.4928,0.4846,0.4739,0.4601,0.4546,0.4546,0.4519,0.4353,0.4132,0.4079,0.3965,0.3852,0.3852,0.3799,0.3694,0.3663,0.3663,0.3638,0.361,0.3613,0.3613,0.3638,0.3663,0.3666,0.3799,0.3852,0.3882,0.4024,0.4107,0.4221,0.4276,0.4384,0.4491,0.4491,0.4491,0.4491,0.4491,0.4491,0.4491,0.4491,0.4491,0.4491,0.4491,0.4491,0.4546,0.4688,0.47,0.4666,0.4682,0.463,0.4525,0.4365,0.4326,0.4294,0.4294,0.4294,0.4294,0.4294,0.4294,0.4294,0.4294,0.4294,0.4294,0.4294,0.4294,0.4294,0.4294,0.4192,0.406,0.3902,0.3766,0.366,0.3604,0.3604,0.3604,0.0,0.5488,0.0,0.6218,0.6383,0.0,0.0,0.0,0.7526,0.7661,0.7824,0.7954,0.7954,0.7954,0.7987,0.7987,0.7987,0.7987,0.7987,0.7987,0.7987,0.7987,0.7824,0.7699,0.7666,0.7368,0.7171,0.7171,0.6679,0.6306,0.6117,0.5766,0.5485,0.5297,0.5156,0.5097,0.5097,0.4956,0.4897,0.4901,0.4743,0.4688,0.4688,0.4546,0.4491,0.4463,0.4273,0.4107,0.3993,0.3993,0.3993,0.3968,0.3827,0.3796,0.3769,0.3638,0.3613,0.361,0.3744,0.3796,0.3824,0.3938,0.3993,0.4024,0.4138,0.4193,0.4249,0.4436,0.4491,0.4491,0.4491,0.4491,0.4491,0.4491,0.4491,0.4491,0.4491,0.4491,0.4491,0.4491,0.4491,0.4546,0.4688,0.4814,0.4884,0.4875,0.483,0.4702,0.4509,0.4382,0.4294,0.4294,0.4294,0.4294,0.4294,0.4294,0.4294,0.4294,0.4294,0.4294,0.4294,0.4294,0.4294,0.4294,0.4294,0.4166,0.3902,0.3766,0.366,0.3604,0.3604,0.3604,0.0,0.0,0.0,0.6511,0.6839,0.7167,0.7363,0.7624,0.7852,0.7982,0.8074,0.8209,0.8474,0.8306,0.8144,0.8144,0.8247,0.8317,0.8317,0.8317,0.8284,0.8144,0.8079,0.7982,0.7889,0.7661,0.7536,0.7536,0.7021,0.6625,0.6426,0.6111,0.5802,0.5489,0.5458,0.5348,0.5242,0.5097,0.5042,0.5042,0.4901,0.4794,0.4691,0.466,0.4574,0.4491,0.4439,0.4301,0.4138,0.4138,0.4079,0.3993,0.3938,0.3938,0.391,0.3885,0.3858,0.3858,0.391,0.3938,0.3938,0.4079,0.4138,0.4162,0.4328,0.4384,0.4408,0.4491,0.4491,0.4491,0.4491,0.4491,0.4491,0.4491,0.4491,0.4491,0.4491,0.4491,0.4491,0.4491,0.4491,0.4574,0.4791,0.4873,0.4926,0.5026,0.4997,0.4918,0.4711,0.4537,0.4424,0.4424,0.4341,0.4294,0.4294,0.4294,0.4294,0.4294,0.4294,0.4294,0.4294,0.4294,0.4294,0.4294,0.4294,0.4166,0.3902,0.3858,0.3748,0.3604,0.3604,0.3604,0.5826,0.0,0.0,0.0,0.0,0.7521,0.7559,0.7819,0.8112,0.8274,0.8371,0.8501,0.8797,0.8662,0.8463,0.8463,0.8565,0.8641,0.8608,0.8614,0.8544,0.8339,0.8236,0.8172,0.8079,0.7922,0.7764,0.7699,0.7308,0.6973,0.6712,0.6364,0.6017,0.5686,0.5622,0.554,0.5407,0.5238,0.5156,0.5156,0.5042,0.4932,0.4825,0.4743,0.466,0.4574,0.4519,0.4439,0.4301,0.4301,0.4245,0.4159,0.4107,0.4079,0.4052,0.4024,0.3996,0.3996,0.4052,0.4079,0.4079,0.4245,0.4301,0.4328,0.4463,0.4491,0.4491,0.4491,0.4491,0.4491,0.4491,0.4491,0.4491,0.4491,0.4491,0.4491,0.4491,0.4491,0.4491,0.4491,0.4491,0.457,0.4842,0.4897,0.4973,0.5136,0.5121,0.5061,0.4914,0.4719,0.4562,0.4505,0.4416,0.4341,0.4298,0.4294,0.4294,0.4294,0.4294,0.4294,0.4294,0.4294,0.4294,0.4294,0.4294,0.4188,0.3972,0.3928,0.3814,0.3641,0.36,0.3578,0.0,0.0,0.0,0.0,0.0,0.0,0.7666,0.7982,0.8269,0.8479,0.8679,0.8835,0.8985,0.9017,0.9017,0.9017,0.9017,0.8952,0.8835,0.8802,0.8738,0.8549,0.8339,0.8204,0.8204,0.8079,0.7922,0.7731,0.7526,0.7252,0.6944,0.6534,0.6134,0.5827,0.5681,0.5595,0.5595,0.5407,0.5301,0.5297,0.5156,0.5097,0.5097,0.4825,0.4719,0.4688,0.4546,0.4491,0.4491,0.4491,0.4491,0.4491,0.4273,0.4221,0.4193,0.4052,0.4024,0.4024,0.4166,0.4221,0.4249,0.4436,0.4491,0.4491,0.4491,0.4491,0.4491,0.4491,0.4491,0.4491,0.4491,0.4491,0.4491,0.4491,0.4491,0.4491,0.4491,0.4491,0.4491,0.4491,0.4491,0.457,0.4842,0.4897,0.4983,0.527,0.5175,0.5114,0.5114,0.4926,0.4723,0.4534,0.4509,0.446,0.4326,0.4306,0.4302,0.4302,0.4298,0.4294,0.4294,0.4294,0.4294,0.4294,0.4294,0.4232,0.4108,0.3972,0.3836,0.3697,0.3619,0.3534,0.5892,0.0,0.0,0.0,0.0,0.0,0.7922,0.8182,0.8479,0.8673,0.877,0.8894,0.9177,0.921,0.9242,0.935,0.9151,0.8985,0.8958,0.8958,0.8894,0.8738,0.8673,0.8571,0.8447,0.8242,0.8107,0.8074,0.7797,0.7506,0.7284,0.6648,0.6191,0.5955,0.5818,0.5709,0.5595,0.554,0.5434,0.5297,0.527,0.5183,0.5097,0.4932,0.4794,0.4688,0.4546,0.4491,0.4491,0.4491,0.4491,0.4491,0.4436,0.4408,0.4408,0.438,0.4353,0.438,0.4408,0.4408,0.4436,0.4491,0.4491,0.4491,0.4491,0.4491,0.4491,0.4491,0.4491,0.4491,0.4491,0.4491,0.4491,0.4491,0.4491,0.4491,0.4491,0.4491,0.4491,0.4491,0.4491,0.457,0.4842,0.4897,0.4983,0.527,0.5257,0.5252,0.5252,0.5117,0.4987,0.4938,0.4812,0.471,0.4662,0.4517,0.4448,0.4448,0.4349,0.4294,0.4294,0.4294,0.4294,0.4294,0.4294,0.4276,0.4232,0.4012,0.3836,0.3697,0.3619,0.3578,0.0,0.0,0.0,0.0,0.0,0.0,0.7987,0.8252,0.8576,0.8835,0.8894,0.899,0.9312,0.9376,0.9408,0.9484,0.935,0.9183,0.9145,0.9113,0.9049,0.8835,0.8802,0.8705,0.8511,0.8409,0.8306,0.8204,0.8014,0.7757,0.7409,0.6847,0.6429,0.6216,0.5995,0.5845,0.5759,0.565,0.554,0.5434,0.5352,0.527,0.5183,0.5042,0.4904,0.4767,0.4629,0.4546,0.4491,0.4491,0.4491,0.4491,0.4491,0.4491,0.4491,0.4491,0.4491,0.4491,0.4491,0.4491,0.4491,0.4491,0.4491,0.4491,0.4491,0.4491,0.4491,0.4491,0.4491,0.4491,0.4491,0.4491,0.4491,0.4491,0.4491,0.4491,0.4491,0.4491,0.4491,0.4491,0.4491,0.457,0.4842,0.4897,0.4983,0.527,0.5297,0.5297,0.5297,0.5236,0.5165,0.5114,0.4987,0.4889,0.4812,0.4686,0.463,0.463,0.4552,0.4463,0.439,0.4386,0.4353,0.4298,0.4294,0.4276,0.4214,0.406,0.388,0.3697,0.3619,0.3604,0.0,0.0,0.0,0.0,0.7466,0.0,0.7987,0.8252,0.8576,0.8926,0.8985,0.9087,0.9414,0.9484,0.9516,0.9516,0.954,0.9482,0.9344,0.9306,0.921,0.8894,0.8835,0.8738,0.8544,0.8517,0.8414,0.8236,0.8204,0.7977,0.7471,0.7075,0.6776,0.6539,0.6211,0.6023,0.6,0.5759,0.5622,0.5595,0.5407,0.5325,0.5297,0.5156,0.5042,0.4897,0.477,0.4632,0.4491,0.4491,0.4491,0.4491,0.4491,0.4491,0.4491,0.4491,0.4491,0.4491,0.4491,0.4491,0.4491,0.4491,0.4491,0.4491,0.4491,0.4491,0.4491,0.4491,0.4491,0.4491,0.4491,0.4519,0.4519,0.4519,0.4543,0.4546,0.4546,0.4546,0.4546,0.4546,0.4543,0.4601,0.4842,0.4901,0.5011,0.527,0.5297,0.5297,0.5297,0.5297,0.5264,0.5129,0.5108,0.5043,0.4877,0.4844,0.4832,0.4832,0.4816,0.4711,0.4534,0.4529,0.4476,0.4359,0.4355,0.428,0.4135,0.4116,0.3972,0.3697,0.3641,0.36,0.0,0.0,0.0,0.0,0.7466,0.0,0.7987,0.8252,0.8582,0.8802,0.8926,0.9081,0.9306,0.9414,0.9516,0.9516,0.969,0.9724,0.9508,0.9446,0.9414,0.9215,0.9055,0.8894,0.877,0.8582,0.8479,0.8447,0.8306,0.8046,0.7674,0.7427,0.7129,0.6768,0.6516,0.6276,0.6005,0.5946,0.5814,0.5595,0.5567,0.5462,0.5297,0.5156,0.5042,0.4897,0.477,0.4632,0.4491,0.4491,0.4491,0.4491,0.4491,0.4491,0.4491,0.4491,0.4491,0.4491,0.4491,0.4491,0.4491,0.4491,0.4491,0.4491,0.4491,0.4491,0.4491,0.4491,0.4491,0.4491,0.4491,0.4574,0.466,0.466,0.4739,0.4818,0.4818,0.4818,0.4818,0.4818,0.4739,0.4715,0.4873,0.4983,0.5128,0.527,0.5297,0.5297,0.5297,0.5297,0.5285,0.5276,0.5276,0.5233,0.5197,0.5113,0.5053,0.5053,0.4885,0.4788,0.4755,0.4731,0.4739,0.4702,0.4698,0.461,0.4426,0.4197,0.3972,0.3697,0.3678,0.3663,0.0,0.0,0.0,0.6848,0.7335,0.0,0.0,0.8182,0.8441,0.8738,0.8861,0.899,0.9242,0.9344,0.9414,0.9484,0.9739,0.9859,0.9733,0.9823,0.9834,0.9701,0.96,0.942,0.9025,0.892,0.8739,0.8522,0.8306,0.8125,0.7953,0.7683,0.7379,0.6959,0.6755,0.6487,0.6091,0.6032,0.5896,0.5709,0.5622,0.5489,0.5297,0.5242,0.5097,0.4897,0.4822,0.4684,0.4491,0.4491,0.4491,0.4491,0.4491,0.4491,0.4491,0.4491,0.4491,0.4491,0.4491,0.4491,0.4491,0.4491,0.4491,0.4491,0.4491,0.4491,0.4491,0.4491,0.4546,0.4605,0.4605,0.4688,0.4794,0.4794,0.4846,0.4897,0.4897,0.4897,0.4897,0.4897,0.4904,0.4936,0.4987,0.5042,0.5156,0.527,0.5297,0.5297,0.5297,0.5297,0.5297,0.5297,0.5297,0.5297,0.5297,0.5244,0.5191,0.5191,0.5102,0.501,0.4946,0.4942,0.4897,0.4804,0.4804,0.4759,0.465,0.4514,0.4268,0.3902,0.3766,0.3678,0.0,0.0,0.0,0.0,0.7171,0.7559,0.0,0.0,0.0,0.8603,0.8705,0.8835,0.9145,0.921,0.9274,0.9382,0.9634,0.9819,0.994,1.0173,1.0288,1.013,1.013,0.9909,0.9355,0.9226,0.8964,0.8533,0.8344,0.8269,0.8269,0.7979,0.7623,0.722,0.6993,0.6662,0.6261,0.611,0.595,0.5795,0.5681,0.5517,0.5297,0.5297,0.5156,0.4897,0.4897,0.4736,0.4491,0.4491,0.4491,0.4491,0.4491,0.4491,0.4491,0.4491,0.4491,0.4491,0.4491,0.4491,0.4491,0.4491,0.4491,0.4491,0.4491,0.4491,0.4519,0.4519,0.4605,0.4719,0.4743,0.4849,0.4928,0.4928,0.4956,0.4983,0.4983,0.4983,0.4983,0.4983,0.5069,0.5128,0.5097,0.5128,0.5183,0.527,0.5297,0.5297,0.5297,0.5297,0.5297,0.5297,0.5297,0.5297,0.5297,0.5297,0.5297,0.5297,0.5297,0.526,0.5141,0.5133,0.5064,0.4888,0.4884,0.4893,0.4857,0.4857,0.4622,0.4183,0.3972,0.3856,0.0,0.0,0.0,0.6453,0.697,0.7521,0.7554,0.0,0.8079,0.8236,0.0,0.8614,0.8802,0.0,0.0,0.9049,0.9294,0.9609,1.0019,1.0308,1.042,1.0287,1.0159,1.0014,0.9742,0.9264,0.8798,0.8533,0.8479,0.8479,0.8479,0.8248,0.7968,0.7633,0.7255,0.6886,0.6468,0.6267,0.6037,0.5795,0.5795,0.5603,0.5297,0.5297,0.5156,0.4897,0.4897,0.4736,0.4491,0.4491,0.4491,0.4491,0.4491,0.4491,0.4491,0.4491,0.4491,0.4491,0.4491,0.4491,0.4491,0.4491,0.4491,0.4491,0.4491,0.4491,0.4519,0.4632,0.4688,0.4715,0.4846,0.4987,0.5069,0.5069,0.5156,0.5242,0.5242,0.5242,0.5242,0.5242,0.527,0.5242,0.5128,0.5211,0.527,0.5297,0.5297,0.5297,0.5297,0.5297,0.5297,0.5297,0.5297,0.5297,0.5297,0.5297,0.5297,0.5297,0.5297,0.5289,0.5269,0.5269,0.5261,0.5237,0.5237,0.5183,0.5073,0.5073,0.4895,0.4535,0.4511,0.4458,0.0,0.0,0.5834,0.6293,0.6646,0.6937,0.7265,0.7526,0.7754,0.7884,0.0,0.0,0.0,0.0,0.0,0.0,0.9228,0.9461,0.9672,1.0078,1.0418,1.0743,1.0604,1.0334,0.9909,0.9295,0.8857,0.876,0.8592,0.8517,0.8517,0.8414,0.8206,0.7824,0.7572,0.72,0.6673,0.6473,0.6179,0.5795,0.5795,0.5631,0.5297,0.5297,0.5156,0.4897,0.4897,0.4736,0.4491,0.4491,0.4491,0.4491,0.4491,0.4491,0.4491,0.4491,0.4491,0.4491,0.4491,0.4491,0.4491,0.4491,0.4491,0.4491,0.4491,0.4546,0.4632,0.4688,0.4825,0.4936,0.5014,0.5128,0.5215,0.5215,0.527,0.5297,0.5297,0.5297,0.5297,0.5297,0.5297,0.527,0.5215,0.527,0.5297,0.5297,0.5297,0.5297,0.5297,0.5297,0.5297,0.5297,0.5297,0.5297,0.5297,0.5297,0.5297,0.5297,0.5297,0.5297,0.5297,0.5297,0.5297,0.5297,0.5297,0.5261,0.5212,0.5212,0.5148,0.4993,0.4737,0.4593,0.4662,0.5038,0.535,0.5921,0.6216,0.6449,0.6876,0.7134,0.733,0.7531,0.7727,0.0,0.0,0.0,0.0,0.0,0.0,0.9142,0.9315,0.9673,1.0169,1.0782,1.0734,1.0459,0.9963,0.934,0.8965,0.89,0.8646,0.8517,0.8517,0.8517,0.8334,0.8001,0.7788,0.7446,0.6875,0.6616,0.629,0.5845,0.5822,0.5658,0.538,0.5325,0.5156,0.4897,0.4897,0.4736,0.4491,0.4491,0.4491,0.4491,0.4491,0.4491,0.4491,0.4491,0.4491,0.4491,0.4491,0.4491,0.4491,0.4491,0.4491,0.4491,0.4491,0.4605,0.4719,0.4743,0.4936,0.5097,0.5156,0.5215,0.5297,0.5297,0.5297,0.5297,0.5297,0.5297,0.5297,0.5297,0.5297,0.5297,0.5297,0.5297,0.5297,0.5297,0.5297,0.5297,0.5297,0.5297,0.5297,0.5297,0.5297,0.5297,0.5297,0.5297,0.5297,0.5297,0.5297,0.5297,0.5297,0.5297,0.5297,0.5297,0.5297,0.5297,0.5297,0.5297,0.5297,0.5293,0.4954,0.4784,0.3997,0.4618,0.5198,0.5234,0.5733,0.6247,0.6383,0.6581,0.6806,0.7134,0.7363,0.7559,0.0,0.0,0.0,0.0,0.0,0.0,0.0,0.9209,0.9468,1.0143,1.0228,1.0124,0.9927,0.9488,0.9104,0.8917,0.8646,0.8517,0.8517,0.8517,0.8409,0.8194,0.7864,0.7491,0.7081,0.6692,0.6342,0.6,0.5873,0.5736,0.5595,0.538,0.5156,0.4897,0.4897,0.4736,0.4491,0.4491,0.4491,0.4491,0.4491,0.4491,0.4491,0.4491,0.4491,0.4491,0.4491,0.4491,0.4491,0.4491,0.4491,0.4491,0.4491,0.4605,0.4715,0.4846,0.4983,0.5128,0.527,0.5297,0.5297,0.5297,0.5297,0.5297,0.5297,0.5297,0.5297,0.5297,0.5297,0.5297,0.5297,0.5297,0.5297,0.5297,0.5297,0.5297,0.5297,0.5297,0.5297,0.5297,0.5297,0.5297,0.5297,0.5297,0.5297,0.5297,0.5297,0.5297,0.5297,0.5297,0.5297,0.5297,0.5297,0.5297,0.5297,0.5297,0.5297,0.5297,0.5285,0.5281,0.3781,0.4145,0.4524,0.5052,0.5364,0.5621,0.5994,0.6284,0.6548,0.6646,0.6909,0.7171,0.7335,0.0,0.0,0.0,0.0,0.0,0.0,0.8631,0.9044,0.9735,1.0037,1.011,0.9921,0.9625,0.9351,0.9109,0.8877,0.8678,0.8522,0.8517,0.8479,0.8409,0.8077,0.7775,0.7491,0.6966,0.6522,0.6205,0.5935,0.5736,0.5595,0.538,0.5156,0.4897,0.4897,0.4736,0.4491,0.4491,0.4491,0.4491,0.4491,0.4491,0.4491,0.4491,0.4491,0.4491,0.4491,0.4491,0.4491,0.4491,0.4491,0.4491,0.4491,0.4656,0.4846,0.4901,0.5069,0.5242,0.5297,0.5297,0.5297,0.5297,0.5297,0.5297,0.5297,0.5297,0.5297,0.5297,0.5297,0.5297,0.5297,0.5297,0.5297,0.5297,0.5297,0.5297,0.5297,0.5297,0.5297,0.5297,0.5297,0.5297,0.5297,0.5297,0.5297,0.5297,0.5297,0.5297,0.5297,0.5297,0.5297,0.5297,0.5297,0.5297,0.5297,0.5297,0.5297,0.5297,0.5297,0.5297,0.347,0.3721,0.4057,0.4623,0.4858,0.5059,0.5535,0.5835,0.6013,0.6174,0.6486,0.6749,0.6876,0.0,0.0,0.0,0.0,0.0,0.0,0.8279,0.8667,0.9069,0.9635,0.998,0.9911,0.9712,0.9475,0.9222,0.9025,0.8798,0.8528,0.8517,0.8517,0.8517,0.8187,0.7913,0.77,0.7112,0.6659,0.6363,0.5999,0.5763,0.565,0.5407,0.5183,0.4956,0.4928,0.4763,0.4574,0.4519,0.4491,0.4491,0.4491,0.4491,0.4491,0.4491,0.4491,0.4491,0.4491,0.4491,0.4491,0.4491,0.4491,0.4491,0.4491,0.468,0.4897,0.4897,0.5097,0.5297,0.5297,0.5297,0.5297,0.5297,0.5297,0.5297,0.5297,0.5297,0.5297,0.5297,0.5297,0.5297,0.5297,0.5297,0.5297,0.5297,0.5297,0.5297,0.5297,0.5297,0.5297,0.5297,0.5297,0.5297,0.5297,0.5297,0.5297,0.5297,0.5297,0.5297,0.5297,0.5297,0.5297,0.5297,0.5297,0.5297,0.5297,0.5297,0.5297,0.5297,0.5297,0.5297]},{"header":{"parameterUnit":"m.s-1","parameterCategory":1,"la1":30.6,"la2":29.2853,"lo1":-89.7004,"lo2":-87.6739,"dy":0.0162,"dx":0.0183,"nx":112,"ny":82,"refTime":"2024-02-14T06:00:00:Z","depth":0,"parameterNumber":3,"parameterNumberName":"V-component_of_WINDS"},"data":[0.0,0.0,0.0,0.0,0.0,0.0,0.0,0.0,0.0,0.0,0.0,0.0,0.0,0.0,0.0,0.0,0.0,0.0,0.0,0.0,0.0,0.0,0.0,0.0,0.0,0.0,0.0,0.0,0.0,0.0,0.0,0.0,0.0,0.0,0.0,0.0,0.0,0.0,0.0,0.0,0.0,0.0,0.0,0.0,0.0,0.0,0.0,0.0,0.0,0.0,0.0,0.0,0.0,0.0,0.0,0.0,0.0,0.0,0.0,0.0,0.0,0.0,0.0,0.0,0.0,0.0,0.0,0.0,0.0,0.0,0.0,0.0,0.0,0.0,0.0,0.0,0.0,0.0,0.0,0.0,0.0,0.0,0.0,0.0,0.0,0.0,0.0,0.0,0.0,0.0,0.0917,0.0962,-0.0201,-0.1407,-0.2497,-0.3723,-0.4981,-0.6234,0.0,0.0,0.0,0.0,0.0,0.0,0.0,0.0,0.0,0.0,0.0,0.0,0.0,0.0,0.0,0.0,0.0,0.0,0.0,0.0,0.0,0.0,0.0,0.0,0.0,0.0,0.0,0.0,0.0,0.0,0.0,0.0,0.0,0.0,0.0,0.0,0.0,0.0,0.0,0.0,0.0,0.0,0.0,0.0,0.0,0.0,0.0,0.0,0.0,0.0,0.0,0.0,0.0,0.0,0.0,0.0,0.0,0.0,0.0,0.0,0.0,0.0,0.0,0.0,0.0,0.0,0.0,0.0,0.0,0.0,0.0,0.0,0.0,0.0,0.0,0.0,0.0,0.0,0.0,0.0,0.0,0.0,0.0,0.0,0.0,0.0,0.0,0.0,0.0,0.0,0.0,0.0,0.0,0.0,0.0,0.0,0.0,0.0,0.0,0.0,0.0,0.0,0.0,0.0,0.1721,0.1276,0.0291,-0.0693,-0.1538,-0.2934,-0.4252,-0.5411,0.0,0.0,0.0,0.0,0.0,0.0,0.0,0.0,0.0,0.0,0.0,0.0,0.0,0.0,0.0,0.0,0.0,0.0,0.0,0.0,0.0,0.0,0.0,0.0,0.0,0.0,0.0,0.0,0.0,0.0,0.0,0.0,0.0,0.0,0.0,0.0,0.0,0.0,0.0,0.0,0.0,0.0,0.0,0.0,0.0,0.0,0.0,0.0,0.0,0.0,0.0,0.0,0.0,0.0,0.0,0.0,0.0,0.0,0.0,0.0,0.0,0.0,0.0,0.0,0.0,0.0,0.0,0.0,0.0,0.0,0.0,0.0,0.0,0.0,0.0,0.0,0.0,0.0,0.0,0.0,0.0,0.0,0.0,0.0,0.0,0.0,0.0,0.0,0.0,0.0,0.0,0.0,0.0,0.0,0.0,0.0,0.0,0.0,0.0,0.0,0.0,0.0,0.0,0.2829,0.2586,0.2008,0.1115,0.0156,-0.0824,-0.2202,-0.3551,-0.483,-0.6428,0.0,0.0,0.0,0.0,0.0,0.0,0.0,0.0,0.0,0.0,0.0,0.0,0.0,0.0,0.0,0.0,0.0,0.0,0.0,0.0,0.0,0.0,0.0,0.0,0.0,0.0,0.0,0.0,0.0,0.0,0.0,0.0,0.0,0.0,0.0,0.0,0.0,0.0,0.0,0.0,0.0,0.0,0.0,0.0,0.0,0.0,0.0,0.0,0.0,0.0,0.0,0.0,0.0,0.0,0.0,0.0,0.0,0.0,0.0,0.0,0.0,0.0,0.0,0.0,0.0,0.0,0.0,0.0,0.0,0.0,0.0,0.0,0.0,0.0,0.0,0.0,0.0,0.0,0.0,0.0,0.0,0.0,0.0,0.0,0.0,0.0,0.0,0.0,0.0,0.0,0.0,0.0,0.0,0.0,0.0,0.0,0.0,0.0,0.0,0.0,0.0,0.0,0.3756,0.3422,0.2849,0.198,0.1001,-0.0111,-0.1424,-0.2796,-0.4182,-0.5497,0.0,0.0,0.0,0.0,0.0,0.0,0.0,0.0,0.0,0.0,0.0,0.0,0.0,0.0,0.0,0.0,0.0,0.0,0.0,0.0,0.0,0.0,0.0,0.0,0.0,0.0,0.0,0.0,0.0,0.0,0.0,0.0,0.0,0.0,0.0,0.0,0.0,0.0,0.0,0.0,0.0,0.0,0.0,0.0,0.0,0.0,0.0,0.0,0.0,0.0,0.0,0.0,0.0,0.0,0.0,0.0,0.0,0.0,0.0,0.0,0.0,0.0,0.0,0.0,0.0,0.0,0.0,0.0,0.0,0.0,0.0,0.0,0.0,0.0,0.0,0.0,0.0,0.0,0.0,0.0,0.0,0.0,0.0,0.0,0.0,0.0,0.0,0.0,0.0,0.0,0.0,0.0,0.0,0.0,0.0,0.0,0.0,0.0,0.0,0.0,0.0,0.0,0.4565,0.415,0.3675,0.2782,0.1781,0.0715,-0.0557,-0.1868,-0.3221,-0.4609,0.0,0.0,0.0,0.0,0.0,0.0,0.0,0.0,0.0,0.0,0.0,0.0,0.0,0.0,0.0,0.0,0.0,0.0,0.0,0.0,0.0,0.0,0.0,0.0,0.0,0.0,0.0,0.0,0.0,0.0,0.0,0.0,0.0,0.0,0.0,0.0,0.0,0.0,0.0,0.0,0.0,0.0,0.0,0.0,0.0,0.0,0.0,0.0,0.0,0.0,0.0,0.0,0.0,0.0,0.0,0.0,0.0,0.0,0.0,0.0,0.0,0.0,0.0,0.0,0.0,0.0,0.0,0.0,0.0,0.0,0.0,0.0,0.0,0.0,0.0,0.0,0.0,0.0,0.0,0.0,0.0,0.0,0.0,0.0,0.0,0.0,0.0,0.0,0.0,0.0,0.0,0.0,0.0,0.0,0.0,0.0,0.0,0.0,0.0,0.0,0.0,0.0,0.5502,0.5087,0.4626,0.3723,0.273,0.1603,0.0311,-0.1045,-0.2421,0.0,0.0,0.0,0.0,0.0,0.0,0.0,0.0,0.0,0.0,0.0,0.0,0.0,0.0,0.0,0.0,0.0,0.0,0.0,0.0,0.0,0.0,0.0,0.0,0.0,0.0,0.0,0.0,0.0,0.0,0.0,0.0,0.0,0.0,0.0,0.0,0.0,0.0,0.0,0.0,0.0,0.0,0.0,0.0,0.0,0.0,0.0,0.0,0.0,0.0,0.0,0.0,0.0,0.0,0.0,0.0,0.0,0.0,0.0,0.0,0.0,0.0,0.0,0.0,0.0,0.0,0.0,0.0,0.0,0.0,0.0,0.0,0.0,0.0,0.0,0.0,0.0,0.0,0.0,0.0,0.0,0.0,0.0,0.0,0.0,0.0,0.0,0.0,0.0,0.0,0.0,0.0,0.0,0.0,0.0,0.0,0.0,0.0,0.0,0.0,0.0,0.0,0.6613,0.638,0.5996,0.5492,0.4644,0.3635,0.2487,0.12,-0.0156,-0.1578,0.0,0.0,0.0,0.0,0.0,0.0,0.0,0.0,0.0,0.0,0.0,0.0,0.0,0.0,0.0,0.0,0.0,0.0,0.0,0.0,0.0,0.0,0.0,0.0,0.0,0.0,0.0,0.0,0.0,0.0,0.0,0.0,0.0,0.0,0.0,0.0,0.0,0.0,0.0,0.0,0.0,0.0,0.0,0.0,0.0,0.0,0.0,0.0,0.0,0.0,0.0,0.0,0.0,0.0,0.0,0.0,0.0,0.0,0.0,0.0,0.0,0.0,0.0,0.0,0.0,0.0,0.0,0.0,0.0,0.0,0.0,0.0,0.0,0.0,0.0,0.0,0.0,0.0,0.0,0.0,0.0,0.0,0.0,0.0,0.0,0.0,0.0,0.0,0.0,0.0,0.0,0.0,0.0,0.0,0.0,0.0,0.0,0.0,0.0,0.0,0.0,0.0,0.7391,0.7175,0.681,0.6264,0.5486,0.4522,0.3309,0.2113,0.0824,0.0,0.0,0.0,0.0,0.0,0.0,0.0,0.0,0.0,0.0,0.0,0.0,0.0,0.0,0.0,0.0,0.0,0.0,0.0,0.0,0.0,0.0,0.0,0.0,0.0,0.0,0.0,0.0,0.0,0.0,0.0,0.0,0.0,0.0,0.0,0.0,0.0,0.0,0.0,0.0,0.0,0.0,0.0,0.0,0.0,0.0,0.0,0.0,0.0,0.0,0.0,0.0,0.0,0.0,0.0,0.0,0.0,0.0,0.0,0.0,0.0,0.0,0.0,0.0,0.0,0.0,0.0,0.0,0.0,0.0,0.0,0.0,0.0,0.0,0.0,0.0,0.0,0.0,0.0,0.0,0.0,0.0,0.0,0.0,0.0,0.0,0.0,0.0,0.0,0.0,0.0,0.0,0.0,0.0,0.0,0.0,0.0,0.0,0.0,0.0,0.0,0.0,0.0,0.8288,0.8095,0.7709,0.7161,0.6395,0.5443,0.4291,0.308,0.1775,0.0378,0.0,0.0,0.0,0.0,0.0,0.0,0.0,0.0,0.0,0.0,0.0,0.0,0.0,0.0,0.0,0.0,0.0,0.0,0.0,0.0,0.0,0.0,0.0,0.0,0.0,0.0,0.0,0.0,0.0,0.0,0.0,0.0,0.0,0.0,0.0,0.0,0.0,0.0,0.0,0.0,0.0,0.0,0.0,0.0,0.0,0.0,0.0,0.0,0.0,0.0,0.0,0.0,0.0,0.0,0.0,0.0,0.0,0.0,0.0,0.0,0.0,0.0,0.0,0.0,0.0,0.0,0.0,0.0,0.0,0.0,0.0,0.0,0.0,0.0,0.0,0.0,0.0,0.0,0.0,0.0,0.0,0.0,0.0,0.0,0.0,0.0,0.0,0.0,0.0,0.0,0.0,0.0,0.0,0.0,0.0,0.0,0.0,0.0,0.0,0.0,0.0,0.0,0.903,0.8901,0.8578,0.8034,0.7301,0.6404,0.5245,0.4043,0.2747,0.1356,0.0,0.0,0.0,0.0,0.0,0.0,0.0,0.0,0.0,0.0,0.0,0.0,0.0,0.0,0.0,0.0,0.0,0.0,0.0,0.0,0.0,0.0,0.0,0.0,0.0,0.0,0.0,0.0,0.0,0.0,0.0,0.0,0.0,0.0,0.0,0.0,0.0,0.0,0.0,0.0,0.0,0.0,0.0,0.0,0.0,0.0,0.0,0.0,0.0,0.0,0.0,0.0,0.0,0.0,0.0,0.0,0.0,0.0,0.0,0.0,0.0,0.0,0.0,0.0,0.0,0.0,0.0,0.0,0.0,0.0,0.0,0.0,0.0,0.0,0.0,0.0,0.0,0.0,0.0,0.0,0.0,0.0,0.0,0.0,0.0,0.0,0.0,0.0,0.0,0.0,0.0,0.0,0.0,0.0,0.0,0.0,0.0,0.0,0.0,0.0,0.0,0.0,0.9717,0.9667,0.9399,0.8878,0.8218,0.7363,0.6246,0.5029,0.376,0.2352,0.0,0.0,0.0,0.0,0.0,0.0,0.0,0.0,0.0,0.0,0.0,0.0,0.0,0.0,0.0,0.0,0.0,0.0,0.0,0.0,0.0,0.0,0.0,0.0,0.0,0.0,0.0,0.0,0.0,0.0,0.0,0.0,0.0,0.0,0.0,0.0,0.0,0.0,0.0,0.0,0.0,0.0,0.0,0.0,0.0,0.0,0.0,0.0,0.0,0.0,0.0,0.0,0.0,0.0,0.0,0.0,0.0,0.0,0.0,0.0,0.1054,0.0167,0.0,0.0,0.0,0.0,0.0,0.0,0.0,0.0,0.0,0.0,0.0,0.0,0.0,0.0,0.0,0.0,0.0,0.0,0.0,0.0,0.0,0.0,0.0,0.0,0.0,0.0,0.0,0.0,0.0,0.0,0.0,0.0,0.0,0.0,0.0,0.0,0.0,0.0,0.0,0.0,1.0601,1.0524,1.0244,0.9708,0.9093,0.8297,0.7259,0.6116,0.4911,0.3603,0.2216,0.0,0.0,0.0,0.0,0.0,0.0,0.0,0.0,0.0,0.0,0.0,0.0,0.0,0.0,0.0,0.0,0.0,0.0,0.0,0.0,0.0,0.0,0.0,0.0,0.0,0.0,0.0,0.0,0.0,0.0,0.0,0.0,0.0,0.0,0.0,0.0,0.0,0.0,0.0,0.0,0.0,0.0,0.0,0.0,0.0,0.0,0.0,0.0,0.0,0.0,0.0,0.0,0.0,0.0,0.0,0.0,0.0,0.0,0.0,0.3446,0.222,0.0,0.0,0.0,0.0,0.0,0.0,0.0,0.0,0.0,0.0,0.0,0.0,0.0,0.0,0.0,0.0,0.0,0.0,0.0,0.0,0.0,0.0,0.0,0.0,0.0,0.0,0.0,0.0,0.0,0.0,0.0,0.0,0.0,0.0,0.0,0.0,0.0,0.0,0.0,0.0,1.146,1.1319,1.1057,1.058,0.9953,0.9096,0.7933,0.7024,0.591,0.4472,0.3385,0.0,0.0,0.0,0.0,0.0,0.0,0.0,0.0,0.0,0.0,0.0,0.0,0.0,0.0,0.0,0.0,0.0,0.0,0.0,0.0,0.0,0.0,0.0,0.0,0.0,0.0,0.0,0.0,0.0,0.0,0.0,0.0,0.0,0.0,0.0,0.0,0.0,0.0,0.0,0.0,0.0,0.0,0.0,0.0,0.0,0.0,0.0,0.0,0.0,0.0,0.0,0.0,0.0,0.9769,0.98,0.9564,0.9506,0.9247,0.8747,0.622,0.4778,0.4215,0.3941,0.0,0.0,0.0,0.0,0.0,0.0,0.0,0.0,0.0,0.0,0.0,0.0,0.0,0.0,0.0,0.0,0.0,0.0,0.0,0.0,0.0,0.0,0.9252,0.9596,0.9982,0.9992,0.8997,0.0,0.0,0.0,0.0,0.0,0.0,0.0,0.0,0.0,0.0,0.0,1.2264,1.212,1.1813,1.1311,1.0704,0.9762,0.8452,0.7745,0.6747,0.5321,0.4526,0.3529,0.0,0.0,0.0,0.0,0.0,0.0,0.0,0.0,0.0,0.0,0.0,0.0,0.0,0.0,0.0,0.0,0.0,0.0,0.0,0.0,0.0,0.0,0.0,0.0,0.0,0.0,0.0,0.0,0.0,0.0,0.0,0.0,0.7234,0.749,0.0,0.0,0.0,0.0,0.0,0.0,0.0,0.0,0.0,0.0,0.0,0.0,0.0,1.1666,1.1694,1.1845,1.187,1.1768,1.192,1.1917,1.1778,1.1491,1.1316,1.1224,1.0586,0.0,0.6771,0.621,0.0,0.0,0.0,0.0,0.0,0.0,0.0,0.0,0.0,0.0,0.0,0.0,0.0,0.0,0.0,0.0,0.0,0.0,0.0,0.0,0.0,0.0,1.1149,1.1555,1.1837,1.2101,1.2284,1.1655,1.1096,1.1131,1.1361,1.1601,0.0,0.0,0.0,0.0,0.0,0.0,1.3027,1.2883,1.244,1.1639,1.1045,1.0225,0.9004,0.8087,0.7275,0.6592,0.5533,0.4594,0.3822,0.2788,0.0,0.0,0.0,0.0,0.0,0.0,0.0,0.0,0.0,0.0,0.0,0.0,0.0,0.0,0.0,0.0,0.0,0.0,0.0,0.0,0.0,0.0,0.0,0.0,0.0,0.0,0.0,0.0,0.0,0.924,0.9685,1.0102,1.0516,1.0848,0.0,0.0,0.0,0.0,0.0,0.0,0.0,0.0,0.0,1.3498,1.3641,1.3784,1.3954,1.4214,1.4358,1.4276,1.4583,1.4579,1.4345,1.4195,1.4026,1.3856,1.3449,1.241,1.0872,0.9221,0.8298,0.7891,0.0,0.0,0.0,0.0,0.7864,0.8049,0.8167,0.8377,0.8613,0.8834,0.0,0.0,0.0,0.0,0.0,0.0,0.0,1.1941,1.2308,1.2594,1.2894,1.3209,1.349,1.3697,1.3733,1.3476,1.3035,1.2358,1.232,1.2379,1.2407,1.2549,0.0,0.0,0.0,1.3585,1.3798,1.3635,1.3187,1.231,1.1747,1.0847,0.9404,0.8732,0.8,0.7084,0.6517,0.5831,0.492,0.4221,0.3425,0.0,0.0,0.0,0.0,0.0,0.0,0.0,0.0,0.0,0.0,0.0,0.0,0.0,0.0,0.0,0.0,0.0,0.0,0.0,0.0,0.0,0.0,0.0,0.0,0.0,0.0,0.0,0.0,1.1714,1.2102,1.256,1.2995,1.3296,0.0,0.0,0.0,0.0,0.0,0.0,1.5225,1.5331,1.5542,1.5847,1.5899,1.604,1.6284,1.6585,1.6735,1.6708,1.7027,1.7025,1.6753,1.6725,1.6585,1.6367,1.5732,1.5126,1.4383,1.1937,1.0546,0.9944,0.9918,0.9918,0.9944,0.9918,0.9987,1.0115,1.0265,1.0434,1.0629,1.0923,1.1115,1.1331,1.1834,0.0,0.0,0.0,0.0,1.3682,1.4034,1.4287,1.455,1.4858,1.4947,1.4949,1.485,1.4783,1.4421,1.3325,1.3135,1.3153,1.3102,1.3374,0.0,1.396,1.4152,1.434,1.4529,1.4219,1.3691,1.2858,1.2163,1.1198,0.9747,0.9257,0.8612,0.7648,0.7452,0.6979,0.6088,0.5673,0.5053,0.4188,0.0,0.0,0.0,0.0,0.0,0.0,0.0,0.0,0.0,0.0,0.0,0.0,0.0,0.0,0.0,0.0,0.0,0.0,0.0,0.0,0.0,0.0,0.0,0.0,0.0,0.0,0.0,0.0,0.0,1.4538,1.5133,0.0,0.0,0.0,0.0,1.6911,1.7225,1.7537,1.7797,1.8116,1.8357,1.8504,1.8622,1.8766,1.8911,1.8936,1.8948,1.8948,1.8946,1.8891,1.8732,1.8614,1.8561,1.8499,1.7641,1.6928,1.6178,1.3886,1.267,1.222,1.2098,1.2113,1.222,1.2098,1.2122,1.2245,1.2269,1.2439,1.2643,1.2667,1.3066,1.3601,1.403,1.4331,0.0,0.0,1.5061,1.5352,1.5706,1.5894,1.6102,1.6574,1.6185,1.5833,1.6126,1.5501,1.465,1.3822,1.3907,1.4077,1.3947,0.0,1.4454,1.4783,1.4891,1.5028,1.521,1.4514,1.3742,1.3065,1.2048,1.1031,1.0058,0.9433,0.8959,0.8639,0.8313,0.7987,0.7609,0.72,0.6668,0.5987,0.5444,0.0,0.0,0.0,0.0,0.0,0.0,0.0,0.0,0.0,0.0,0.0,0.0,0.0,0.0,0.0,0.0,0.0,0.0,0.0,0.0,0.0,0.0,0.0,0.0,0.0,0.0,0.0,0.0,1.7108,1.7581,0.0,1.8067,1.8457,1.8802,1.9012,1.9221,1.9493,1.9839,1.9978,2.0142,2.0381,2.0406,2.0505,2.0629,2.0629,2.0629,2.0629,2.0629,2.058,2.0431,1.9955,1.9677,1.9504,1.875,1.803,1.7343,1.6523,1.5244,1.3801,1.3755,1.3778,1.3801,1.3755,1.3825,1.3952,1.3952,1.4114,1.4391,1.4608,1.4937,1.5296,1.553,1.5794,1.6068,1.6232,1.6485,1.6735,1.7053,1.7252,1.7343,1.7207,1.7104,1.6867,1.6292,1.5929,1.5592,1.5073,1.4794,1.4688,1.4752,1.4954,1.5195,1.5433,1.558,1.5532,1.521,1.4817,1.412,1.2933,1.2315,1.1609,1.066,1.0109,0.9632,0.9242,0.9302,0.912,0.8547,0.8654,0.8371,0.765,0.7238,0.6801,0.0,0.0,0.0,0.0,0.0,0.0,0.0,0.0,0.0,0.0,0.0,0.0,0.0,0.0,0.0,0.0,0.0,0.0,0.0,0.0,0.0,0.0,0.0,0.0,0.0,1.8516,1.8956,1.9262,1.9685,2.0003,2.0092,2.0356,2.0616,2.0875,2.0959,2.1178,2.1598,2.1655,2.1787,2.2002,2.2035,2.2113,2.2229,2.2229,2.2229,2.2229,2.2229,2.2038,2.162,2.1169,2.0742,2.0319,1.9664,1.91,1.8613,1.8347,1.7366,1.6013,1.5602,1.5438,1.5438,1.5438,1.5494,1.5572,1.5616,1.577,1.5997,1.6311,1.6579,1.6815,1.6949,1.7218,1.7464,1.7619,1.784,1.8064,1.8333,1.8346,1.8209,1.8014,1.7737,1.7317,1.6644,1.6427,1.6277,1.6084,1.5594,1.5285,1.5536,1.5695,1.5882,1.6088,1.6215,1.6037,1.5417,1.5049,1.4354,1.3072,1.2513,1.1937,1.123,1.0772,1.0346,0.9894,1.0258,1.0244,0.9658,1.0037,0.9964,0.9349,0.8893,0.8484,0.8181,0.0,0.0,0.0,0.0,0.0,0.0,0.0,0.0,0.0,0.0,0.0,0.0,0.0,0.0,0.0,0.0,0.0,0.0,0.0,0.0,0.0,0.0,0.0,2.0332,2.0642,2.0959,2.0959,2.1445,2.1767,2.1767,2.2002,2.2257,2.2457,2.248,2.263,2.3047,2.3172,2.3318,2.345,2.352,2.3634,2.374,2.374,2.374,2.374,2.3725,2.323,2.2346,2.2316,2.1857,2.109,2.0406,2.0109,2.005,1.9271,1.8949,1.8822,1.7626,1.7149,1.7149,1.7149,1.7149,1.7169,1.7299,1.7409,1.7504,1.7773,1.7987,1.8171,1.84,1.8584,1.8797,1.8966,1.914,1.9303,1.9546,1.9121,1.8727,1.9,1.8069,1.716,1.7289,1.6954,1.6654,1.6722,1.6266,1.5963,1.6272,1.6382,1.6517,1.6776,1.6799,0.0,1.5871,1.5142,1.436,1.3471,1.2624,1.2009,1.1747,1.142,1.1064,1.0658,1.1182,1.1343,1.0951,1.1325,1.1399,1.106,1.0339,0.9973,0.9992,0.0,0.0,0.0,0.0,0.0,0.0,0.0,0.0,0.0,0.0,0.0,0.0,0.0,0.0,0.0,0.0,0.0,0.0,0.0,0.0,0.0,2.309,2.3047,2.1923,2.2044,2.2358,2.2548,2.2862,2.3121,2.3288,2.349,2.3697,2.3846,2.3945,2.4106,2.4369,2.441,2.4532,2.4697,2.4721,2.476,2.478,2.478,2.478,2.478,2.4253,2.3849,2.3572,2.2493,2.1838,2.1497,2.0762,2.0435,2.0367,2.015,2.0056,1.9952,1.8736,1.8269,1.8269,1.8269,1.8327,1.8424,1.8612,1.8688,1.875,1.9014,1.9144,1.9218,1.9438,1.9636,1.9811,1.9846,2.0074,2.0173,1.9711,1.9624,1.9389,1.8497,1.8099,1.7789,1.739,1.7281,1.7268,1.7349,1.7256,1.713,1.6977,1.7002,1.7113,1.7284,1.684,1.6275,1.5593,1.4825,1.4021,1.3196,1.2816,1.2517,1.23,1.2061,1.1794,1.149,1.1721,1.1899,1.1979,1.2225,1.2352,1.2324,1.1872,1.1691,0.0,0.0,0.0,0.0,0.0,0.0,0.0,0.0,0.0,0.0,0.0,0.0,0.0,0.0,0.0,0.0,0.0,0.0,0.0,0.0,0.0,0.0,2.4424,2.4474,2.4004,2.3794,2.3734,2.3882,2.4184,2.441,2.4561,2.4736,2.4894,2.5067,2.5163,2.5278,2.543,2.5524,2.5619,2.5748,2.5801,2.5819,2.5819,2.5819,2.5655,2.5325,2.488,2.4337,2.3648,2.2785,2.2151,2.1714,2.1279,2.1071,2.1039,2.0975,2.0959,2.0862,0.0,0.0,0.0,0.0,1.9492,1.9597,1.9687,1.9776,1.9846,2.0004,2.0143,2.0265,2.0401,2.06,2.0747,2.078,2.0735,2.0601,2.0211,1.978,1.9285,1.8577,1.8265,1.8031,1.7692,1.7732,1.7849,1.7888,1.7969,0.0,1.7782,1.767,1.7512,1.7316,1.6921,1.6289,1.5286,1.4733,1.4121,1.331,1.3114,1.2982,1.2767,1.2594,0.0,0.0,0.0,1.2677,1.3178,1.3473,0.0,0.0,0.0,1.3196,1.3289,1.3217,0.0,0.0,1.1899,1.2306,0.0,0.0,0.0,0.0,0.0,0.0,0.0,0.0,0.0,0.0,0.0,0.0,0.0,0.0,0.0,0.0,2.5524,2.5783,2.6158,2.5617,2.5144,2.5082,2.5351,2.5559,2.5635,2.5779,2.5941,2.6122,2.6192,2.6264,2.6334,2.6505,0.0,0.0,0.0,2.6808,2.6808,2.6808,2.6401,2.5588,2.552,2.4678,2.3194,2.311,2.2649,2.1913,2.1899,2.1899,2.1899,2.1777,2.1716,2.1642,2.091,2.0599,2.0599,2.0615,2.0615,2.0631,2.0632,0.0,0.0,2.0845,2.1007,2.1212,2.1289,2.1444,2.1613,2.1672,2.1259,2.0802,2.077,1.9782,1.8824,1.8927,1.8511,1.8085,1.816,1.8273,1.8361,1.8361,1.8462,1.855,1.8577,1.829,1.7848,1.7156,1.6995,1.6433,1.5029,1.4769,1.4424,1.3646,1.3494,0.0,1.3185,1.3053,1.2891,1.2706,1.3078,1.3619,1.4309,1.4805,1.5018,1.4881,1.4635,1.4544,1.4609,1.4609,1.4732,1.496,1.3837,1.3825,0.0,0.0,0.0,0.0,0.0,0.0,0.0,0.0,0.0,0.0,0.0,0.0,0.0,0.0,0.0,2.6282,2.6488,2.669,2.6886,2.6918,2.674,2.6248,2.6299,2.6454,2.6607,2.6707,2.6823,2.6955,2.6971,2.7035,2.7159,2.7191,2.7301,2.7457,2.7489,2.7504,2.7504,2.7504,2.7076,2.6219,2.5611,0.0,2.3808,2.315,2.2766,2.2602,2.2558,2.2527,2.2514,2.25,2.25,2.2402,2.1612,2.1307,2.1307,2.1368,2.1384,2.1399,2.1508,2.1569,2.1615,2.1718,2.1776,2.1851,2.1962,2.2119,0.0,2.2244,2.1852,2.1304,2.0792,1.9993,1.9211,1.8713,1.8528,1.8499,1.8566,1.866,1.8698,1.8698,1.8807,1.8931,1.8975,1.8752,1.83,1.7514,1.6896,1.6178,1.5233,1.4593,1.4154,1.393,1.3897,1.3806,1.3595,1.3507,1.3402,1.3261,1.4123,1.462,1.455,1.5588,1.615,1.607,1.5916,1.5874,1.5929,1.5873,1.597,1.6148,1.5169,1.5003,0.0,0.0,0.0,0.0,0.0,0.0,0.0,0.0,0.0,0.0,0.0,2.6091,2.6387,0.0,2.6904,2.7158,2.7315,2.7467,2.766,2.7791,2.7643,2.7079,2.7096,2.7224,2.7376,2.7422,2.7515,2.7634,2.7713,2.7789,2.7844,2.7883,2.7957,2.8059,2.8059,2.8059,2.8059,2.8059,2.7427,2.6202,2.5825,2.4971,2.3747,2.3335,2.3128,2.3114,2.3054,2.3035,2.2998,2.2998,2.2998,2.296,2.2563,2.2275,2.211,2.2136,2.215,2.2167,2.2226,2.2271,2.2312,2.2381,2.2463,2.2514,2.262,2.2708,2.2742,2.2392,2.1838,2.1187,2.0484,1.9742,1.913,1.886,1.8834,1.8861,1.8931,1.8999,1.9048,1.9048,1.9132,1.9214,1.9238,1.8836,1.8195,1.7291,1.6481,1.5703,1.4902,1.4483,1.4218,1.4154,1.4154,1.4101,1.3963,1.383,1.3718,1.3611,1.4728,1.5325,1.5149,1.6417,1.7065,1.6995,1.6905,1.6863,1.6905,1.6905,1.6991,1.7137,1.6774,1.6534,0.0,0.0,0.0,0.0,0.0,0.0,0.0,0.0,2.6214,2.6489,2.6805,2.7065,2.7263,2.7465,2.7663,2.794,2.802,2.8147,2.8401,2.8438,2.828,2.7851,2.7865,2.7943,2.8037,2.8065,2.8134,2.8224,2.8344,2.8388,2.8419,2.8479,2.8513,2.8543,2.8538,2.8538,2.8543,2.8543,2.7718,2.6104,2.6104,2.5221,2.3606,2.3606,2.3562,2.352,2.352,2.3474,2.3412,2.3412,2.3412,2.34,2.3412,2.3218,2.2913,2.2859,2.282,2.282,2.2829,2.2871,2.2914,2.2922,2.301,2.3109,2.3187,2.3259,2.3171,2.248,2.1764,2.103,2.0297,1.9543,1.9007,1.9127,1.9178,1.9184,1.9256,1.9315,1.9357,1.9383,1.9416,1.9467,1.9485,1.8699,1.7825,1.697,1.6174,1.5374,1.4555,1.4469,1.4439,1.4373,1.438,1.4356,1.4275,1.4107,1.3973,1.3896,1.505,1.5766,1.5833,1.701,1.7714,1.7814,1.7764,1.7725,1.7725,1.7786,1.7879,1.8003,1.8169,1.7915,2.1917,2.3137,2.4567,2.5552,2.6011,2.632,0.0,0.0,2.706,2.7387,2.7587,2.7765,2.8029,2.8152,2.829,2.8563,2.8615,2.8682,2.888,2.892,2.8929,2.8922,2.8713,2.8589,2.8619,2.8663,2.8713,2.8725,2.8737,2.8779,2.8827,2.8899,2.8957,2.9021,2.9023,2.9023,2.9021,2.9021,2.815,2.6447,2.6447,2.5575,2.3937,2.3937,2.3927,2.3935,2.3935,2.3886,2.3834,2.3834,2.3803,2.3742,2.3813,2.3813,2.3721,2.3359,2.3223,2.3235,2.3289,2.3324,2.3348,2.3405,2.3432,2.3455,2.3511,2.3628,2.3569,2.2782,2.2066,2.1371,2.0648,1.9849,1.9274,1.935,1.9413,1.9456,1.9462,1.9523,1.9576,1.9628,1.9656,1.9688,1.9745,1.8444,1.7328,1.709,1.6389,1.5586,1.4776,1.4665,1.4655,1.4653,1.4659,1.4605,1.4473,1.4392,1.432,1.4246,1.5004,1.5719,1.6294,1.7151,1.7915,1.8562,1.858,1.858,1.858,1.8562,1.8626,1.8699,1.8771,1.859,2.4228,2.5366,2.6377,0.0,2.7136,2.7367,2.7581,2.7755,2.7925,2.8148,2.8254,2.8384,2.8615,2.8724,2.8837,0.0,2.9071,2.9155,2.927,2.9312,2.9353,2.9384,2.933,2.9214,2.9019,2.9012,2.9075,2.9141,2.9152,2.9174,2.9257,2.9278,2.931,2.933,2.9332,2.9332,2.933,2.933,2.8472,2.678,2.678,2.5892,2.4238,2.4238,2.4229,2.4238,2.4182,2.4163,2.4125,2.4125,2.4115,2.4096,2.4115,2.4125,2.4086,2.3803,2.3714,2.3714,2.3739,2.375,2.375,2.3774,2.3816,2.3847,2.3881,2.3969,2.3783,2.2539,2.1996,2.1504,2.0284,1.973,1.9481,1.9557,1.9641,1.9674,1.9669,1.9726,1.9788,1.98,1.9841,1.9875,1.9906,1.8562,1.7454,1.7395,1.621,1.5193,1.486,1.4822,1.4822,1.4813,1.4785,1.4742,1.4676,1.4653,1.4601,1.4531,1.5221,1.5966,1.6719,1.7472,1.8276,1.9093,1.9119,1.9119,1.9119,1.9107,1.9128,1.9208,1.928,1.9247,2.6434,2.7243,0.0,2.7907,2.8071,2.8231,2.8358,2.8516,2.867,2.879,2.8865,2.8956,2.9129,2.9214,2.9306,2.9415,2.9493,2.9551,2.9598,2.9655,2.9682,2.9682,2.9738,2.9654,2.9425,2.9365,2.9385,2.9512,2.9512,2.9531,2.9579,2.9598,2.9608,2.9608,2.9617,2.9617,2.9608,2.9608,2.8746,2.7063,2.7063,2.6159,2.4485,2.4485,2.4486,2.4481,2.4428,2.4401,2.4374,2.4374,2.4384,2.4375,2.4393,2.4374,2.4365,2.4238,2.4163,2.4085,2.4095,2.4105,2.4105,2.4106,2.4163,2.421,2.4211,2.4257,2.3987,2.2407,2.2001,2.1641,2.0097,1.9675,1.9701,1.9763,1.9812,1.9861,1.9858,1.9909,1.9953,1.9958,1.9995,2.0025,2.0054,1.8715,1.7637,1.7626,1.6112,1.4983,1.4963,1.4963,1.4967,1.4967,1.4913,1.4877,1.4854,1.4867,1.4832,1.4794,1.5275,1.6041,1.7067,1.7616,1.8421,1.952,1.9538,1.9538,1.9538,1.9541,1.9562,1.9645,1.9687,1.9752,2.8194,0.0,2.8615,2.8807,2.8865,2.8911,2.9115,2.9177,2.9209,2.9343,2.9377,2.9427,2.9551,2.9635,2.9708,2.9763,2.9834,2.9895,2.9895,2.9883,2.9888,2.9888,2.9888,2.988,0.0,2.977,2.9708,2.9771,2.979,2.979,2.9799,2.9842,2.9895,2.9895,2.9883,2.9891,2.9895,2.9895,2.8984,2.7196,2.7196,2.6306,2.4692,2.4692,2.4692,2.4692,2.4692,2.465,2.4591,2.4591,2.4594,2.458,2.4602,2.4591,2.4599,2.465,2.4503,2.4294,2.4376,2.4394,2.4384,2.4382,2.4434,2.4486,2.4495,2.4526,2.4254,2.2645,2.2234,2.192,2.0306,1.9889,1.9898,1.9977,1.9991,1.9979,1.9991,2.0045,2.0089,2.0084,2.0093,2.012,2.0184,1.8801,1.7706,1.7692,1.6266,1.5162,1.5099,1.508,1.5091,1.5091,1.5096,1.5063,1.5007,1.5,1.4992,1.4999,1.5014,1.5746,1.7321,1.7411,1.8202,1.9858,1.9877,1.9877,1.9877,1.989,1.9922,1.9977,1.9984,2.0012,2.9029,0.0,2.9219,2.9338,2.9399,2.9467,2.957,2.9625,2.968,2.9779,2.9805,2.9811,2.9859,2.9918,2.9969,3.0003,3.0061,3.0091,3.0091,3.0098,3.0106,3.0106,3.0106,0.0,0.0,0.0,0.0,2.9991,2.9988,3.0019,3.0068,3.0083,3.0091,3.0091,3.0098,3.0106,3.0091,3.0042,2.9167,2.7452,2.6256,2.5388,2.4825,2.4825,2.4825,2.4825,2.4825,2.4818,2.4811,2.4811,2.4804,2.479,2.4804,2.4811,2.4792,2.4825,2.4775,2.4693,2.461,2.4596,2.4604,2.4653,2.4676,2.4718,2.4761,2.4772,2.4454,2.2796,2.2382,2.2047,2.0394,1.9995,2.0039,2.0054,2.0098,2.0135,2.0125,2.0195,2.022,2.0225,2.0238,2.025,2.0258,1.8872,1.739,1.6279,1.5581,1.5188,1.5167,1.5176,1.5163,1.5163,1.5179,1.5157,1.5132,1.5126,1.5133,1.512,1.512,1.5606,1.6686,1.729,1.8114,1.9211,1.9809,2.0101,2.0101,2.0144,2.0188,2.02,2.0249,2.0285,2.9614,2.9658,2.9729,2.9809,2.9859,2.9907,2.9954,3.0004,3.0053,3.0094,3.0109,3.0111,3.0114,3.0161,3.02,3.02,3.0246,3.026,3.026,3.026,3.026,3.026,3.026,3.0266,0.0,0.0,0.0,3.0176,3.0178,3.0199,3.0226,3.0245,3.0245,3.0245,3.0245,3.0245,3.0245,3.0199,2.9312,2.7624,2.6136,2.5266,2.4962,2.4962,2.4962,2.4962,2.4962,2.4962,2.4962,2.4962,2.4962,2.4962,2.4962,2.4962,2.4962,2.4962,2.4962,2.4942,2.483,2.4772,2.4779,2.482,2.4849,2.4877,2.4914,2.4947,2.4689,2.3327,2.2761,2.2255,2.09,2.0336,2.0144,2.0162,2.0197,2.0249,2.0238,2.0265,2.0307,2.033,2.0339,2.0344,2.0334,1.8946,1.736,1.5969,1.5474,1.5262,1.5243,1.5231,1.5241,1.5243,1.5241,1.5241,1.5241,1.5234,1.5246,1.5241,1.5241,1.5617,1.6446,1.7285,1.8133,1.8956,1.9838,2.0266,2.0266,2.0302,2.034,2.034,2.0407,2.0449,3.0028,3.0063,3.0143,3.0202,3.0209,3.0235,3.0305,3.0305,3.0305,3.0305,3.0317,3.0316,0.0,0.0,3.0416,3.0416,3.0435,3.0473,3.0473,3.0473,3.0473,0.0,0.0,0.0,0.0,0.0,0.0,3.0311,3.0305,3.0299,3.0299,3.0299,3.0299,3.0299,3.0299,3.0299,3.0299,3.026,2.9385,2.7687,2.6834,2.5956,2.5121,2.5121,2.5121,2.5121,2.5121,2.5121,2.5121,2.5121,2.5121,2.5121,2.5121,2.5121,2.5121,2.5121,2.5121,2.5084,2.4955,2.4922,2.4915,2.4915,2.4961,2.5006,2.5013,2.5062,2.4948,2.4132,2.3325,2.2527,2.1712,2.0856,2.0219,2.0273,2.0292,2.0315,2.0317,2.0318,2.0315,2.0382,2.0401,2.0399,2.0358,1.9022,1.7659,1.6732,1.5969,1.5423,1.5323,1.5311,1.5303,1.531,1.5305,1.5319,1.5319,1.5307,1.5317,1.5317,1.5317,1.5685,1.6497,1.7352,1.8208,1.9039,1.9949,2.0405,2.0405,2.0407,2.0415,2.0418,2.0469,2.0503,3.0362,3.0372,3.0407,3.0419,3.0428,3.0437,3.0506,3.0477,3.0456,3.0456,3.0447,3.0452,0.0,0.0,0.0,3.0477,3.1023,0.0,3.1433,3.1433,0.0,3.1433,0.0,3.0477,3.0477,3.0467,0.0,3.0442,3.0444,3.0455,3.0455,3.0455,3.0455,3.0455,3.0455,3.0455,3.0455,2.9803,2.8915,2.7761,2.6935,2.6084,2.5248,2.5248,2.5248,2.5248,2.5248,2.5248,2.5248,2.5248,2.5248,2.5248,2.5248,2.5248,2.5248,2.5248,2.5248,2.5243,2.5217,2.5132,2.5062,2.5105,2.5141,2.5164,2.5204,2.5245,2.5074,2.4274,2.3433,2.2586,2.1786,2.0928,2.0282,2.0304,2.0344,2.0366,2.0369,2.0377,2.0377,2.0399,2.0437,2.0264,1.9624,1.9146,1.8374,1.6904,1.6503,1.613,1.5462,1.5372,1.5379,1.5361,1.5379,1.5378,1.5378,1.5377,1.5374,1.5374,1.5374,1.5475,1.5696,1.7157,1.8056,1.8276,1.9738,2.0479,2.0479,2.047,2.0476,2.0462,2.0491,2.0537,3.0587,3.0591,3.0591,3.0587,3.0591,3.0599,3.063,3.0618,3.0582,3.0582,3.0582,0.0,3.0589,3.0585,0.0,0.0,0.0,0.0,3.1835,3.2168,3.2265,0.0,3.1409,0.0,3.0586,3.0548,3.0548,3.0548,3.0525,3.0496,3.0496,3.0496,3.0496,3.0496,3.0496,3.0496,3.0496,3.0003,2.9139,2.789,2.7436,2.6559,2.534,2.5351,2.5346,2.5346,2.5346,2.5346,2.5346,2.5346,2.5346,2.5346,2.5346,2.5346,2.5346,2.5336,2.534,2.534,2.5388,2.5341,2.5269,2.5257,2.5257,2.5292,2.5322,2.5341,2.525,2.4805,2.3781,2.274,2.2284,2.1259,2.035,2.0346,2.036,2.0413,2.0443,2.0439,2.0437,2.0448,2.0465,2.0345,1.9855,1.9471,1.8912,1.7985,1.7521,1.6956,1.6072,1.5638,1.5403,1.5407,1.5407,1.5407,1.5407,1.5407,1.5407,1.5407,1.5409,1.5392,1.5395,1.7074,1.7994,1.7997,1.9675,2.0535,2.0535,2.0539,2.0542,2.0545,2.0546,2.0547,3.0681,3.072,3.072,3.0717,3.0706,3.071,3.0707,3.0717,3.0707,3.0704,0.0,3.0717,3.0695,3.0692,3.0684,3.0626,0.0,3.2085,3.2085,3.2846,3.3059,3.2182,3.1988,3.1576,3.07,3.0603,3.0603,3.0603,3.057,3.0524,3.051,3.051,3.051,3.051,3.051,3.051,3.051,3.051,2.9736,2.8173,2.8075,2.7153,2.5588,2.5475,2.5408,2.5408,2.5408,2.5408,2.5408,2.5408,2.5408,2.5408,2.5408,2.5408,2.5412,2.541,2.5414,2.5418,2.5472,2.5499,2.5484,2.536,2.5365,2.5412,2.5412,2.54,2.541,2.5414,2.4211,2.2917,2.2914,2.1678,2.0408,2.0415,2.0405,2.0432,2.0489,2.0495,2.0504,2.0506,2.0501,2.0492,2.05,1.9922,1.9421,1.9328,1.8667,1.7868,1.6971,1.6107,1.5536,1.5403,1.5404,1.5404,1.5404,1.5404,1.5404,1.5404,1.5405,1.5446,1.5564,1.7147,1.8046,1.8163,1.9765,2.0605,2.0605,2.0605,2.0605,2.0584,2.0581,2.0559,3.0593,3.0789,3.0788,3.0783,3.0774,3.0782,3.0772,3.0777,0.0,0.0,3.0776,3.077,3.0713,3.0707,3.0707,3.0685,3.203,3.306,3.306,3.3799,3.4033,0.0,3.2419,3.1638,3.0763,3.0685,0.0,0.0,3.0678,3.0648,3.0597,3.0574,3.0574,3.0574,3.0574,3.0574,3.0574,3.0574,3.0094,2.9148,2.8427,2.7555,2.6524,2.5808,2.5475,2.5475,2.5475,2.5475,2.5475,2.5475,2.5475,2.5475,2.5475,2.5475,2.5478,2.5478,2.5482,2.5482,2.5505,2.5505,2.5498,2.5464,2.5472,2.5476,2.5472,2.5484,2.5472,2.5475,2.4271,2.2987,2.299,2.1742,2.0478,2.0482,2.048,2.0496,2.0498,2.0508,2.0503,2.0499,2.0504,2.0527,2.0576,2.046,2.0131,1.9413,1.9179,1.8769,1.789,1.7012,1.619,1.5488,1.539,1.539,1.539,1.539,1.539,1.539,1.539,1.5723,1.6443,1.7459,1.8336,1.9055,2.0071,2.0598,2.0598,2.0598,2.0576,2.0512,2.0526,2.05,3.0562,3.0834,3.0851,3.085,3.0824,3.0795,3.0806,0.0,0.0,0.0,3.0795,3.0789,3.0767,3.0742,0.0,3.0703,3.2162,3.3291,3.3291,3.4442,0.0,3.3466,3.2921,3.2162,0.0,3.0703,3.0703,3.0703,3.0703,3.0688,3.0651,3.0651,3.0651,3.0651,3.0651,3.0651,3.0651,3.0651,3.0243,2.9447,2.857,2.7709,2.6812,2.5952,2.556,2.556,2.556,2.556,2.556,2.556,2.556,2.556,2.556,2.556,2.5541,2.5547,2.555,2.5553,2.5546,2.5549,2.5546,2.5547,2.5522,2.5501,2.5538,2.5548,2.5557,2.5547,2.4339,2.305,2.305,2.1779,2.0509,2.0496,2.0492,2.0504,2.0509,2.0537,2.0546,2.0553,2.0557,2.0561,2.0584,2.0605,2.0469,2.0039,1.9979,1.9666,1.8784,1.8315,1.7711,1.6853,1.6346,1.6073,1.6071,1.5662,1.5584,1.6052,1.6089,1.6477,1.7331,1.8209,1.8851,1.9234,2.0093,2.054,2.0559,2.0559,2.0535,2.0507,2.0504,2.0497,3.0312,3.0723,3.0898,3.0898,3.0856,3.0813,3.0826,3.0821,0.0,0.0,3.0803,3.0796,3.0793,0.0,3.0784,0.0,3.2183,3.3312,3.3312,3.4814,3.534,0.0,3.3448,0.0,3.1151,3.0839,0.0,3.0723,3.0723,3.0717,3.0703,3.0703,3.0703,3.0703,3.0703,3.0703,3.0703,3.0703,3.0372,2.9747,2.8882,2.8021,2.7143,2.6276,2.5788,2.559,2.559,2.559,2.559,2.559,2.559,2.559,2.559,2.559,2.5593,2.5604,2.5607,2.5609,2.5608,2.5593,2.5593,2.5617,2.5573,2.5537,2.5587,2.5599,2.5607,2.559,2.4397,2.3104,2.3106,2.1809,2.0495,2.0525,2.0516,2.0524,2.0511,2.0555,2.0598,2.0601,2.0604,2.0605,2.0605,2.0605,2.0603,2.0601,2.0598,2.0322,1.9653,1.9569,1.9295,1.8619,1.7607,1.6982,1.6978,1.6354,1.6256,1.6938,1.6972,1.7357,1.8212,1.8914,1.9339,1.9487,2.0148,2.0497,2.0494,2.0494,2.0508,2.0498,2.0494,2.0488,2.9489,3.029,3.0897,3.0898,3.0898,3.0898,3.0895,0.0,0.0,3.08,3.0795,3.0809,3.0798,3.0796,0.0,0.0,0.0,3.3388,3.3388,3.4887,3.5648,3.4675,0.0,0.0,3.206,3.126,3.0792,3.0792,3.0792,3.0756,3.0706,3.0703,3.0703,3.0703,3.0703,3.0703,3.0703,3.0703,3.0664,3.0586,2.9766,2.893,2.8051,2.7181,2.6345,2.5605,2.5605,2.5605,2.5605,2.5605,2.5605,2.5605,2.5605,2.5605,2.5605,2.5605,2.5605,2.5608,2.56,2.5604,2.5607,2.5664,2.565,2.5583,2.5605,2.5605,2.5608,2.56,2.4399,2.3102,2.3095,2.1816,2.0519,2.0589,2.0592,2.0594,2.0599,2.0603,2.0604,2.0605,2.0605,2.0604,2.0603,2.0601,2.0599,2.0595,2.0551,2.0487,2.0403,2.0396,2.0351,2.029,1.8836,1.7885,1.7885,1.7819,1.7795,1.7873,1.7811,1.8174,1.9041,1.9176,1.9583,2.0375,2.0453,2.0492,2.049,2.049,2.0504,2.0491,2.0499,2.0471,2.9227,2.9854,3.0247,3.0777,3.0897,3.0898,3.0898,0.0,3.0893,3.0866,3.0863,3.0841,3.0809,3.0807,3.0806,0.0,0.0,0.0,3.3393,3.4893,3.5674,3.4796,3.394,0.0,0.0,0.0,3.0798,3.0798,3.0798,3.0792,3.0754,3.0752,3.0752,3.0752,3.0752,3.0752,3.0752,3.0752,3.0752,3.0752,2.9897,2.9057,2.8238,2.7363,2.6486,2.5669,2.5669,2.5669,2.5669,2.5669,2.5669,2.5669,2.5669,2.5669,2.5669,2.5669,2.5669,2.5669,2.5653,2.5655,2.5655,2.5681,2.5678,2.5669,2.5669,2.5669,2.565,2.5653,2.4427,2.3104,2.3093,2.1835,2.0574,2.0598,2.0601,2.0602,2.0604,2.0605,2.0605,2.0604,2.0602,2.0599,2.0598,2.0573,2.0548,2.0545,2.0517,2.0492,2.0507,2.0494,2.0503,2.0501,1.9439,1.8722,1.8716,1.8244,1.8165,1.8691,1.8707,1.9075,1.9945,1.9984,2.0151,2.0485,2.0504,2.0478,2.0447,2.0447,2.0444,2.0437,2.0432,2.0426,2.8499,2.9204,2.9754,3.0361,3.0717,3.0897,0.0,0.0,3.0896,3.0892,3.0891,3.0888,3.0839,3.0838,3.0816,0.0,0.0,3.3406,3.3406,3.491,3.577,0.0,0.0,3.3155,3.2549,3.1477,3.0833,3.0833,3.0833,3.0833,3.0833,3.0833,3.0828,3.0799,3.0798,3.0798,3.0798,3.0798,3.0798,3.0798,3.0175,2.9336,2.828,2.7657,2.6762,2.571,2.571,2.571,2.571,2.571,2.571,2.571,2.571,2.571,2.571,2.571,2.5692,2.5693,2.5694,2.5697,2.5698,2.5701,2.5702,2.5702,2.5702,2.5698,2.5693,2.5694,2.4449,2.3048,2.2816,2.1671,2.0602,2.0603,2.0605,2.0605,2.0605,2.0604,2.0602,2.06,2.0575,2.057,2.057,2.0521,2.0493,2.0493,2.0501,2.049,2.049,2.0494,2.05,2.0497,1.9937,1.9552,1.9572,1.9019,1.8938,1.9543,1.9575,1.9826,2.0448,2.0467,2.0478,2.0478,2.0478,2.0451,2.0394,2.0394,2.0391,2.0408,2.0408,2.0405,2.7016,2.8285,2.9593,2.9617,3.0266,3.0895,0.0,0.0,3.0897,3.0897,3.0896,3.0893,3.0908,3.0907,3.0886,3.0801,0.0,0.0,3.3405,3.4895,3.5991,0.0,0.0,3.3393,3.3393,3.187,3.0894,3.0894,3.0894,3.0894,3.0894,3.0894,3.0867,3.0799,3.0798,3.0798,3.0798,3.0798,3.0798,3.0798,3.0798,2.99,2.8299,2.828,2.7345,2.571,2.571,2.571,2.571,2.571,2.571,2.571,2.571,2.571,2.571,2.571,2.5694,2.5699,2.5705,2.571,2.5694,2.5699,2.57,2.57,2.57,2.5693,2.5701,2.5705,2.4444,2.2926,2.2125,2.1267,2.0605,2.0605,2.0605,2.0604,2.0602,2.0598,2.0594,2.0594,2.0546,2.0498,2.0498,2.0509,2.05,2.05,2.0501,2.0508,2.0508,2.0497,2.0504,2.051,2.0422,2.0412,2.0484,2.0485,2.0488,2.0488,2.0429,2.0396,2.0396,2.0396,2.0394,2.0394,2.0394,2.0394,2.0394,2.0394,2.0405,2.0407,2.0407,2.0398,2.6841,2.7836,2.8851,2.9441,3.0266,3.0895,3.0897,0.0,3.0898,3.0897,3.0897,3.0896,3.0893,3.0892,3.0892,3.0871,3.2297,0.0,0.0,0.0,0.0,3.5991,3.4467,3.2945,0.0,3.1209,3.0877,3.0839,3.0839,3.0839,3.0839,3.0877,3.0894,3.0867,3.0867,3.0867,3.0867,3.0867,3.0867,3.0867,3.0867,2.9968,2.8308,2.8305,2.7348,2.5707,2.5704,2.5702,2.5702,2.5702,2.5704,2.5707,2.5707,2.569,2.5694,2.5694,2.5695,2.5696,2.5697,2.5698,2.5699,2.57,2.57,2.57,2.5702,2.57,2.5579,2.4974,2.3982,2.291,2.2109,2.125,2.0604,2.0604,2.0601,2.0598,2.0596,2.0551,2.0524,2.0524,2.0515,2.0506,2.0506,2.0492,2.0498,2.0498,2.0506,2.0491,2.0502,2.0454,2.0422,2.0426,2.0404,2.0407,2.0439,2.0432,2.0426,2.0426,2.0418,2.0394,2.0394,2.0394,2.0408,2.0396,2.0396,2.039,2.0398,2.0398,2.0395,2.0408,2.0408,2.0382,0.0,2.7392,2.8426,2.8976,3.0014,3.0896,0.0,0.0,3.0898,3.0898,3.0898,3.0897,3.0896,3.0895,3.0895,3.0894,3.2301,3.3395,0.0,0.0,0.0,3.5097,0.0,0.0,3.1055,3.0898,3.0879,3.0839,3.0839,3.0839,3.0839,3.0879,3.0898,3.0898,3.0896,3.0894,3.0894,3.0894,3.0894,3.0894,3.0894,2.9996,2.8296,2.8295,2.7357,2.5696,2.5694,2.5694,0.0,2.5694,2.5694,2.5696,2.5696,2.5698,2.57,2.57,2.57,2.5701,2.5702,2.5702,2.5703,2.5703,2.5703,2.5703,2.5703,2.5703,2.5585,2.5039,2.4023,2.2988,2.248,2.1482,2.0599,2.0599,2.0574,2.0568,2.0568,2.0521,2.0492,2.0492,2.05,2.0508,2.0508,2.0494,2.05,2.0493,2.0485,2.0451,2.0459,2.0432,2.0402,2.0408,2.0405,2.0402,2.0396,2.0402,2.0405,2.0405,2.0399,2.0396,2.0396,2.0396,2.041,2.0398,2.0398,2.0392,2.0402,2.0402,2.0402,2.0402,2.0402,2.0357,0.0,2.6969,2.8296,2.8296,2.9607,3.0897,3.0897,0.0,0.0,3.0898,3.0898,3.0898,3.0897,3.0897,3.0916,3.0973,3.2342,3.3417,0.0,3.4941,0.0,0.0,3.3393,3.2748,3.1069,3.0893,3.0893,3.0893,3.0893,3.0893,3.0893,3.0893,3.0894,3.0894,3.0898,3.0896,3.0895,3.0895,3.0895,3.0895,3.0895,2.9997,2.8297,2.8297,2.734,2.57,2.57,2.57,2.57,2.57,2.57,2.57,2.57,2.57,2.57,2.5701,2.5702,2.5703,2.5703,2.5703,2.5702,2.57,2.57,2.5699,2.5699,2.5701,2.5702,2.57,2.4449,2.3101,2.3101,2.1847,2.0593,2.0593,2.0546,2.0497,2.0497,2.0507,2.0497,2.0497,2.0501,2.0506,2.0506,2.0495,2.0482,2.0488,2.0439,2.039,2.0394,2.0394,2.0405,2.0407,2.0407,2.0398,2.0402,2.0398,2.0407,2.0407,2.0392,2.0402,2.0402,2.0402,2.0402,2.0402,2.0402,2.0402,2.0402,2.0402,2.0402,2.0402,2.0402,2.0357,2.5703,0.0,2.8297,2.8299,2.9608,3.0897,0.0,0.0,0.0,0.0,0.0,3.0898,3.0898,3.0898,3.1093,3.1719,3.2714,3.363,3.4294,0.0,0.0,3.3604,3.3407,3.2722,3.0997,3.082,3.0817,3.081,3.081,3.081,3.081,3.0816,3.0821,3.0824,3.0813,3.0857,3.0897,3.0897,3.0897,3.0897,3.0897,2.9999,2.8301,2.8301,2.7343,2.5702,2.57,2.57,2.57,2.57,2.5701,2.5702,2.5703,2.5703,2.5703,2.5703,2.5702,2.5702,2.5701,2.5701,2.57,2.57,2.5697,2.5691,2.5691,2.5696,2.57,2.5696,2.4444,2.3094,2.309,2.1816,2.0522,2.0522,2.0514,2.0504,2.0504,2.051,2.0496,2.0496,2.0504,2.0508,2.0499,2.0451,2.042,2.0424,2.0402,2.0394,2.0396,2.0393,2.0407,2.0408,2.0408,2.0405,2.0402,2.0405,2.0408,2.0408,2.0402,2.0402,2.0402,2.0402,2.0402,2.0402,2.0402,2.0402,2.0402,2.0402,2.0402,2.0402,2.0402,2.0357,2.5702,2.6973,2.83,2.83,2.9609,3.0898,3.0898,0.0,0.0,0.0,0.0,0.0,3.0898,3.0897,3.1169,3.197,3.2826,0.0,0.0,0.0,3.4902,3.3551,3.3042,3.2278,3.0924,3.0806,3.0804,3.0799,3.0798,3.0798,3.0798,3.0803,3.0807,3.0791,3.0796,3.0825,3.0894,3.0894,3.0894,3.0894,3.0484,2.9606,2.8298,2.7889,2.6972,2.5703,2.5703,2.5703,2.5703,2.5703,2.5703,2.5703,2.5703,2.5702,2.5701,2.57,2.57,2.57,2.5696,2.5694,2.569,2.569,2.5706,2.5699,2.5699,2.5705,2.5709,2.5705,2.4726,2.3591,2.3197,2.2097,2.0996,2.0607,2.0498,2.0505,2.0505,2.0492,2.05,2.05,2.0487,2.0451,2.0444,2.0415,2.0402,2.0405,2.0402,2.0396,2.0398,2.0395,2.0392,2.0357,2.0354,2.035,2.034,2.034,2.0344,2.0354,2.0347,2.034,2.034,2.034,2.034,2.034,2.035,2.0354,2.0354,2.0379,2.0402,2.0402,2.0402,2.0357,2.5702,2.6972,2.8301,2.8301,2.9609,3.0898,3.0898,0.0,0.0,0.0,0.0,0.0,0.0,3.0894,0.0,0.0,0.0,0.0,3.5765,3.5248,3.4384,3.3507,3.2625,3.1746,3.0866,3.0788,3.0788,3.0788,3.0788,3.0788,3.0788,3.0788,3.079,3.0794,3.0794,3.083,3.0871,3.0871,3.0871,3.0871,2.9993,2.9134,2.8275,2.7398,2.652,2.57,2.57,2.57,2.57,2.57,2.57,2.57,2.57,2.5699,2.5699,2.5698,2.5698,2.5696,2.5708,2.5698,2.571,2.571,2.5708,2.5707,2.5705,2.5684,2.5684,2.5683,2.5059,2.424,2.3499,2.2552,2.1604,2.0865,2.0597,2.0504,2.0504,2.0493,2.0485,2.0485,2.0449,2.0393,2.0393,2.0399,2.0405,2.0407,2.0404,2.0398,2.0382,2.0379,2.0354,2.0305,2.0302,2.0295,2.0297,2.0294,2.0297,2.0295,2.0304,2.0297,2.0297,2.0297,2.0297,2.0297,2.0295,2.0305,2.0305,2.0354,2.0399,2.0402,2.0402,2.0376,2.57,2.6971,2.83,2.8301,2.9609,3.0898,0.0,0.0,0.0,0.0,0.0,0.0,0.0,3.085,3.1097,0.0,0.0,3.4841,0.0,0.0,3.4389,3.3502,3.2574,3.1665,3.0795,3.0717,3.0717,3.0717,3.0717,3.0717,3.0717,3.0717,3.0747,3.0806,3.0806,3.0802,3.0825,3.0825,3.0825,3.0806,2.9929,2.9096,2.8266,2.7408,2.6515,2.57,2.57,2.57,2.57,2.57,2.57,2.57,2.5696,2.5693,2.5709,2.5705,2.5701,2.5696,2.5693,2.5692,2.571,2.571,2.5704,2.5694,2.5707,2.566,2.5613,2.5624,2.5029,2.4378,2.4232,2.3015,2.1778,2.1623,2.1048,2.0491,2.0491,2.0456,2.0422,2.0422,2.041,2.0394,2.0399,2.0393,2.0407,2.0408,2.0405,2.0382,2.0312,2.0328,2.0302,2.0304,2.0301,2.0301,2.0297,2.0299,2.0311,2.0295,2.0306,2.0297,2.0297,2.0297,2.0297,2.0297,2.0301,2.0311,2.0305,2.0308,2.0334,2.0402,2.0402,2.0399,2.6265,2.7323,2.8417,2.8886,2.9961,3.0898,0.0,0.0,0.0,0.0,0.0,0.0,0.0,0.0,3.11,3.1968,0.0,3.4111,3.4486,3.3796,3.309,3.2692,3.1849,3.114,3.0742,3.0703,3.0703,3.0703,3.0703,3.0703,3.0703,3.0703,3.0709,3.0739,3.0742,3.0747,3.0743,3.0314,3.0094,3.0097,2.9258,2.8403,2.7571,2.6695,2.6074,2.5707,2.5707,2.5707,2.5707,2.5707,2.5707,2.5707,2.5704,2.5701,2.5698,2.5696,2.5708,2.5701,2.5696,2.5671,2.5648,2.5642,2.5656,2.565,2.5645,2.5619,2.5595,2.5591,2.5325,2.494,2.4466,2.3757,2.3028,2.2561,2.1787,2.1148,2.1148,2.0747,2.0404,2.0404,2.0394,2.0399,2.041,2.0401,2.0389,2.0357,2.0354,2.0328,2.0292,2.0292,2.0301,2.0303,2.0299,2.0295,2.03,2.0292,2.0304,2.0304,2.0296,2.03,2.03,2.03,2.03,2.03,2.0292,2.0303,2.0294,2.0295,2.0328,2.0354,2.0379,2.0402,2.6755,2.7636,2.8515,2.9374,0.0,0.0,0.0,0.0,0.0,0.0,0.0,0.0,0.0,3.0799,0.0,3.1931,3.2647,3.3126,3.3271,3.2545,3.1994,3.1971,3.1207,3.0678,3.0678,3.0678,3.0678,3.0678,3.0678,3.0682,3.0704,3.0704,3.0707,3.0694,3.0697,3.06,3.0431,2.9805,2.9499,2.9498,2.8466,2.7629,2.695,2.6094,2.5707,2.571,2.571,2.571,2.571,2.571,2.571,2.571,2.571,2.5707,2.5702,2.5681,2.5675,2.5681,2.5675,2.5648,2.56,2.5593,2.5608,2.5608,2.5603,2.5603,2.5603,2.56,2.5595,2.5459,2.4778,2.4457,2.4138,2.3456,2.2638,2.1995,2.1995,2.1463,2.0931,2.0737,2.0706,2.0636,2.0417,2.0386,2.0354,2.0302,2.0299,2.0292,2.029,2.031,2.0299,2.0296,2.0296,2.0308,2.0288,2.0308,2.0308,2.0308,2.0308,2.0308,2.0308,2.0308,2.0308,2.0308,2.0308,2.03,2.0304,2.0301,2.0302,2.0308,2.0376,2.0402,2.6756,2.7636,2.8516,2.9374,0.0,0.0,0.0,0.0,0.0,0.0,0.0,0.0,0.0,3.0802,3.1069,3.1879,3.2068,3.2376,3.32,3.2557,3.1976,3.1915,3.1134,3.0614,3.0614,3.0614,3.0614,3.0614,3.0614,3.0626,3.0704,3.0707,3.0703,3.0695,3.0695,3.0335,2.9591,2.9533,2.9497,2.9483,2.7802,2.6979,2.6889,2.6079,2.5699,2.571,2.571,2.571,2.571,2.571,2.571,2.571,2.571,2.5699,2.5681,2.5632,2.5602,2.5612,2.5612,2.5591,2.5591,2.561,2.5608,2.5605,2.5609,2.5604,2.5601,2.5607,2.5595,2.5589,2.5518,2.4902,2.4276,2.4218,2.3543,2.2908,2.2908,2.2801,2.2504,2.1743,2.1617,2.1337,2.0466,2.0308,2.0302,2.0301,2.0297,2.029,2.0307,2.0304,2.0296,2.0292,2.0292,2.0292,2.0308,2.0308,2.0308,2.0308,2.0308,2.0308,2.0308,2.0308,2.0308,2.0308,2.0288,2.03,2.0304,2.0306,2.0308,2.0308,2.0376,2.0402,2.7422,2.8047,2.8631,2.9992,0.0,0.0,0.0,0.0,0.0,0.0,0.0,0.0,0.0,0.0,3.0833,3.1145,3.119,3.1289,3.1585,3.134,3.1115,3.1087,3.0804,3.0606,3.0606,3.0606,3.0606,3.0606,3.0606,3.061,3.0637,3.0637,3.0645,3.0642,3.016,2.974,2.9447,2.8366,2.7847,2.7876,2.7201,2.661,2.6089,2.5782,2.563,2.5636,2.5636,2.5636,2.5636,2.5636,2.5636,2.5636,2.5636,2.565,2.5622,2.5617,2.5593,2.5608,2.5595,2.5593,2.559,2.5601,2.5599,2.5596,2.5601,2.5595,2.5592,2.5557,2.5548,2.5548,2.5589,2.5328,2.5056,2.5056,2.4381,2.3747,2.3747,2.3311,2.2814,2.2504,2.2007,2.1533,2.1178,2.0662,2.0301,2.0299,2.0295,2.0307,2.0304,2.03,2.03,2.0308,2.0308,2.0308,2.0308,2.0308,2.0308,2.0308,2.0308,2.0308,2.0308,2.0308,2.0308,2.0308,2.0308,2.0292,2.03,2.0304,2.0306,2.0308,2.0324,2.0357,2.789,2.8494,2.9056,0.0,0.0,0.0,0.0,0.0,0.0,0.0,0.0,0.0,0.0,0.0,0.0,0.0,3.0677,3.0653,3.0608,3.0576,3.0572,3.0563,3.0563,3.0563,3.0563,3.0567,3.0572,3.0572,3.06,3.0608,3.0597,3.0597,3.0485,3.0238,2.9699,2.9144,2.857,2.7394,2.6683,2.6463,2.6468,2.6154,2.56,2.5605,2.5608,2.5608,2.5608,2.5608,2.5608,2.5608,2.5608,2.5608,2.5608,2.5605,2.56,2.56,2.5598,2.5593,2.5599,2.5593,2.5607,2.5598,2.5589,2.5564,2.5573,2.557,2.557,2.5518,2.5489,2.5508,2.5557,2.5531,2.5505,2.5505,2.5041,2.4601,2.4601,2.4122,2.3608,2.3357,2.2801,2.2226,2.1698,2.1108,2.0627,2.0335,2.0292,2.0308,2.0292,2.0308,2.0308,2.0308,2.0285,2.0261,2.0261,2.0277,2.0273,2.0273,2.0277,2.0285,2.0308,2.0308,2.0308,2.0308,2.0308,2.0308,2.0308,2.0292,2.0295,2.0297,2.0299,2.0331,2.8063,2.8934,2.9784,0.0,0.0,0.0,0.0,0.0,0.0,0.0,0.0,3.0707,3.0694,0.0,0.0,3.061,3.0608,3.061,3.0602,3.0535,3.0505,3.0504,3.0504,3.0504,3.0504,3.05,3.0496,3.0496,3.0559,3.0607,3.0595,3.06,3.0221,2.9427,2.9389,2.8555,2.683,2.6791,2.6345,2.5495,2.5495,2.5522,2.5601,2.56,2.5608,2.5608,2.5608,2.5608,2.5608,2.5608,2.5608,2.5608,2.5608,2.5598,2.5601,2.5601,2.5593,2.5601,2.5601,2.5589,2.5599,2.5599,2.5548,2.5495,2.5495,2.5495,2.5495,2.5495,2.5498,2.5495,2.5495,2.5495,2.5495,2.5495,2.5503,2.5507,2.5507,2.5452,2.517,2.4378,2.4149,2.3569,2.191,2.1617,2.1317,2.0446,2.0308,2.0308,2.0308,2.0308,2.0308,2.0308,2.0238,2.0192,2.0192,2.0205,2.0193,2.0193,2.0199,2.0234,2.0308,2.0308,2.0308,2.0308,2.0308,2.0308,2.0308,2.0292,2.0295,2.0297,2.0299,2.0331,2.8055,2.8907,0.0,3.0593,0.0,0.0,0.0,0.0,0.0,0.0,0.0,3.0688,3.0633,3.0628,0.0,3.0535,3.0535,3.0535,3.053,3.0519,3.049,3.0504,3.0504,3.0504,3.0504,3.0509,3.0495,3.0495,3.0519,3.053,3.054,2.9994,2.9578,2.9336,2.8131,2.7276,2.6792,2.6188,2.5769,2.5495,2.5495,2.5502,2.5538,2.5573,2.5601,2.5601,2.559,2.5596,2.5596,2.5596,2.5596,2.5596,2.5596,2.5593,2.5604,2.5595,2.5609,2.5583,2.5554,2.5528,2.5522,2.5522,2.5518,2.5492,2.5494,2.551,2.5506,2.5495,2.5503,2.5499,2.5499,2.5499,2.5499,2.5499,2.5492,2.5484,2.5433,2.5406,2.5339,2.5095,2.4534,2.3938,2.3448,2.2333,2.1435,2.1177,2.0654,2.0285,2.0238,2.0234,2.023,2.0233,2.0205,2.0205,2.0205,2.0197,2.0193,2.0193,2.0201,2.0214,2.0234,2.0265,2.0308,2.0308,2.0308,2.0308,2.0308,2.0296,2.0292,2.0295,2.0297,2.0314,2.8547,2.9377,0.0,3.0638,3.0759,3.0739,3.0687,0.0,0.0,0.0,0.0,3.0632,3.0573,3.0564,0.0,3.0471,3.0463,3.0442,3.0411,3.0419,3.0414,3.0414,3.0414,3.0419,3.0411,3.0442,3.0453,3.0463,3.0474,3.035,3.0002,2.9511,2.8961,2.8285,2.7256,2.6558,2.6254,2.5728,2.5468,2.549,2.549,2.549,2.549,2.5538,2.557,2.557,2.556,2.5564,2.5564,2.5564,2.5564,2.5564,2.5564,2.5564,2.5564,2.5554,2.557,2.5548,2.5518,2.5508,2.5501,2.5501,2.5498,2.5506,2.5491,2.5507,2.5503,2.5492,2.5507,2.5507,2.5507,2.5484,2.548,2.5488,2.5484,2.5456,2.5406,2.5408,2.5391,2.5402,2.4951,2.447,2.4167,2.2941,2.1908,2.1543,2.0784,2.0257,2.0211,2.0203,2.019,2.0197,2.0203,2.0199,2.0199,2.0186,2.0162,2.0162,2.019,2.0203,2.0201,2.0245,2.0261,2.0261,2.0285,2.0308,2.0308,2.0308,2.03,2.0304,2.0299,2.0301,2.9285,0.0,0.0,3.0725,3.0691,0.0,3.0608,3.064,3.0653,3.06,0.0,3.0559,3.051,3.0485,3.0463,3.0406,3.0396,3.0367,3.0304,3.0292,3.0292,3.0292,3.0292,3.0305,3.0298,3.0361,3.039,3.0381,3.0375,3.003,2.9235,2.9047,2.8261,2.6737,2.6626,2.6191,2.5417,2.5397,2.5429,2.5484,2.5484,2.5484,2.5488,2.5494,2.5492,2.5495,2.5495,2.5495,2.5495,2.5495,2.5495,2.5495,2.5495,2.5495,2.5495,2.5492,2.5492,2.5492,2.5492,2.5494,2.5495,2.5495,2.5503,2.5507,2.5507,2.5507,2.5507,2.5507,2.5507,2.5488,2.5488,2.5452,2.5421,2.548,2.5433,2.5397,2.5397,2.5406,2.5398,2.5394,2.5346,2.5077,2.4336,2.349,2.2601,2.1635,2.0757,2.0211,2.0203,2.0205,2.0208,2.0188,2.0186,2.0192,2.0192,2.0145,2.0093,2.0093,2.0155,2.0192,2.0192,2.0201,2.0207,2.0192,2.0261,2.0288,2.0308,2.0308,2.03,2.03,2.0304,2.0306,2.9275,3.0108,0.0,0.0,3.0649,3.0601,3.0545,3.0491,3.0481,3.0506,3.0476,3.0433,3.0419,3.0377,3.0348,3.033,3.0318,3.0331,3.0305,3.0292,3.0292,3.0292,3.0292,3.0292,3.0299,3.0305,3.0311,3.0324,2.974,2.9316,2.9123,2.7873,2.6993,2.6627,2.6014,2.5584,2.5395,2.5395,2.5419,2.5423,2.5423,2.5412,2.5429,2.5488,2.5498,2.5495,2.5495,2.5495,2.5495,2.5495,2.5495,2.5495,2.5495,2.5495,2.5492,2.5494,2.5506,2.5503,2.5511,2.5499,2.5496,2.5496,2.5492,2.5507,2.5507,2.5507,2.5507,2.5507,2.546,2.5425,2.5425,2.5412,2.54,2.5423,2.5419,2.5391,2.5397,2.5403,2.5389,2.5322,2.5313,2.525,2.5077,2.4356,2.3293,2.1729,2.0768,2.0199,2.0195,2.0205,2.0173,2.0131,2.0126,2.0122,2.0122,2.0117,2.0093,2.0093,2.0117,2.0122,2.0122,2.0176,2.019,2.0192,2.0215,2.0257,2.0308,2.0308,2.0292,2.0296,2.0296,2.0299,2.9838,0.0,0.0,3.0665,0.0,3.0495,3.0463,3.0406,3.0352,3.0352,3.0352,3.0346,3.0349,3.0292,3.0241,3.0246,3.0226,3.0206,3.0192,3.0192,3.0192,3.0192,3.0206,3.0219,3.024,3.0253,3.0266,3.0305,2.9525,2.8879,2.8495,2.7286,2.6409,2.5981,2.5568,2.5379,2.5393,2.5393,2.5402,2.541,2.541,2.5395,2.5408,2.5468,2.5491,2.5506,2.5506,2.5506,2.5506,2.5506,2.5506,2.5506,2.5506,2.5506,2.5503,2.5507,2.5503,2.5503,2.5492,2.5507,2.5507,2.5507,2.5507,2.5507,2.5507,2.5484,2.5456,2.5456,2.5421,2.5404,2.5404,2.5391,2.5393,2.5393,2.5393,2.5393,2.5398,2.5365,2.5346,2.5308,2.5308,2.5308,2.5308,2.4284,2.3025,2.1701,2.0762,2.0203,2.0196,2.0164,2.015,2.0093,2.0093,2.0093,2.0093,2.0093,2.0093,2.0093,2.0093,2.0093,2.0093,2.0121,2.0167,2.0193,2.0199,2.0215,2.0242,2.0285,2.0308,2.0308,2.03,2.03,0.0,0.0,3.064,3.0588,3.0479,0.0,3.0367,3.0317,3.026,3.0207,3.0235,3.0292,3.0273,3.0214,3.018,3.0171,3.0142,3.0106,3.0102,3.0095,3.0095,3.0095,3.0098,3.0109,3.0183,3.0173,3.0207,3.026,2.934,2.8484,2.7826,2.6883,2.6036,2.5301,2.5288,2.5332,2.5384,2.5384,2.5379,2.5378,2.5382,2.5406,2.5406,2.5464,2.548,2.5484,2.5484,2.5488,2.5507,2.5507,2.5507,2.5507,2.5507,2.5507,2.5507,2.5507,2.5507,2.5507,2.5507,2.5507,2.5507,2.5507,2.5507,2.5507,2.5484,2.5433,2.5401,2.5397,2.54,2.5406,2.5406,2.5388,2.5389,2.5389,2.5389,2.5389,2.5389,2.5346,2.5308,2.5308,2.5308,2.5308,2.5308,2.402,2.2719,2.1845,2.0966,2.0345,2.0206,2.0126,2.0093,2.0093,2.0093,2.0093,2.0093,2.0093,2.0093,2.0093,2.0093,2.0093,2.0093,2.0093,2.0122,2.0187,2.0197,2.0207,2.0192,2.0261,2.0308,2.0308,2.0308,2.03,0.0,0.0,3.0515,0.0,3.0421,3.0367,0.0,0.0,3.0199,0.0,3.0178,3.0199,3.0138,3.0121,3.0117,3.0117,3.011,3.0102,3.0102,3.0095,3.0095,3.0095,3.0102,3.0102,3.011,3.0101,3.0123,3.0123,2.8727,2.7822,2.7726,2.623,2.5332,2.5217,2.5262,2.5297,2.5302,2.5303,2.5313,2.5317,2.537,2.5403,2.5403,2.5406,2.5408,2.5406,2.5406,2.5452,2.5507,2.5507,2.5507,2.5507,2.5507,2.5507,2.5507,2.5507,2.5507,2.5507,2.5507,2.5507,2.5507,2.5507,2.5507,2.5488,2.5429,2.5401,2.5397,2.54,2.5397,2.5403,2.5403,2.5356,2.5313,2.5313,2.5313,2.5313,2.5313,2.5308,2.5308,2.5308,2.5308,2.5308,2.5308,2.4495,2.353,2.2671,2.1795,2.0962,2.0217,2.0112,2.0093,2.0093,2.0093,2.0093,2.0093,2.0093,2.0093,2.0093,2.0093,2.0093,2.0093,2.0093,2.0093,2.0117,2.0171,2.021,2.0192,2.0261,2.0308,2.0308,2.0308,2.03,3.04,3.0479,3.0431,0.0,3.0324,3.0266,3.0219,0.0,3.0106,3.0011,3.0019,3.0042,3.0091,3.0046,2.9999,2.9999,2.9959,2.9926,2.9926,2.9926,2.9943,2.9986,2.9991,3.0007,3.0038,3.0076,3.0098,3.0098,2.8559,2.7631,2.7631,2.61,2.5209,2.5209,2.5236,2.5247,2.5247,2.5238,2.5253,2.5307,2.5337,2.5351,2.5351,2.5341,2.5364,2.5404,2.5404,2.5417,2.5433,2.5433,2.548,2.5507,2.5507,2.5507,2.5507,2.5507,2.5507,2.5507,2.5507,2.5507,2.5488,2.5456,2.5433,2.5448,2.5408,2.5395,2.5406,2.5393,2.537,2.5351,2.5351,2.5317,2.5308,2.5308,2.5308,2.5308,2.5308,2.5308,2.5308,2.5308,2.5308,2.5303,2.5307,2.4576,2.3707,2.2839,2.1972,2.1087,2.0208,2.0093,2.0093,2.0093,2.0093,2.0093,2.0093,2.0093,2.0093,2.0093,2.0093,2.0093,2.0093,2.0093,2.0093,2.0093,2.0173,2.0203,2.019,2.023,2.0261,2.0308,2.0308,2.0296,0.0,0.0,3.0361,3.0279,3.0246,3.0178,0.0,0.0,3.0022,0.0,2.9891,2.9907,3.0018,2.9932,2.9864,2.9864,2.9823,2.9808,2.9808,2.9808,2.9816,2.9878,2.9901,2.9916,2.9975,3.0049,3.0061,3.0061,2.8529,2.7604,2.7592,2.6058,2.517,2.5201,2.5209,2.5201,2.5201,2.5206,2.5222,2.5262,2.5288,2.5298,2.5298,2.5303,2.5332,2.5369,2.5397,2.5395,2.5393,2.5393,2.5421,2.5476,2.546,2.546,2.5484,2.5488,2.5507,2.5507,2.5484,2.546,2.548,2.5421,2.5393,2.5408,2.5406,2.5393,2.5394,2.5384,2.5346,2.5308,2.5308,2.5308,2.5308,2.5308,2.5308,2.5308,2.5308,2.5308,2.5308,2.5308,2.5308,2.5298,2.5292,2.4753,2.4004,2.3144,2.2258,2.1402,2.0537,2.0246,2.0093,2.0093,2.0093,2.0093,2.0093,2.0093,2.0093,2.0093,2.0093,2.0093,2.0093,2.0093,2.0093,2.0093,2.0155,2.0182,2.0193,2.0199,2.0238,2.0308,2.0308,2.0308,0.0,3.0348,0.0,3.0226,3.0192,0.0,0.0,0.0,2.9907,2.9893,2.9851,2.9816,2.9816,2.9816,2.9808,2.9808,2.9808,2.9808,2.9808,2.9808,2.9808,2.9808,2.9851,2.9904,2.9912,2.9967,3.0014,3.0014,2.8505,2.7589,2.7592,2.6009,2.5131,2.5191,2.5201,2.5193,2.5193,2.5201,2.5192,2.5212,2.5282,2.5292,2.5292,2.5298,2.5308,2.5313,2.5365,2.5393,2.5391,2.5391,2.5391,2.5415,2.5417,2.5401,2.5406,2.5484,2.5507,2.5488,2.5429,2.5401,2.5397,2.54,2.5391,2.5406,2.5407,2.5398,2.5389,2.5317,2.5308,2.5308,2.5308,2.5308,2.5308,2.5308,2.5308,2.5308,2.5308,2.5308,2.5308,2.5308,2.5308,2.5298,2.5292,2.5208,2.4837,2.3962,2.3094,2.2243,2.1445,2.0614,2.0093,2.0093,2.0093,2.0093,2.0093,2.0093,2.0093,2.0093,2.0093,2.0093,2.0093,2.0093,2.0093,2.0093,2.0093,2.014,2.0193,2.0199,2.0238,2.0308,2.0308,2.0308,0.0,0.0,0.0,3.0145,3.0072,2.9996,2.9948,2.9883,2.9823,2.9789,2.9744,2.9727,2.9673,2.97,2.9745,2.9745,2.9737,2.9738,2.9738,2.9738,2.9747,2.9745,2.9763,2.9789,2.9834,2.9893,2.9945,2.9945,2.8966,2.8137,2.7561,2.6472,2.5641,2.515,2.5137,2.516,2.5203,2.5193,2.5204,2.5204,2.5212,2.5252,2.5311,2.5297,2.5293,2.5308,2.5337,2.5361,2.5407,2.5407,2.5397,2.5391,2.54,2.54,2.5404,2.5427,2.5432,2.5432,2.5404,2.54,2.54,2.5397,2.5407,2.5384,2.5356,2.5346,2.5322,2.5308,2.5308,2.5308,2.5308,2.5308,2.5308,2.5308,2.5308,2.5308,2.5308,2.5308,2.5308,2.5308,2.5308,2.5293,2.5233,2.5217,2.4908,2.4031,2.3638,2.3135,2.2281,2.1459,2.0924,2.0924,2.0423,2.0093,2.0093,2.0093,2.0093,2.0093,2.0093,2.0093,2.0093,2.0093,2.0093,2.0093,2.0093,2.014,2.0193,2.0201,2.0222,2.0308,2.0308,2.0308,3.0324,0.0,0.0,0.0,0.0,2.9888,2.9899,2.9832,2.9754,2.9709,2.9682,2.9645,2.9579,2.9598,2.9636,2.9636,2.9626,2.9645,2.9655,2.9673,2.9673,2.9691,2.9699,2.9717,2.9763,2.9825,2.9887,2.9904,2.9177,2.8495,2.7956,2.6894,2.5932,2.5126,2.5101,2.5119,2.5168,2.5184,2.5201,2.5201,2.5204,2.5225,2.5266,2.5282,2.5297,2.5293,2.5303,2.5337,2.5361,2.5361,2.537,2.5364,2.5393,2.5397,2.5402,2.5406,2.541,2.541,2.5402,2.5397,2.5397,2.537,2.5361,2.5356,2.5313,2.5308,2.5308,2.5308,2.5308,2.5308,2.5308,2.5308,2.5308,2.5308,2.5308,2.5308,2.5308,2.5308,2.5308,2.5308,2.5308,2.5274,2.5203,2.5192,2.4998,2.4427,2.4091,2.3684,2.3116,2.2319,2.1693,2.1426,2.0886,2.0423,2.0112,2.0093,2.0093,2.0093,2.0093,2.0093,2.0093,2.0093,2.0093,2.0093,2.0093,2.0135,2.0199,2.0208,2.021,2.0261,2.0288,2.0292,0.0,0.0,0.0,0.0,0.0,0.0,2.9912,2.9789,2.969,2.9692,2.9655,2.9588,2.9502,2.9492,2.9492,2.9492,2.9492,2.9512,2.9588,2.9598,2.9617,2.9692,2.9691,2.9708,2.9708,2.9763,2.9825,2.9895,2.9101,2.8687,2.8784,2.7215,2.5925,2.5114,2.5107,2.5107,2.5107,2.5168,2.521,2.5191,2.5201,2.5193,2.5193,2.5266,2.5306,2.5292,2.5298,2.5308,2.5308,2.5308,2.5308,2.5308,2.5365,2.5394,2.5398,2.5402,2.5406,2.5406,2.5403,2.5394,2.5389,2.5317,2.5308,2.5308,2.5308,2.5308,2.5308,2.5308,2.5308,2.5308,2.5308,2.5308,2.5308,2.5308,2.5308,2.5308,2.5308,2.5308,2.5308,2.5308,2.5308,2.5274,2.5203,2.5192,2.5195,2.5197,2.4478,2.3932,2.3932,2.3174,2.2338,2.156,2.1445,2.1096,2.0246,2.015,2.0131,2.0131,2.0112,2.0093,2.0093,2.0093,2.0093,2.0093,2.0093,2.0126,2.0192,2.0199,2.0205,2.0192,2.0265,2.03,3.0312,0.0,0.0,0.0,0.0,0.0,2.9825,2.9755,2.9692,2.9636,2.9607,2.955,2.9443,2.9433,2.9423,2.9429,2.9471,2.9502,2.9531,2.9531,2.955,2.9617,2.9636,2.9645,2.9701,2.9718,2.9735,2.9744,2.9616,2.9288,2.8679,2.7167,2.5911,2.5044,2.5076,2.5101,2.5107,2.5119,2.5162,2.5191,2.5197,2.5195,2.5193,2.5225,2.5252,2.5292,2.5298,2.5308,2.5308,2.5308,2.5308,2.5308,2.5317,2.5322,2.5322,2.5327,2.5332,2.5327,2.5322,2.5322,2.5317,2.5308,2.5308,2.5308,2.5308,2.5308,2.5308,2.5308,2.5308,2.5308,2.5308,2.5308,2.5308,2.5308,2.5308,2.5308,2.5308,2.5308,2.5308,2.5308,2.5308,2.5274,2.5203,2.5192,2.5195,2.5197,2.5,2.4841,2.4841,2.4072,2.346,2.3231,2.2639,2.2161,2.1932,2.1364,2.1039,2.1039,2.0461,2.0093,2.0093,2.0093,2.0093,2.0093,2.0093,2.0117,2.0126,2.0171,2.0205,2.0192,2.0265,2.0292,0.0,0.0,0.0,0.0,0.0,0.0,2.9808,2.9756,2.9664,2.9588,2.955,2.9521,2.9421,2.9401,2.939,2.9407,2.9429,2.9461,2.9453,2.9463,2.9482,2.9588,2.9598,2.9626,2.9683,2.9692,2.97,2.9708,2.978,2.9465,2.8647,2.746,2.6396,2.5523,2.5215,2.507,2.507,2.5095,2.5119,2.5162,2.518,2.5197,2.5195,2.5204,2.5231,2.5257,2.5283,2.5298,2.5308,2.5308,2.5308,2.5308,2.5308,2.5308,2.5308,2.5308,2.5308,2.5308,2.5308,2.5308,2.5308,2.5308,2.5308,2.5308,2.5308,2.5308,2.5308,2.5308,2.5308,2.5308,2.5308,2.5308,2.5308,2.5308,2.5308,2.5308,2.5308,2.5308,2.5308,2.5308,2.5308,2.5274,2.5203,2.5192,2.5195,2.5197,2.5191,2.5191,2.5191,2.4765,2.4301,2.3932,2.346,2.3002,2.2639,2.2166,2.1899,2.1899,2.1416,2.0996,2.0652,2.0633,2.048,2.0112,2.0093,2.0117,2.015,2.0182,2.0197,2.0192,2.0265,2.0308,0.0,0.0,0.0,0.0,2.9943,0.0,2.9808,2.9756,2.9664,2.954,2.9502,2.9491,2.9409,2.9407,2.9396,2.9396,2.9471,2.951,2.9411,2.9402,2.9433,2.955,2.9588,2.9617,2.9673,2.9701,2.971,2.9699,2.9708,2.9386,2.8631,2.7987,2.7176,2.6228,2.5504,2.5088,2.4993,2.507,2.5101,2.5107,2.5168,2.5185,2.5191,2.5201,2.5204,2.5192,2.5276,2.5302,2.5308,2.5308,2.5308,2.5308,2.5308,2.5308,2.5308,2.5308,2.5308,2.5308,2.5308,2.5308,2.5308,2.5308,2.5308,2.5308,2.5308,2.5308,2.5308,2.5308,2.5308,2.5308,2.5308,2.5303,2.5303,2.5303,2.5279,2.5298,2.5298,2.5298,2.5298,2.5298,2.5279,2.5288,2.5203,2.5212,2.519,2.5197,2.5191,2.5191,2.5191,2.5191,2.4899,2.4129,2.4033,2.3728,2.2944,2.2792,2.2734,2.2734,2.2658,2.2281,2.156,2.1541,2.1173,2.0399,2.038,2.0356,2.0326,2.023,2.0199,2.0192,2.0261,2.0288,0.0,0.0,0.0,0.0,2.9943,0.0,2.9808,2.9756,2.9683,2.9598,2.954,2.9472,2.9402,2.9409,2.9396,2.9396,2.9935,3.015,2.9481,2.9399,2.9409,2.9451,2.9501,2.955,2.9607,2.9683,2.9692,2.9701,2.97,2.9387,2.8638,2.8461,2.7691,2.617,2.6013,2.5649,2.5012,2.5006,2.5057,2.5107,2.5113,2.5156,2.5191,2.5201,2.5204,2.5192,2.5276,2.5302,2.5308,2.5308,2.5308,2.5308,2.5308,2.5308,2.5308,2.5308,2.5308,2.5308,2.5308,2.5308,2.5308,2.5308,2.5308,2.5308,2.5308,2.5308,2.5308,2.5308,2.5308,2.5308,2.5308,2.5293,2.5297,2.5297,2.5262,2.5228,2.5228,2.5228,2.5228,2.5228,2.5262,2.5287,2.5217,2.5195,2.5206,2.5197,2.5191,2.5191,2.5191,2.5191,2.5134,2.4956,2.4956,2.4885,2.4713,2.4052,2.3646,2.3646,2.2983,2.2524,2.2371,2.2376,2.2295,2.2123,2.2104,2.1803,2.1163,2.0513,2.0199,2.0192,2.0215,2.0257,0.0,0.0,0.0,3.011,2.9975,0.0,0.0,2.9755,2.9682,2.9617,2.956,2.9521,2.9423,2.9411,2.9409,2.9407,3.0084,3.0456,3.0065,3.0344,3.0607,3.065,3.0681,3.0574,3.0224,3.0235,3.0105,2.972,2.97,2.9548,2.917,2.8797,2.8029,2.6787,2.6355,2.5778,2.5011,2.5005,2.5038,2.5101,2.5101,2.515,2.5191,2.5203,2.5193,2.5192,2.5247,2.5273,2.5308,2.5308,2.5308,2.5308,2.5308,2.5308,2.5308,2.5308,2.5308,2.5308,2.5308,2.5308,2.5308,2.5308,2.5308,2.5308,2.5308,2.5308,2.5308,2.5308,2.5298,2.5307,2.5307,2.5292,2.5252,2.5252,2.5222,2.5192,2.5192,2.5192,2.5192,2.5192,2.5231,2.5245,2.5215,2.5204,2.5201,2.5197,2.5191,2.5191,2.5191,2.5191,2.5191,2.5191,2.5191,2.5191,2.5191,2.4803,2.4555,2.4555,2.4134,2.3695,2.3269,2.325,2.304,2.2601,2.2601,2.239,2.1994,2.1584,2.0976,2.0193,2.0199,2.0215,0.0,0.0,0.0,0.0,3.0014,2.9899,0.0,0.0,0.0,2.9636,2.9626,2.9588,2.9453,2.9433,2.9412,2.9419,3.0097,3.0674,3.082,3.1545,3.202,3.1886,3.1886,3.1669,3.1084,3.0898,3.0507,2.9758,2.971,2.969,2.969,2.9142,2.8449,2.7667,2.6798,2.5996,2.5231,2.5087,2.5025,2.5101,2.5107,2.5144,2.5191,2.5191,2.5201,2.5192,2.5192,2.5243,2.5308,2.5308,2.5308,2.5308,2.5308,2.5308,2.5308,2.5308,2.5308,2.5308,2.5308,2.5308,2.5308,2.5308,2.5308,2.5308,2.5308,2.5308,2.5303,2.5303,2.5307,2.5306,2.5282,2.5241,2.5206,2.5206,2.5201,2.5195,2.5195,2.5195,2.5195,2.5195,2.5198,2.5206,2.5193,2.5206,2.5195,2.5197,2.5191,2.5191,2.5191,2.5191,2.5191,2.5191,2.5191,2.5191,2.5191,2.5191,2.5191,2.5191,2.5191,2.488,2.4186,2.4148,2.3823,2.3122,2.3103,2.3021,2.2849,2.2849,2.21,2.0675,2.0677,2.0679,0.0,0.0,0.0,3.0197,3.0042,2.9888,2.988,0.0,2.9763,2.9699,0.0,2.9673,2.9598,0.0,0.0,2.9482,3.0163,3.0945,3.1655,3.2445,3.2676,3.1898,3.1857,3.1882,3.1864,3.1274,3.0555,2.9758,2.9692,2.9692,2.9692,2.9615,2.9226,2.8487,2.7678,2.6866,2.6065,2.537,2.5024,2.5101,2.5101,2.5145,2.5191,2.5191,2.5201,2.5192,2.5192,2.5243,2.5308,2.5308,2.5308,2.5308,2.5308,2.5308,2.5308,2.5308,2.5308,2.5308,2.5308,2.5308,2.5308,2.5308,2.5308,2.5308,2.5308,2.5308,2.5303,2.5302,2.5292,2.5287,2.5222,2.5215,2.5198,2.5198,2.5201,2.5203,2.5203,2.5203,2.5203,2.5203,2.5197,2.5203,2.5206,2.5189,2.5197,2.5191,2.5191,2.5191,2.5191,2.5191,2.5191,2.5191,2.5191,2.5191,2.5191,2.5191,2.5191,2.5191,2.5191,2.5153,2.5057,2.5057,2.5019,2.4905,2.4905,2.4517,2.3741,2.3741,2.328,2.2417,2.2422,2.2412,0.0,0.0,2.9666,3.0091,3.0135,3.0049,2.9972,2.9907,2.9849,2.9815,0.0,0.0,0.0,0.0,0.0,0.0,3.0183,3.0827,3.115,3.2333,3.3168,3.3187,3.3252,3.3153,3.2793,3.1631,3.0762,3.0424,2.9964,2.9701,2.9701,2.971,2.9343,2.8577,2.8261,2.747,2.6154,2.5842,2.5492,2.5101,2.5101,2.5139,2.5191,2.5191,2.5201,2.5192,2.5192,2.5243,2.5308,2.5308,2.5308,2.5308,2.5308,2.5308,2.5308,2.5308,2.5308,2.5308,2.5308,2.5308,2.5308,2.5308,2.5308,2.5308,2.5308,2.5298,2.5302,2.5292,2.5266,2.5245,2.5209,2.5206,2.5208,2.5208,2.5197,2.5191,2.5191,2.5191,2.5191,2.5191,2.5191,2.5197,2.5208,2.5197,2.5191,2.5191,2.5191,2.5191,2.5191,2.5191,2.5191,2.5191,2.5191,2.5191,2.5191,2.5191,2.5191,2.5191,2.5191,2.5191,2.5191,2.5191,2.5191,2.5191,2.5191,2.5019,2.465,2.465,2.4484,2.4137,2.3153,2.2704,2.8429,2.894,2.9221,2.9768,3.0047,3.0178,3.0083,3.0003,2.9956,2.9926,2.9876,0.0,0.0,0.0,0.0,0.0,0.0,3.0495,3.0708,3.1763,3.2877,3.3811,3.4174,3.4076,3.3368,3.2045,3.1137,3.0912,3.0152,2.9701,2.9701,2.9701,2.9428,2.8852,2.8688,2.7911,2.6465,2.629,2.5827,2.507,2.5095,2.5133,2.5174,2.5185,2.5201,2.5192,2.5192,2.5243,2.5308,2.5308,2.5308,2.5308,2.5308,2.5308,2.5308,2.5308,2.5308,2.5308,2.5308,2.5308,2.5308,2.5308,2.5308,2.5308,2.5308,2.5307,2.5306,2.5282,2.5245,2.5193,2.5201,2.5208,2.5191,2.5191,2.5191,2.5191,2.5191,2.5191,2.5191,2.5191,2.5191,2.5191,2.5191,2.5191,2.5191,2.5191,2.5191,2.5191,2.5191,2.5191,2.5191,2.5191,2.5191,2.5191,2.5191,2.5191,2.5191,2.5191,2.5191,2.5191,2.5191,2.5191,2.5191,2.5191,2.5191,2.5191,2.5191,2.5191,2.5191,2.5172,2.3946,2.3383,2.778,2.8555,2.911,2.9123,2.9666,3.02,3.0192,3.015,3.0079,3.0003,2.9948,2.9899,0.0,0.0,0.0,0.0,0.0,0.0,0.0,3.0842,3.1458,3.3049,3.3982,3.4177,3.3379,3.2552,3.1748,3.0968,3.0152,2.9701,2.9701,2.9701,2.9692,2.9671,2.8971,2.8202,2.738,2.6593,2.5794,2.4993,2.5063,2.5095,2.5107,2.5174,2.5201,2.5192,2.5192,2.5243,2.5308,2.5308,2.5308,2.5308,2.5308,2.5308,2.5308,2.5308,2.5308,2.5308,2.5308,2.5308,2.5308,2.5308,2.5308,2.5308,2.5308,2.5307,2.5287,2.5222,2.5195,2.5206,2.5197,2.5191,2.5191,2.5191,2.5191,2.5191,2.5191,2.5191,2.5191,2.5191,2.5191,2.5191,2.5191,2.5191,2.5191,2.5191,2.5191,2.5191,2.5191,2.5191,2.5191,2.5191,2.5191,2.5191,2.5191,2.5191,2.5191,2.5191,2.5191,2.5191,2.5191,2.5191,2.5191,2.5191,2.5191,2.5191,2.5191,2.5191,2.5191,2.5191,2.5134,2.5115,2.6904,2.7324,2.7778,2.8838,2.9298,2.9608,3.0132,3.0213,3.0157,3.0135,3.0076,3.0014,2.9975,0.0,0.0,0.0,0.0,0.0,0.0,3.0603,3.1541,3.313,3.4019,3.4405,3.4175,3.3427,3.2611,3.1767,3.0959,3.0265,2.972,2.9701,2.9692,2.9692,2.95,2.9015,2.8202,2.743,2.6655,2.5848,2.5329,2.5095,2.5107,2.5174,2.5201,2.5192,2.5192,2.5243,2.5308,2.5308,2.5308,2.5308,2.5308,2.5308,2.5308,2.5308,2.5308,2.5308,2.5308,2.5308,2.5308,2.5308,2.5308,2.5308,2.5308,2.5278,2.5222,2.5212,2.5198,2.5203,2.5191,2.5191,2.5191,2.5191,2.5191,2.5191,2.5191,2.5191,2.5191,2.5191,2.5191,2.5191,2.5191,2.5191,2.5191,2.5191,2.5191,2.5191,2.5191,2.5191,2.5191,2.5191,2.5191,2.5191,2.5191,2.5191,2.5191,2.5191,2.5191,2.5191,2.5191,2.5191,2.5191,2.5191,2.5191,2.5191,2.5191,2.5191,2.5191,2.5191,2.5191,2.5191,2.6138,2.6478,2.6942,2.8,2.8455,2.8876,2.9684,2.9845,2.9889,3.0176,3.019,3.0132,3.0083,0.0,0.0,0.0,0.0,0.0,0.0,3.0498,3.1384,3.2427,3.3465,3.4239,3.4564,3.3869,3.3043,3.2161,3.1344,3.0555,2.9739,2.9701,2.9701,2.9701,2.9774,2.9403,2.8611,2.7877,2.7084,2.6252,2.5475,2.5089,2.5095,2.5168,2.5195,2.5201,2.5206,2.5238,2.5293,2.5303,2.5308,2.5308,2.5308,2.5308,2.5308,2.5308,2.5308,2.5308,2.5308,2.5308,2.5308,2.5308,2.5308,2.5308,2.5308,2.5253,2.5192,2.5192,2.5193,2.5191,2.5191,2.5191,2.5191,2.5191,2.5191,2.5191,2.5191,2.5191,2.5191,2.5191,2.5191,2.5191,2.5191,2.5191,2.5191,2.5191,2.5191,2.5191,2.5191,2.5191,2.5191,2.5191,2.5191,2.5191,2.5191,2.5191,2.5191,2.5191,2.5191,2.5191,2.5191,2.5191,2.5191,2.5191,2.5191,2.5191,2.5191,2.5191,2.5191,2.5191,2.5191,2.5191]}]]